GFSGL_con_lsi_000.txt.gz
Lid_Strength_Index
3 3 3 3 3 3 3 3 3 3 3 3 2 2 2 2 2 1 2 2 2 3 3 2 2 2 2 2 3 3 4 4 6 5 4 3 3 2 2 2 1 2 3
3 3 4 3 3 3 3 3 3 3 2 2 2 2 2 2 2 2 2 2 3 3 3 3 3 2 3 3 3 4 4 4 6 7 6 5 5 4 4 3 2 2 3
3 3 3 3 3 3 3 3 2 2 2 2 3 3 3 3 3 4 4 4 4 5 4 4 4 4 5 5 4 5 5 4 5 6 7 6 6 5 5 4 4 4 2
2 3 3 3 4 4 3 3 3 2 3 3 3 3 3 3 4 4 4 5 5 5 5 5 5 4 5 5 5 5 5 7 7 8 8 8 7 6 6 7 7 5 5
3 3 3 3 3 3 2 3 3 2 3 3 3 3 4 4 5 6 6 6 6 6 5 5 4 3 2 3 5 6 7 8 9 9 9 8 8 8 8 6 7 6 6
3 3 2 2 2 2 2 2 2 3 3 3 3 4 4 4 6 6 6 7 6 6 7 6 5 3 2 2 2 3 6 8 9 10 10 10 10 9 8 8 9 10 10
3 2 2 2 2 1 1 2 3 3 3 3 4 4 4 5 6 6 6 7 7 7 7 7 6 4 3 3 3 4 5 5 6 8 10 10 10 9 9 10 10 10 10
3 2 1 1 2 1 1 1 2 3 4 4 4 4 5 4 4 4 6 8 8 7 7 7 6 6 5 5 5 6 7 7 7 7 8 9 8 8 8 8 8 8 9
4 2 1 1 1 2 2 2 3 4 4 4 4 5 5 5 3 4 6 8 7 8 6 6 5 5 4 4 6 6 7 7 6 6 6 6 6 6 6 8 9 10 10
3 2 2 1 1 2 2 2 3 4 4 4 5 5 4 5 4 5 6 8 9 7 6 5 5 5 5 5 6 6 8 8 8 9 9 9 8 7 6 6 8 10 11
2 2 1 1 2 1 2 3 4 4 5 5 6 6 5 5 6 5 6 7 8 8 8 7 6 4 5 6 6 8 9 9 10 10 10 10 9 9 8 7 7 8 10
2 2 1 1 1 2 3 4 4 5 5 7 8 7 6 6 5 6 7 7 7 9 9 7 7 6 6 6 7 7 8 9 11 11 11 10 10 9 8 8 7 7 6
2 2 2 2 2 3 4 5 5 5 7 7 8 8 8 7 8 7 8 8 8 9 8 8 7 7 7 7 7 8 9 10 10 11 11 11 10 9 8 8 7 7 7
3 3 3 3 4 4 4 4 5 6 7 7 9 9 9 9 10 10 10 9 9 9 9 9 8 9 9 9 9 9 10 10 11 11 11 10 9 9 9 8 8 8 9
3 3 4 5 5 5 4 5 6 6 7 9 9 10 12 12 11 9 10 10 10 10 10 10 11 11 11 11 11 11 11 11 11 11 11 10 10 10 10 10 8 10 10
5 5 5 5 5 5 5 5 6 6 7 7 8 10 10 9 9 9 9 9 9 10 11 12 13 13 13 12 12 12 12 12 12 11 11 11 11 11 10 9 7 10 12
5 5 5 6 5 6 6 6 7 6 6 7 7 8 8 8 8 9 9 9 9 10 12 12 13 13 13 13 13 13 13 12 11 11 11 11 11 11 10 10 9 10 10
5 6 5 5 6 6 7 6 6 7 8 8 7 7 8 7 8 9 9 10 12 12 13 13 13 13 13 13 13 13 13 12 12 12 11 11 12 11 10 11 10 10 9
5 6 6 6 6 6 6 6 6 6 7 7 8 8 9 8 7 8 9 14 14 13 13 13 13 13 13 13 14 13 13 13 13 13 12 11 11 10 11 11 10 12 11
4 6 7 6 6 6 6 6 7 7 7 7 8 9 10 11 12 11 12 15 16 14 13 13 13 13 13 14 14 14 14 14 13 14 14 13 11 10 11 11 10 11 10
5 5 5 6 6 6 6 6 6 7 7 7 8 10 13 13 12 12 12 14 16 15 15 13 13 14 14 14 14 15 15 15 15 14 14 14 12 12 11 10 11 10 11
6 6 5 5 5 6 6 6 6 6 7 7 7 8 12 12 11 12 11 13 14 15 15 15 14 14 14 14 14 15 15 16 16 16 15 15 13 13 12 11 12 14 12
5 5 6 6 5 6 6 6 6 6 6 7 7 7 7 8 10 12 12 12 11 13 15 15 15 14 15 15 14 15 15 16 16 15 16 16 14 14 13 13 13 15 16
5 5 6 6 5 6 7 6 6 6 6 6 6 6 7 7 11 11 11 10 12 12 14 15 15 14 15 15 15 15 15 16 15 15 16 15 14 14 14 14 16 14 18
5 5 6 6 6 5 6 6 6 5 5 5 5 6 6 7 8 8 9 10 12 13 13 15 14 14 14 15 15 15 16 15 16 16 15 14 15 16 16 15 16 14 17
5 5 6 5 5 5 5 5 6 6 6 5 5 5 6 7 8 7 11 11 12 13 14 14 14 14 13 13 14 14 15 15 16 16 16 15 16 16 17 16 16 16 16

GFSGL_con_lsi_003.txt.gz
Lid_Strength_Index
5 4 4 4 5 5 5 6 5 5 4 4 4 3 3 3 3 3 3 3 3 3 3 3 3 3 3 2 2 3 4 4 6 5 5 4 4 4 3 2 -0 1 0
5 5 5 5 5 5 5 5 5 4 4 3 3 4 4 4 4 4 3 3 4 5 5 5 5 4 5 4 3 3 4 4 5 8 7 6 5 4 4 3 2 2 1
5 5 6 4 5 6 6 6 6 5 5 5 4 4 4 4 4 5 5 6 6 6 6 7 6 6 6 5 5 5 5 5 7 7 9 7 6 5 5 5 3 3 2
5 5 5 4 4 6 5 5 4 4 5 5 4 4 3 4 5 6 6 7 7 7 6 6 6 6 6 5 5 5 5 8 8 9 9 8 8 6 6 7 6 5 5
5 5 5 4 5 4 4 3 3 3 4 5 5 4 4 5 5 7 7 8 8 8 7 6 6 5 3 3 4 5 6 7 8 9 10 10 10 9 9 8 9 8 7
8 6 4 4 4 3 2 2 3 4 5 6 5 5 6 5 6 6 7 9 8 8 9 8 7 6 5 4 4 4 4 6 8 9 10 11 11 10 10 10 10 10 11
7 6 4 4 4 2 1 2 4 5 6 6 5 5 6 8 6 6 6 8 9 9 9 8 7 6 6 5 5 4 5 4 4 7 10 10 10 10 10 11 11 11 11
7 6 4 4 3 2 1 3 4 5 6 6 6 6 6 6 5 4 6 8 8 8 7 7 7 6 5 5 6 6 6 6 6 6 8 8 9 8 9 9 9 9 10
6 6 5 3 3 3 3 3 4 6 6 6 6 6 7 7 4 4 6 8 8 8 7 7 6 6 5 4 5 6 6 6 4 5 5 6 6 6 6 8 10 11 12
6 5 3 3 3 3 2 3 5 6 6 6 6 6 5 7 4 5 6 9 11 9 8 8 7 6 4 4 6 8 9 8 7 8 9 9 8 8 8 8 8 10 11
5 3 3 2 3 3 3 5 6 7 6 8 7 7 7 7 7 6 7 10 10 9 10 9 8 6 6 5 5 7 8 7 8 10 11 11 10 10 9 9 8 9 10
4 4 3 3 3 3 5 6 6 7 7 9 11 11 10 9 6 7 8 8 8 11 10 9 8 6 7 7 6 6 7 8 11 11 12 12 11 10 9 8 8 8 7
5 5 4 4 4 4 6 7 8 8 10 10 9 13 11 10 11 8 9 8 9 10 10 9 8 8 8 8 7 7 8 9 10 11 11 11 10 9 9 9 9 8 8
5 5 5 5 5 5 6 7 8 11 11 9 11 12 13 12 13 12 11 11 9 10 10 10 10 9 10 9 10 10 10 11 11 12 12 11 10 10 10 9 10 9 9
5 5 6 7 7 6 7 8 9 9 9 11 12 12 18 19 13 8 9 10 10 10 11 12 12 12 12 11 12 12 12 11 12 12 12 11 11 10 10 10 10 10 10
6 7 7 8 8 7 8 8 6 6 6 7 8 12 15 10 8 7 8 8 9 9 12 13 14 14 14 13 13 13 12 12 12 12 12 11 12 11 11 10 10 11 11
6 6 8 7 8 9 10 10 12 8 5 6 7 7 8 8 7 7 8 9 10 10 14 14 15 16 15 14 14 14 14 12 12 13 12 12 12 11 11 12 13 13 13
6 7 9 10 10 10 8 7 7 8 9 8 7 7 7 7 7 7 8 10 16 13 14 14 15 16 15 14 14 15 14 13 14 13 13 13 12 12 13 12 12 13 12
6 8 10 11 12 9 7 7 8 8 8 8 10 9 10 8 7 7 8 17 19 18 14 14 14 15 15 15 16 16 16 15 16 16 15 14 13 12 12 14 13 13 14
7 9 10 11 11 7 7 8 8 8 8 8 9 13 12 15 18 19 19 21 20 19 19 15 14 14 16 15 17 18 16 16 17 16 16 16 14 12 13 13 13 13 14
9 10 10 11 9 7 7 8 8 8 8 8 10 14 15 16 18 17 18 20 19 19 20 19 17 17 17 17 15 16 17 18 18 17 17 17 16 15 13 12 15 14 12
8 9 9 9 7 8 7 8 8 8 8 8 8 13 15 18 16 14 16 18 19 18 18 19 19 17 16 16 16 18 17 20 19 18 17 17 16 15 15 15 14 18 17
12 12 9 7 9 12 9 8 7 7 7 7 7 9 11 12 13 13 15 17 18 18 19 18 20 19 17 17 17 17 18 18 17 17 18 17 16 16 17 18 18 17 19
13 13 11 8 13 13 12 8 7 7 7 8 7 7 11 11 13 14 14 16 18 18 20 19 18 17 17 17 17 17 16 18 17 17 18 17 16 16 17 17 17 18 19
12 13 10 7 13 11 12 10 7 7 7 8 9 9 8 10 12 13 15 14 15 18 18 19 19 18 17 17 15 16 16 15 16 16 17 17 18 18 18 17 19 17 20
10 10 8 7 14 12 10 12 9 7 7 7 7 8 7 10 11 12 13 16 16 17 18 19 18 17 17 17 15 14 15 15 16 16 16 15 17 18 18 19 18 19 18

GFSGL_con_lsi_006.txt.gz
Lid_Strength_Index
6 6 6 7 7 7 7 6 6 6 5 4 5 5 5 5 5 5 4 4 4 4 5 6 6 6 6 6 5 4 4 4 6 6 5 5 6 5 4 3 1 1 0
6 6 6 7 7 7 7 7 6 6 5 4 4 4 5 6 6 6 5 5 6 7 7 7 7 6 7 7 7 7 6 5 5 7 7 7 6 5 5 5 3 2 0
8 7 7 6 6 7 7 7 6 6 5 4 4 5 5 6 6 6 6 6 7 7 7 8 8 8 8 8 7 7 6 5 6 7 7 7 7 6 6 5 5 5 3
10 9 9 8 6 7 7 6 5 3 2 3 5 5 5 5 5 6 6 8 8 7 7 7 8 8 8 8 7 7 6 7 7 7 8 8 8 7 6 7 8 7 7
10 10 9 7 7 6 5 5 3 2 2 3 5 5 5 5 6 7 7 8 8 8 7 8 8 7 5 5 5 5 7 8 8 8 9 9 9 10 10 8 9 9 8
10 9 7 6 6 6 5 4 3 3 4 4 5 5 5 5 5 5 7 8 8 8 9 8 8 6 6 5 4 4 5 7 7 8 9 9 10 10 10 10 11 11 11
10 8 7 6 6 5 4 3 3 4 3 5 5 6 7 7 5 5 5 8 8 9 9 9 8 7 6 6 5 4 5 4 4 6 8 8 9 9 9 11 11 11 11
9 8 7 7 6 5 4 3 3 4 5 6 7 6 7 6 5 5 6 7 8 8 8 8 9 8 7 7 6 5 5 5 6 6 7 7 7 7 8 9 10 9 9
8 8 7 6 5 5 4 3 3 5 7 6 6 7 7 7 5 5 6 8 9 9 8 8 8 8 6 5 6 7 7 6 5 4 4 4 4 5 6 8 9 10 11
8 7 6 5 4 4 4 4 5 7 6 6 7 7 6 8 6 6 7 11 12 10 9 9 8 8 7 5 6 7 8 8 7 8 8 7 7 8 8 8 9 11 11
7 7 6 5 4 4 4 6 6 7 7 9 8 8 8 8 8 7 8 10 11 10 11 10 9 7 7 7 6 7 7 6 7 7 8 9 10 10 10 9 10 11 12
7 7 6 6 5 5 6 6 7 7 9 11 14 12 11 10 8 8 8 8 8 13 11 10 9 8 7 7 7 7 6 8 9 10 10 11 11 11 10 9 8 8 9
7 7 7 6 6 6 7 8 9 10 12 11 10 14 12 11 12 9 9 8 9 11 10 9 9 9 9 9 8 8 8 9 10 12 11 10 10 9 9 9 8 8 8
8 7 7 7 6 6 7 7 9 12 13 10 11 12 14 13 14 12 11 13 11 10 10 11 11 10 10 10 10 10 10 11 11 12 11 10 9 9 9 9 10 9 10
7 7 7 8 7 7 8 8 8 9 9 12 12 12 19 19 14 9 9 11 12 11 14 14 13 13 13 13 13 12 12 12 12 12 12 12 11 10 10 9 9 9 11
7 7 8 9 9 7 7 7 6 6 7 6 7 12 16 11 8 7 8 8 9 10 15 16 17 17 15 14 15 15 13 12 12 12 12 12 12 11 11 10 10 12 12
6 6 7 8 9 9 10 10 12 9 6 5 6 7 7 8 8 7 8 9 9 11 17 17 18 17 18 14 15 15 15 14 13 13 13 13 13 12 12 12 14 15 14
7 7 8 9 11 11 13 10 8 11 14 12 8 7 7 7 7 7 8 11 16 15 17 17 17 16 15 15 15 16 16 16 17 15 15 15 14 13 14 13 13 15 13
6 8 9 12 12 12 12 11 10 9 11 11 13 9 10 7 8 8 9 18 19 18 17 17 18 17 16 16 18 18 19 19 18 18 17 16 15 14 14 13 14 15 16
6 8 12 11 9 9 12 11 9 10 11 11 12 14 14 15 19 20 23 23 23 19 20 17 17 18 18 17 19 20 19 21 19 18 18 18 17 15 15 14 15 16 15
6 7 8 8 8 8 12 11 9 10 12 11 11 15 15 15 18 19 19 20 20 20 21 19 20 21 21 19 17 19 19 21 20 19 19 18 19 17 15 15 16 16 15
7 7 8 8 11 13 12 11 11 12 12 12 11 11 15 18 19 18 15 16 16 18 18 19 19 19 19 18 18 20 20 21 20 19 19 18 18 17 17 18 18 20 19
13 14 13 11 8 12 16 9 8 10 12 11 12 12 15 14 15 13 14 14 17 18 20 20 22 20 21 21 21 18 18 18 18 19 20 19 18 17 19 20 20 20 21
12 15 13 12 15 15 17 12 8 10 10 13 14 13 11 11 13 14 15 16 20 19 21 21 19 18 19 21 22 20 17 18 18 17 19 19 18 18 19 18 20 21 22
10 12 14 12 10 9 16 15 9 8 10 13 15 15 12 14 14 14 12 17 15 18 17 19 20 19 18 19 19 18 18 16 17 17 17 18 19 19 19 19 20 19 21
6 7 9 10 10 12 14 13 12 9 10 8 10 11 12 13 14 15 14 17 17 17 18 20 18 18 19 18 17 16 17 17 16 16 17 16 18 18 19 19 19 20 19

GFSGL_con_lsi_009.txt.gz
Lid_Strength_Index
9 8 8 8 7 8 8 8 8 8 7 6 6 6 5 5 5 5 6 5 5 6 7 7 7 7 7 7 7 7 7 7 8 7 4 3 5 5 5 3 4 4 1
10 9 9 8 8 8 8 9 8 7 8 7 6 4 5 5 5 5 5 5 7 8 7 8 8 7 8 8 8 8 8 7 7 9 6 6 6 5 5 5 4 4 5
11 11 10 10 9 8 9 9 8 7 6 6 4 5 5 5 4 5 5 7 7 7 8 8 8 8 9 9 9 8 7 6 7 8 7 7 6 6 6 5 6 6 5
11 11 10 9 8 9 10 9 8 7 6 6 4 5 5 4 5 5 6 7 8 7 7 8 8 8 9 9 8 6 5 6 6 7 8 8 7 7 7 7 8 7 8
11 10 9 8 9 9 8 8 7 6 5 4 5 5 5 5 5 7 7 7 8 8 8 8 8 7 6 6 7 8 7 7 7 6 7 8 8 9 9 8 9 9 8
11 10 9 9 8 8 7 7 5 5 4 6 4 5 6 6 5 5 6 8 8 8 9 8 8 7 7 6 6 6 6 7 7 7 7 8 8 9 9 9 9 11 12
11 10 9 9 8 8 7 6 5 5 5 5 7 7 7 7 5 4 4 7 7 9 8 8 8 8 8 8 7 6 6 5 4 5 7 7 8 9 9 9 10 10 11
11 10 9 9 9 8 7 6 6 4 5 7 7 7 7 6 4 5 5 7 9 8 9 9 9 9 8 8 7 7 6 6 5 5 6 6 7 7 7 7 8 9 9
11 10 9 9 8 7 7 6 6 5 7 7 7 7 8 8 6 6 7 10 10 10 9 9 9 9 8 6 7 7 7 6 5 4 4 4 4 4 5 6 8 9 10
11 9 9 8 8 7 7 7 6 8 7 7 7 8 8 9 7 7 8 11 13 11 10 10 9 8 7 7 8 8 9 8 7 7 7 6 6 7 6 6 8 9 10
10 9 9 8 8 8 7 7 8 7 7 8 8 9 9 9 10 8 8 12 12 10 11 11 10 8 8 7 7 8 8 7 7 7 7 8 8 8 7 8 9 10 11
9 9 9 8 8 7 8 8 8 8 9 10 14 13 12 11 9 9 8 8 8 12 11 10 10 9 8 8 8 8 8 8 9 9 9 9 9 9 8 9 9 9 9
9 9 8 8 8 8 8 9 9 9 11 11 10 14 13 11 12 9 9 8 9 13 11 9 9 10 10 10 9 9 10 10 11 11 11 10 9 9 8 8 8 8 8
9 8 7 8 8 8 8 8 9 11 11 9 11 12 14 13 14 13 12 14 11 11 12 13 12 11 12 12 12 11 11 12 11 11 11 10 9 9 9 8 9 9 10
8 7 7 8 8 8 8 8 8 8 8 10 12 12 19 20 15 10 9 13 16 13 17 18 15 14 14 14 14 14 13 12 13 13 13 12 11 10 9 8 8 9 11
7 7 7 6 8 7 8 8 5 5 5 5 6 12 16 11 8 8 8 9 9 10 16 20 23 20 17 15 16 16 16 15 14 13 14 13 13 12 11 10 10 11 11
8 7 6 6 8 9 9 10 13 9 6 5 5 6 7 9 7 7 8 9 10 12 19 20 23 23 18 15 15 16 17 17 16 15 15 15 14 13 12 12 12 12 12
7 8 7 8 7 9 10 11 13 13 14 13 9 6 6 6 7 7 8 11 17 16 18 20 21 21 19 15 15 17 17 19 21 18 16 16 16 15 14 13 13 15 14
6 6 8 8 9 10 9 11 12 13 13 14 13 11 10 6 6 8 9 17 19 19 18 17 20 20 19 18 20 19 21 21 22 22 20 18 17 16 15 14 14 15 15
6 6 8 9 9 8 8 12 11 12 13 14 15 15 15 15 18 20 22 23 23 19 20 17 17 19 21 21 23 22 19 20 20 20 21 21 20 18 16 15 16 19 17
5 6 7 7 7 10 11 12 10 12 12 15 14 16 15 13 14 18 15 20 19 17 19 18 20 23 24 23 20 23 21 22 19 20 20 20 21 19 17 17 17 17 17
6 6 7 7 7 10 12 13 13 12 11 14 14 14 15 18 16 16 15 15 16 16 16 18 18 18 19 19 20 24 23 23 21 20 20 19 19 19 19 19 20 21 19
6 8 9 10 11 12 16 15 15 13 11 14 13 15 15 15 11 14 14 14 16 17 17 18 20 20 21 22 24 22 21 21 20 19 20 20 18 19 20 21 20 20 20
5 7 10 11 16 15 17 16 15 13 11 11 13 15 16 14 13 14 14 16 19 18 20 18 17 17 18 22 24 22 19 21 22 20 19 19 19 18 19 19 20 21 22
5 7 10 11 11 11 12 13 13 11 10 10 11 13 13 16 16 15 15 16 17 20 17 18 18 17 17 18 20 19 20 18 21 20 20 18 19 20 19 19 20 19 21
4 6 6 6 8 8 9 9 9 10 10 10 9 10 10 12 12 14 14 16 16 17 17 19 19 17 18 18 18 18 19 18 20 19 21 19 18 18 19 19 19 19 19

GFSGL_con_lsi_012.txt.gz
Lid_Strength_Index
10 10 10 10 10 9 9 9 9 9 8 8 7 8 8 7 7 7 6 6 6 5 6 6 6 7 7 7 7 8 8 8 10 9 7 5 5 4 4 2 2 3 3
11 11 11 10 10 10 9 9 9 9 8 8 8 6 6 7 7 7 7 6 5 6 7 7 7 6 8 8 9 9 8 8 8 9 7 6 5 5 5 4 3 3 4
12 12 11 10 10 10 10 10 10 10 9 8 6 5 6 7 6 6 6 6 7 7 7 7 8 8 9 9 9 9 8 7 6 7 7 6 5 5 5 4 4 4 4
12 12 11 11 10 10 10 10 10 9 8 6 6 6 6 6 6 6 7 7 7 7 7 7 8 8 9 9 8 8 8 8 8 7 7 7 6 5 6 6 6 5 6
12 12 11 10 10 9 9 9 9 8 6 5 6 7 6 6 6 7 7 8 8 8 8 7 8 7 6 6 8 8 8 8 8 8 8 7 7 7 7 6 7 7 6
11 11 10 10 10 9 9 9 8 8 7 6 7 7 7 6 5 5 6 7 7 8 8 8 8 7 7 7 7 7 7 8 8 7 7 8 7 6 6 6 8 9 9
12 11 10 10 10 10 10 9 8 8 7 6 7 8 8 7 5 5 5 7 8 9 9 10 9 8 8 8 8 7 6 6 5 5 7 7 6 5 5 7 8 9 8
12 11 10 10 10 10 10 9 8 7 7 7 8 8 7 6 5 6 7 9 9 9 9 10 10 10 9 8 8 7 7 6 6 5 5 5 5 4 5 6 7 7 8
12 12 11 10 10 10 9 9 8 8 8 8 7 7 7 8 6 7 8 10 10 10 9 9 9 9 8 7 8 9 8 7 5 5 4 4 4 4 4 5 8 8 9
12 11 10 10 10 10 9 9 8 9 8 7 7 8 7 9 8 8 8 11 13 11 10 9 9 9 8 8 8 9 10 9 7 6 6 6 5 5 5 6 7 8 8
11 11 10 10 10 9 9 9 9 9 8 9 8 8 8 9 10 8 8 12 11 10 11 10 9 8 8 8 8 9 9 8 8 8 7 7 6 6 6 7 7 8 9
11 11 11 10 9 8 9 9 9 9 9 11 13 12 10 11 9 9 8 8 8 14 12 11 10 9 9 9 10 9 9 10 10 10 9 9 8 8 7 6 6 7 7
11 11 10 9 8 8 9 10 10 10 12 11 10 13 12 11 12 9 8 8 9 14 12 11 9 10 10 11 11 10 11 11 12 12 11 10 9 8 7 6 6 7 7
11 10 10 9 8 8 8 8 9 12 12 10 11 11 14 13 14 13 12 14 12 12 14 14 13 11 13 13 12 13 13 12 12 13 12 11 9 9 8 7 8 8 9
10 9 9 9 8 8 8 8 8 8 9 10 11 12 17 19 14 11 10 14 17 14 18 19 17 15 14 14 14 14 14 14 14 13 13 13 12 10 9 8 8 8 9
8 8 7 7 7 8 8 8 6 5 5 5 5 10 15 10 8 7 7 8 9 10 17 20 23 23 19 15 15 15 16 17 16 14 14 13 13 13 11 10 9 10 10
8 7 7 7 7 9 9 9 11 8 6 5 5 5 6 9 7 7 7 8 10 12 19 20 24 24 21 16 15 15 16 17 17 16 16 15 15 13 12 12 11 11 11
7 7 8 8 8 8 8 8 10 13 11 13 9 6 5 6 6 6 7 10 15 16 17 19 20 20 18 16 16 16 16 18 19 19 18 17 16 15 14 13 13 13 13
6 6 7 7 8 8 9 10 11 12 11 12 14 11 10 6 6 6 7 15 16 18 17 16 19 19 17 17 21 22 21 19 19 21 20 19 18 16 15 14 15 16 15
5 6 7 8 8 9 11 11 11 11 10 11 15 14 15 11 17 19 22 22 21 17 18 16 16 17 18 19 23 25 22 22 18 18 19 20 20 19 17 16 16 16 15
5 5 7 8 8 7 7 9 11 12 11 11 13 16 15 13 13 16 16 19 17 16 17 16 17 19 21 22 18 21 21 21 21 19 18 18 20 19 18 17 17 16 15
6 6 6 7 7 7 7 8 11 12 12 12 11 16 16 18 15 15 14 14 14 15 15 16 16 16 16 16 17 23 22 23 22 21 20 18 17 17 18 18 18 18 17
6 6 6 7 7 8 12 12 12 13 13 13 12 12 15 14 14 14 11 13 15 16 16 16 17 17 17 19 20 18 18 18 19 22 22 20 18 17 17 18 18 18 18
5 5 6 7 9 11 13 14 14 14 12 11 11 12 11 12 12 12 13 14 16 17 20 17 16 15 16 19 21 20 17 19 19 18 22 21 19 17 17 17 17 18 18
5 5 5 7 8 9 9 9 10 10 10 9 9 10 10 10 10 11 12 13 15 18 17 18 17 16 16 16 17 17 19 17 20 20 19 20 20 20 18 17 18 17 18
5 4 5 6 7 7 7 7 7 8 8 7 7 8 9 9 8 9 10 12 13 15 16 18 17 16 16 16 16 17 19 18 19 20 21 17 19 18 18 17 16 17 17

GFSGL_con_lsi_015.txt.gz
Lid_Strength_Index
8 7 7 7 7 6 7 6 6 6 5 5 5 5 5 5 5 4 3 3 3 2 2 2 3 3 3 3 4 4 5 6 8 6 5 4 4 3 3 2 1 0 0
8 8 8 7 7 7 7 7 6 6 6 6 5 6 5 4 4 4 3 3 3 3 3 3 4 4 4 4 4 5 6 5 7 8 6 5 4 3 3 2 1 1 1
9 8 8 7 7 7 7 7 6 6 6 6 6 6 5 3 3 4 3 3 3 3 4 4 4 4 5 5 5 6 6 6 6 7 7 6 5 4 3 2 2 1 1
8 8 8 7 7 7 7 6 6 6 6 5 5 5 4 4 4 4 3 3 4 4 4 4 5 5 6 6 6 6 7 7 7 8 8 7 6 4 4 4 4 2 2
8 9 8 7 7 7 7 7 6 6 5 4 5 5 4 4 4 3 4 4 4 5 5 5 6 6 6 7 7 7 7 8 8 8 8 7 6 6 5 4 4 3 3
9 9 8 8 7 7 7 7 6 6 5 5 5 4 4 5 5 4 4 4 5 6 7 7 7 7 7 7 7 7 7 8 8 8 6 7 6 5 5 4 5 5 6
9 9 9 8 8 7 7 7 7 6 5 4 4 5 5 4 4 5 6 5 7 7 7 8 8 8 8 7 7 7 7 7 6 6 7 6 6 5 4 5 5 5 5
10 9 9 8 8 7 7 7 7 6 5 4 5 5 5 5 5 6 7 6 7 7 8 8 8 8 7 8 7 7 7 7 7 6 5 5 5 4 4 4 4 4 4
10 9 8 8 8 7 8 7 6 6 5 5 5 5 5 5 6 7 7 7 7 8 8 7 8 8 8 7 8 8 9 8 7 6 5 4 4 4 4 4 5 5 6
9 9 8 8 8 8 7 7 6 5 6 5 5 5 7 6 7 7 7 7 8 8 7 8 8 8 8 8 8 9 10 9 8 8 7 5 5 4 4 4 5 6 6
9 9 8 8 8 7 7 6 6 6 6 6 6 6 6 6 6 8 8 7 7 8 9 9 8 9 8 8 9 9 9 9 9 9 8 7 6 5 4 4 4 5 6
9 9 8 8 8 8 6 6 6 6 6 6 6 6 6 6 8 8 8 8 8 8 9 9 9 9 9 9 10 10 10 10 9 9 9 8 7 6 5 4 4 4 4
10 9 9 8 8 7 6 6 6 6 6 6 6 5 6 6 6 8 8 8 8 8 8 9 10 10 10 10 11 11 11 10 10 10 10 9 8 6 5 5 4 4 4
10 9 8 8 8 6 6 6 6 6 5 5 5 6 5 6 6 6 7 6 8 8 9 9 11 11 11 11 10 10 11 11 12 11 11 10 8 7 6 5 5 5 6
10 9 9 8 8 7 5 5 6 5 4 4 5 5 5 6 6 6 7 6 7 8 10 9 10 11 11 11 11 11 12 12 12 11 11 10 10 9 7 6 6 6 7
10 9 8 7 7 6 5 5 5 5 5 5 5 5 4 6 7 7 7 7 8 9 9 10 11 11 11 11 11 12 12 13 13 12 11 11 10 10 9 8 7 7 7
10 8 7 6 6 6 6 5 5 4 6 5 5 5 4 5 7 6 6 6 8 9 9 9 10 10 11 11 11 11 12 13 13 13 12 12 11 10 9 9 9 9 9
8 7 6 6 6 5 5 5 5 5 5 5 5 6 5 5 5 6 6 6 7 9 8 9 9 9 10 11 11 11 12 12 13 13 13 13 12 11 10 10 10 10 9
7 6 6 5 5 5 5 5 5 5 6 5 5 6 6 6 5 5 5 6 6 7 7 8 8 8 9 9 10 11 12 12 13 14 13 13 13 12 11 11 11 12 11
6 6 6 6 5 5 5 6 6 5 5 5 5 5 5 8 7 6 5 6 6 6 6 7 7 7 8 9 9 10 11 11 12 12 13 13 13 13 13 12 12 11 11
6 5 6 6 5 5 5 5 5 5 5 5 5 4 7 6 6 5 5 6 6 6 6 6 6 7 7 8 9 9 11 11 12 12 12 13 13 14 13 12 12 12 12
6 6 6 6 5 5 5 5 4 5 5 6 5 5 9 8 6 5 5 5 5 5 5 5 5 6 6 7 7 8 10 11 10 11 12 13 12 12 13 13 13 13 13
5 5 5 6 5 5 5 5 5 5 5 5 6 5 5 6 6 5 5 5 5 5 5 6 6 6 7 8 7 8 9 9 9 11 12 12 12 12 12 13 13 14 14
6 6 6 5 5 5 5 6 5 6 6 5 5 5 5 5 5 5 5 4 5 5 6 7 7 7 7 7 8 8 9 9 9 10 13 12 11 11 12 13 13 14 14
6 6 6 5 5 5 5 5 5 5 5 5 5 5 5 5 5 4 4 4 5 5 6 8 8 7 8 9 8 9 10 11 11 12 11 12 12 12 12 12 12 13 14
6 6 5 5 5 4 5 5 5 4 4 4 4 4 4 4 5 4 4 4 5 6 6 6 7 9 8 8 9 10 13 13 12 14 11 10 11 11 11 12 12 11 12

GFSGL_con_lsi_018.txt.gz
Lid_Strength_Index
6 5 5 5 5 6 5 6 6 5 6 6 5 4 4 4 4 4 3 3 2 2 1 2 1 1 2 2 2 2 3 4 6 4 4 3 3 3 2 2 1 1 1
6 6 6 6 5 5 6 6 6 6 6 5 5 5 4 4 4 4 3 2 3 2 1 1 2 2 2 2 3 3 4 4 6 7 5 5 4 3 3 3 2 1 1
7 6 6 5 5 6 6 6 6 6 6 5 5 5 5 4 3 3 3 3 2 2 1 2 2 2 3 3 3 4 4 5 5 6 6 5 5 4 4 3 3 2 1
6 6 6 5 6 6 6 6 6 5 5 5 4 4 4 4 4 3 3 2 2 2 2 2 3 4 4 5 5 5 5 6 5 6 7 6 5 4 4 5 4 2 2
6 6 6 6 6 6 6 6 5 5 5 5 5 4 4 3 3 3 2 2 2 2 2 3 4 5 6 6 6 6 7 7 7 7 8 7 6 6 6 4 4 3 2
6 6 6 6 6 6 6 6 6 6 5 5 5 4 3 3 6 5 5 2 2 3 4 4 4 5 6 7 7 7 7 7 8 8 7 7 7 6 4 4 4 4 5
7 7 7 6 7 6 6 6 6 6 5 5 4 3 3 3 6 6 6 3 3 4 5 5 6 6 6 6 7 7 6 6 6 6 8 7 7 5 4 5 4 4 4
8 8 7 7 7 7 6 6 6 5 6 5 4 4 3 4 6 6 6 3 4 4 5 5 5 6 6 7 7 7 6 6 6 6 7 6 5 4 4 4 4 4 3
8 9 8 8 8 7 7 6 6 6 6 5 4 4 3 3 6 7 6 4 4 5 5 5 6 6 7 8 8 8 7 7 6 7 7 7 6 5 4 3 4 5 5
9 8 8 8 8 7 7 6 6 6 6 5 4 3 5 3 6 7 6 4 5 5 5 6 7 8 8 8 8 8 9 8 8 8 7 6 5 5 4 3 4 6 5
9 8 8 8 7 7 6 6 6 6 6 4 5 3 3 4 4 7 7 5 5 6 6 6 7 8 9 9 9 8 9 9 9 8 8 7 5 5 4 3 3 4 5
8 8 8 7 7 7 7 6 6 6 5 5 5 4 3 3 6 6 7 7 7 6 7 6 7 9 9 9 9 10 10 9 8 8 8 8 6 6 4 3 3 2 3
9 8 7 6 7 7 7 6 6 5 5 5 4 4 3 3 3 7 7 7 7 7 6 7 9 9 9 8 9 9 10 8 9 9 9 8 8 5 4 3 3 3 3
9 8 7 8 8 8 7 6 5 5 5 5 4 4 3 4 3 4 4 4 6 7 6 6 8 9 9 8 8 8 8 9 10 10 9 8 7 6 5 4 4 3 4
8 8 8 8 8 8 8 7 5 4 4 4 4 4 3 4 4 4 4 4 5 6 8 6 6 7 8 8 7 8 8 9 10 10 9 9 8 7 7 5 5 4 4
9 8 8 7 7 7 7 6 6 6 6 6 5 4 2 4 5 6 6 6 6 7 7 7 7 7 8 8 8 8 8 9 10 10 10 9 9 8 8 7 6 5 6
9 9 7 7 6 6 5 6 5 4 5 5 5 4 4 4 5 6 6 6 6 7 7 6 6 6 7 7 8 8 8 8 10 10 10 10 10 9 8 8 8 7 7
8 9 6 5 5 5 5 5 5 5 5 4 4 4 4 4 4 5 5 6 6 7 6 6 6 6 6 7 7 8 8 8 9 10 10 10 10 10 9 9 8 9 9
7 6 5 5 6 5 5 4 4 4 4 4 4 4 4 5 5 4 5 5 6 6 5 5 5 5 5 6 6 7 8 8 9 9 9 10 10 10 10 9 9 9 9
5 6 6 5 5 6 5 5 5 4 4 4 4 4 3 5 5 5 4 4 5 5 4 5 5 4 5 5 5 6 7 7 8 8 9 9 9 10 11 10 10 10 9
4 4 5 4 5 5 4 4 4 3 3 4 3 3 4 4 4 4 4 3 4 4 3 4 4 4 5 5 5 6 6 7 7 8 9 9 9 10 10 10 10 10 10
4 4 4 4 5 5 5 4 4 3 3 3 3 3 4 4 4 3 3 3 3 2 2 3 3 4 4 4 5 6 6 7 7 7 8 9 9 9 9 10 11 11 11
4 4 5 4 4 5 5 5 4 3 3 3 3 3 3 3 3 3 3 3 2 2 2 3 3 4 3 4 4 5 6 6 6 7 8 9 8 8 9 9 10 11 12
3 4 6 6 5 4 5 5 4 4 4 3 3 3 3 3 3 3 3 3 3 3 3 3 3 3 4 4 5 5 5 6 6 7 9 9 8 8 8 9 9 11 11
4 5 5 5 5 5 5 4 4 4 4 4 4 4 3 3 3 3 3 3 3 3 3 3 3 3 4 4 5 5 5 8 8 8 8 9 9 9 9 9 9 9 11
4 4 4 4 5 5 5 5 5 4 4 4 3 3 3 3 3 3 3 3 3 3 3 2 3 3 4 4 5 6 7 9 9 11 8 8 8 8 8 9 10 9 9

GFSGL_con_lsi_021.txt.gz
Lid_Strength_Index
6 6 5 5 5 6 5 5 5 5 5 6 5 5 5 4 4 4 4 3 4 3 2 2 2 1 1 1 1 2 2 3 5 4 3 3 3 3 3 2 2 1 1
5 6 5 6 5 5 5 5 5 6 5 6 5 5 5 5 4 4 4 4 4 3 3 2 2 2 2 1 2 3 3 3 4 6 5 4 4 4 3 3 3 3 2
6 6 6 6 5 5 5 5 5 6 6 6 5 5 5 5 4 4 5 5 3 3 2 2 2 2 2 3 4 4 4 5 4 6 6 5 4 4 4 4 4 3 3
6 6 6 5 5 5 5 6 5 6 6 6 5 5 4 5 5 5 5 4 3 2 2 2 2 3 3 4 5 5 5 6 6 7 7 6 6 5 4 5 5 4 4
6 6 5 5 5 5 6 6 5 6 6 6 6 5 5 5 5 5 4 3 3 2 2 2 2 4 6 6 6 6 6 7 7 8 8 7 7 6 6 5 6 5 4
5 6 5 5 5 6 6 6 6 6 6 6 6 6 5 5 9 8 7 4 3 3 3 3 3 4 4 5 6 6 6 8 8 7 7 8 8 7 6 6 6 6 6
6 6 6 6 6 6 6 7 6 6 6 6 6 6 6 6 8 8 8 5 3 3 3 4 4 5 5 5 5 6 6 6 6 6 7 7 8 7 7 6 6 5 5
6 6 6 7 7 7 7 7 7 6 6 6 6 6 6 7 8 8 8 4 3 3 4 4 5 5 5 7 7 7 7 6 6 6 6 7 7 7 7 6 6 5 3
7 7 7 8 8 8 8 7 7 6 6 6 6 6 6 6 8 7 7 4 3 4 4 4 5 6 7 8 8 8 8 7 5 5 6 6 6 6 6 5 6 6 5
8 8 8 8 8 8 8 7 6 6 6 6 6 6 7 5 7 7 6 4 4 4 4 4 6 7 8 8 8 9 9 8 8 8 8 7 6 5 4 4 5 6 6
8 8 9 8 8 8 7 7 6 7 6 6 6 5 4 4 5 6 6 5 4 5 5 5 5 7 8 8 8 9 9 8 9 8 8 7 6 6 4 4 3 4 5
9 9 9 8 8 7 7 6 7 7 7 6 5 5 4 4 6 6 6 6 6 6 6 5 5 7 8 8 8 8 9 9 7 8 8 8 7 7 5 4 3 3 2
9 9 9 8 7 7 7 7 7 6 6 5 6 5 5 3 3 5 6 6 7 6 5 6 7 7 8 7 7 8 8 7 8 9 9 9 8 6 5 4 3 2 3
10 9 8 8 8 7 7 7 6 5 5 5 5 5 4 3 3 2 4 4 6 6 5 5 6 7 7 7 7 6 6 7 8 9 9 8 7 6 6 5 4 4 3
10 9 9 8 7 8 7 6 6 4 4 4 4 4 3 3 3 3 3 3 3 5 6 5 6 5 6 6 6 6 6 7 8 8 9 9 8 8 7 5 5 4 4
10 9 8 8 7 6 6 5 5 5 5 6 6 5 2 4 4 4 4 5 6 6 6 6 6 5 6 6 6 7 6 7 7 8 8 9 9 9 8 6 6 6 6
10 9 8 7 5 5 5 5 5 4 5 5 5 5 4 4 3 4 5 5 6 6 7 6 5 5 6 6 6 6 7 7 7 7 8 8 9 9 8 8 7 7 8
8 8 6 4 4 5 4 5 4 4 5 4 4 4 4 4 4 4 4 5 6 6 6 6 5 5 5 5 5 6 6 6 7 7 8 8 9 9 9 9 8 8 9
5 4 4 4 4 5 5 5 5 4 4 4 3 4 4 4 4 4 4 5 5 5 5 5 4 4 5 5 4 5 6 6 7 7 7 8 8 9 10 9 9 9 8
3 5 6 5 4 4 4 4 4 4 4 4 4 3 3 3 4 4 4 4 4 4 4 4 4 4 4 4 4 5 5 6 6 6 7 7 8 8 9 10 9 10 9
3 3 5 4 4 4 4 4 4 4 4 4 4 2 3 3 3 3 3 3 3 3 3 3 3 3 3 4 5 5 5 5 6 6 7 7 8 8 8 8 10 10 10
4 4 4 4 4 4 4 4 4 4 4 4 3 3 3 3 2 3 2 2 2 2 2 2 2 3 3 4 4 4 5 6 6 6 6 7 8 7 7 8 9 10 10
4 4 4 4 4 4 4 4 4 4 4 4 3 3 2 3 3 3 3 2 2 2 2 2 2 2 2 2 2 4 5 5 5 5 7 7 7 7 7 8 8 9 10
4 3 4 4 4 4 4 4 4 4 4 4 4 4 3 3 3 3 3 2 2 3 2 2 2 2 2 2 3 3 4 4 5 6 7 7 7 7 7 8 8 9 9
3 4 4 4 4 4 5 4 4 4 4 4 4 4 3 2 2 3 3 2 2 3 3 3 2 3 2 3 3 4 4 5 6 6 7 8 8 8 8 8 8 8 8
5 4 4 4 4 4 4 5 5 5 5 5 4 4 3 3 2 2 2 2 3 2 2 2 2 3 3 3 3 3 4 5 7 7 7 7 8 8 7 7 8 8 8

GFSGL_con_lsi_024.txt.gz
Lid_Strength_Index
5 5 6 6 5 5 5 6 7 6 6 6 7 7 7 7 7 7 7 7 7 7 6 6 5 4 5 4 4 4 5 5 7 6 5 5 6 6 5 5 4 4 4
5 6 6 5 6 6 6 6 6 6 6 7 7 7 7 7 7 7 7 7 7 7 7 6 5 4 4 4 4 5 6 6 7 8 7 7 7 6 6 6 4 3 4
6 6 6 6 6 6 6 6 6 6 7 7 7 7 7 7 7 7 7 8 8 7 7 6 5 5 5 6 6 7 7 6 7 8 9 7 7 6 6 6 5 5 4
5 6 7 6 6 6 6 6 6 6 7 7 7 7 7 7 7 7 7 8 7 7 6 5 5 5 7 7 7 8 8 9 9 9 9 9 8 7 6 7 7 6 6
5 6 6 6 6 6 5 6 6 6 7 7 7 7 7 7 7 8 8 8 7 7 6 5 5 5 5 6 7 9 9 10 10 10 10 9 9 9 9 8 8 8 7
5 6 5 5 6 6 6 6 6 7 7 7 7 7 8 8 9 10 10 9 7 7 7 6 6 4 5 5 5 5 7 10 10 10 10 10 9 9 8 8 9 10 10
6 5 5 6 6 7 7 8 8 8 7 7 7 8 7 9 9 9 10 9 7 7 7 7 6 5 6 7 7 7 7 6 6 8 9 8 8 8 9 10 10 10 10
6 6 6 6 7 8 8 8 8 7 7 8 7 7 7 9 9 9 9 9 7 6 7 6 7 7 8 8 9 9 9 9 8 7 9 9 9 8 9 8 9 8 8
7 7 7 8 8 8 8 8 8 8 8 7 6 7 8 10 8 8 8 9 7 7 6 6 6 7 7 7 9 10 10 9 7 7 7 6 6 6 6 8 9 9 9
8 8 8 9 9 9 9 8 8 7 7 7 7 7 8 9 7 7 8 9 8 7 7 6 6 7 8 8 10 11 11 10 10 10 9 7 7 7 5 5 7 8 8
8 9 9 8 8 8 9 8 8 7 7 8 9 7 6 6 8 6 7 8 8 7 7 7 7 7 7 7 8 10 10 9 9 9 8 8 7 7 7 7 6 5 6
8 8 9 8 8 8 8 8 8 8 8 8 7 6 6 6 6 6 6 6 6 9 7 7 7 6 6 7 8 8 8 8 11 11 9 9 9 9 8 7 5 4 3
9 10 9 9 8 8 9 9 9 9 7 7 7 6 7 6 6 6 5 5 6 9 7 6 6 6 6 7 6 7 9 10 11 13 11 9 9 8 7 7 6 4 3
9 9 9 9 8 8 8 8 8 7 7 6 6 7 7 6 5 7 7 7 6 7 7 7 7 8 9 8 9 7 8 9 10 12 12 10 9 8 8 7 7 6 5
9 9 8 9 8 8 7 6 7 6 6 6 5 5 6 7 6 5 5 5 5 5 9 9 10 8 8 9 8 8 8 8 10 12 12 11 10 9 9 8 7 7 7
8 8 8 9 8 7 6 6 5 5 5 5 5 6 5 4 4 4 4 4 4 6 9 11 12 11 9 9 10 10 10 10 9 10 11 11 11 10 10 9 7 8 8
8 8 8 8 6 6 7 6 7 5 4 5 5 5 5 5 4 3 4 4 4 6 10 11 10 10 8 8 9 9 10 10 10 9 11 11 12 11 10 10 9 9 9
7 7 7 6 6 6 7 6 7 7 7 6 5 5 4 4 4 4 4 4 7 6 8 8 9 9 9 9 9 9 10 11 11 11 13 10 12 12 12 11 10 11 10
6 5 5 6 6 6 6 6 6 6 6 6 5 5 6 4 4 4 4 6 7 7 6 7 7 7 7 8 10 10 10 12 12 14 12 9 10 10 11 12 11 11 11
4 6 6 6 6 6 6 6 6 5 6 5 5 5 5 5 6 5 6 6 6 6 6 6 6 7 7 7 9 9 10 11 8 10 11 12 10 13 12 11 14 12 11
4 4 6 5 5 6 5 6 5 5 5 6 5 5 5 4 5 5 5 5 5 5 5 5 5 5 5 6 7 8 9 11 11 11 11 11 13 14 10 10 10 12 11
5 5 5 5 5 6 5 5 5 5 5 5 5 5 5 4 4 4 4 4 4 3 3 4 4 4 4 5 6 7 7 10 11 11 12 11 13 12 11 11 10 13 13
6 6 5 5 5 6 6 6 6 5 5 4 5 5 5 4 4 4 3 3 3 3 3 3 3 4 4 4 4 5 6 7 9 9 12 12 12 12 12 13 11 13 14
6 6 6 5 5 6 6 6 5 5 4 4 4 4 4 4 4 4 3 3 3 3 3 3 3 3 3 3 4 4 6 5 8 10 12 13 13 12 12 13 13 13 14
7 6 6 6 5 4 5 6 6 6 5 5 4 5 5 5 5 4 3 3 3 3 3 3 3 3 3 3 4 4 5 5 7 9 10 13 14 14 14 14 14 13 13
7 7 6 6 5 4 5 6 6 6 6 6 6 6 6 7 6 6 6 6 5 5 4 3 3 2 2 3 3 4 5 6 7 9 9 10 13 14 14 14 13 14 13

GFSGL_con_lsi_027.txt.gz
Lid_Strength_Index
7 8 8 8 7 7 7 7 8 7 9 9 8 8 9 8 8 9 9 9 8 9 8 8 8 7 7 7 7 8 7 7 10 9 8 7 8 7 6 6 5 5 5
7 8 8 7 6 7 6 7 8 8 8 8 8 8 8 8 8 9 9 9 9 9 9 9 9 7 9 8 9 9 8 8 10 11 9 9 9 8 8 8 6 5 5
8 8 8 6 6 6 7 7 7 8 8 8 8 9 8 8 9 8 8 9 9 9 9 10 9 8 10 10 9 9 9 8 10 11 10 9 9 9 8 7 7 7 5
8 8 7 6 6 6 7 7 8 7 8 9 8 8 8 8 7 8 9 9 8 8 8 8 8 9 10 9 8 9 9 10 10 11 10 10 10 8 8 9 9 7 7
7 7 6 6 6 7 7 7 7 8 8 8 8 8 8 8 8 9 8 9 10 10 9 8 8 8 6 7 8 9 10 10 11 11 11 10 10 10 10 8 9 9 9
6 6 6 6 6 7 7 8 8 8 8 8 8 8 9 8 9 8 9 11 10 9 9 10 9 7 6 5 5 6 7 10 11 12 11 11 10 10 8 10 10 11 12
5 5 6 7 7 8 9 9 9 9 8 8 8 8 8 9 8 9 10 11 9 9 9 9 8 6 7 8 7 7 8 7 8 10 11 11 11 10 10 10 11 11 11
7 7 8 9 9 8 9 9 9 8 9 9 9 8 7 8 9 9 9 10 9 8 8 8 8 9 8 8 9 9 10 10 9 9 11 11 10 9 9 9 9 9 9
8 9 9 9 9 9 9 9 8 9 9 9 8 8 8 10 8 7 8 9 9 8 7 7 7 8 7 6 9 9 10 10 8 7 7 7 6 6 6 7 8 9 11
9 10 9 8 8 9 8 8 9 8 8 8 8 8 8 8 6 6 7 10 9 9 8 8 6 8 7 7 9 10 12 10 10 10 9 9 7 7 6 8 8 9 9
9 8 9 8 8 8 8 8 8 9 9 10 9 8 7 7 8 5 5 8 9 8 8 8 8 6 6 6 6 10 11 9 9 9 9 9 8 8 8 8 8 8 8
9 9 8 8 8 8 9 9 9 9 10 9 8 7 8 7 6 5 5 6 7 9 8 8 8 5 5 5 6 7 6 7 13 12 12 11 10 9 8 8 7 7 6
9 9 8 8 8 8 9 9 10 9 10 9 8 8 7 7 7 5 5 5 6 9 8 7 5 5 5 6 5 5 7 10 13 15 13 12 11 9 8 8 8 7 6
9 9 8 8 8 8 8 8 8 10 11 9 9 9 7 6 7 8 7 6 7 7 8 8 8 8 10 9 9 7 8 9 10 13 13 12 11 11 10 9 10 8 8
9 9 9 11 9 9 8 7 8 8 8 9 9 8 10 7 5 6 7 8 9 8 11 11 10 11 10 9 10 9 10 10 11 13 14 13 11 11 10 9 9 9 10
10 10 11 11 10 8 8 8 6 6 6 5 5 6 7 5 4 4 4 4 5 5 7 13 14 15 13 10 11 11 12 11 11 12 14 13 13 13 11 10 9 10 10
10 10 10 9 9 9 10 10 10 8 5 5 5 5 4 4 4 4 4 4 4 6 13 13 15 14 12 9 10 10 12 12 12 12 14 15 14 12 12 11 10 10 11
9 9 9 8 8 9 10 9 7 7 9 8 6 5 4 4 4 4 4 4 8 6 10 10 11 11 10 9 9 11 12 14 13 13 16 17 17 15 15 13 12 13 12
9 9 8 8 7 6 7 7 7 9 9 8 7 7 7 4 4 4 4 6 8 8 8 8 8 8 8 8 8 10 14 15 16 18 17 16 16 14 15 12 14 13 13
7 8 8 7 6 6 6 7 7 8 8 8 8 7 7 9 8 6 5 5 6 7 7 7 7 7 7 7 6 9 12 15 16 16 16 18 19 17 17 16 15 16 12
7 7 6 5 6 6 6 6 6 8 8 8 7 6 6 6 6 5 6 6 6 6 6 6 6 6 6 8 8 8 8 10 12 13 14 16 20 16 16 14 15 12 13
7 7 7 7 6 6 6 6 6 8 10 9 7 7 7 5 5 5 4 5 5 4 4 4 5 5 5 6 6 7 8 9 12 12 13 14 15 16 16 14 16 15 15
10 10 9 8 8 8 7 6 5 7 9 10 5 5 7 5 5 4 4 3 3 3 3 3 4 4 5 5 5 5 6 8 8 9 12 13 15 17 16 16 16 16 17
10 10 9 9 8 7 7 6 6 6 9 10 9 5 5 5 4 5 4 3 3 3 3 3 3 3 3 4 4 4 5 6 7 8 10 12 13 15 18 16 16 17 16
13 12 12 12 11 11 10 9 8 8 9 9 9 11 7 7 7 7 7 7 7 7 6 4 3 3 3 3 3 4 5 5 6 8 10 11 14 15 17 17 18 16 17
15 13 15 14 14 13 12 12 11 11 10 10 10 10 10 10 10 9 9 9 10 10 9 8 8 8 7 4 3 3 4 5 6 8 9 10 13 16 18 17 18 17 16

GFSGL_con_lsi_030.txt.gz
Lid_Strength_Index
8 8 8 8 7 7 8 8 8 8 8 8 9 8 9 9 9 10 10 9 9 9 9 9 8 8 8 9 10 10 10 10 13 11 10 9 9 9 8 7 7 7 7
8 9 8 8 7 7 7 7 7 8 8 8 9 9 9 9 9 9 9 9 9 10 9 9 8 7 10 10 10 11 11 11 11 12 11 10 10 9 9 9 7 6 7
7 9 9 8 7 7 7 7 8 9 9 9 9 9 9 9 8 8 9 9 10 9 9 9 9 10 11 10 11 11 11 9 10 11 11 10 10 10 10 9 9 8 6
8 9 8 7 6 7 7 8 8 8 8 9 9 9 8 8 8 8 9 10 9 8 8 9 9 9 10 11 11 11 10 10 10 10 10 10 10 9 10 11 9 8 8
8 9 7 6 7 7 8 8 8 8 8 8 9 8 8 8 8 8 8 9 10 10 10 9 9 8 6 8 9 10 10 10 10 10 11 10 11 11 11 10 10 10 9
8 7 6 6 6 7 8 8 9 9 9 8 8 8 9 8 8 8 9 10 10 9 9 10 9 7 6 6 6 6 7 10 11 11 11 12 12 12 11 11 11 11 12
7 6 7 7 8 9 9 9 9 9 8 8 8 8 8 8 8 8 8 9 9 9 9 9 8 7 7 8 7 7 8 7 8 10 12 12 12 11 11 11 10 10 11
8 8 8 9 9 9 9 9 9 9 9 9 9 8 8 8 8 7 7 9 9 8 8 8 9 9 8 8 9 9 9 9 9 9 10 11 10 9 9 8 8 8 8
10 9 9 10 9 8 9 9 9 9 9 9 8 8 8 8 6 6 7 9 9 8 7 7 8 9 7 6 8 9 9 9 7 7 7 7 7 6 6 7 9 10 11
10 9 9 9 9 9 10 9 9 9 9 9 8 8 7 7 5 5 7 10 9 9 8 8 6 8 6 6 9 9 11 10 9 9 9 9 8 8 6 8 8 10 10
8 8 8 8 8 8 8 9 9 10 9 10 9 9 8 7 8 5 5 9 8 8 8 9 8 6 6 5 5 9 10 8 8 8 9 9 9 9 8 8 8 9 10
8 8 8 8 8 8 9 9 9 10 10 10 11 9 9 7 6 6 5 6 7 8 8 8 8 6 5 5 6 6 5 7 12 12 11 11 11 10 9 8 8 8 8
10 10 10 9 8 8 10 10 11 10 12 10 9 10 9 8 7 6 5 5 6 8 7 7 6 5 5 5 5 5 7 10 13 16 12 12 11 9 8 8 8 8 8
11 11 10 10 10 10 10 10 10 12 11 9 9 9 10 9 8 8 7 6 6 7 7 7 8 8 10 9 9 7 8 9 10 12 13 13 11 11 11 9 9 9 9
11 11 10 12 11 10 10 9 9 9 9 9 9 9 11 10 8 6 7 7 6 7 8 11 11 11 10 9 10 9 10 11 12 14 14 13 12 11 11 10 10 9 11
11 11 12 12 12 10 10 9 7 7 6 6 6 7 8 6 6 5 4 4 5 5 8 9 9 10 11 10 11 11 12 12 11 12 15 13 14 14 12 10 10 11 11
11 10 11 11 11 10 10 9 9 7 6 5 5 5 5 5 5 5 4 4 4 5 7 7 8 10 11 10 10 10 11 12 12 12 12 15 15 13 14 12 12 11 11
10 10 10 10 10 9 9 8 8 7 7 9 8 6 5 5 5 4 4 4 5 5 8 9 10 11 11 10 10 10 11 13 13 13 15 18 20 16 15 14 13 16 13
10 11 11 9 8 8 7 7 7 7 6 7 8 9 9 5 5 4 3 4 5 7 7 8 9 9 9 9 9 11 12 12 13 16 17 17 20 16 16 15 16 15 15
10 10 10 8 8 8 7 7 7 6 6 6 8 6 7 11 7 6 7 4 4 6 6 7 7 7 8 8 8 8 10 10 11 14 16 18 20 19 18 17 18 15 14
13 12 12 10 10 9 9 7 7 7 7 6 6 6 9 9 7 7 7 5 4 4 5 6 6 6 6 6 7 8 8 8 9 10 12 14 20 18 17 18 17 12 13
13 12 11 10 10 10 9 9 8 8 8 7 6 7 9 9 7 6 5 5 4 4 4 4 5 5 5 6 7 7 8 8 9 10 11 14 14 15 18 17 18 17 16
13 13 13 12 12 12 12 11 10 10 8 7 8 8 7 6 6 6 5 5 4 4 3 4 4 4 5 4 4 5 7 7 7 8 10 13 14 15 18 18 17 18 18
15 15 16 16 15 15 14 14 13 12 11 10 10 10 10 10 10 10 9 10 9 8 8 7 6 4 4 4 4 4 4 5 5 7 8 10 11 14 18 18 17 18 19
18 17 19 18 18 18 16 16 15 14 14 13 14 13 13 12 11 12 12 11 12 11 10 9 8 8 7 9 5 4 4 5 5 5 7 9 11 13 14 16 17 17 19
18 17 19 19 19 18 18 18 17 17 17 16 15 15 15 15 14 14 13 13 14 13 12 11 10 10 9 9 9 8 5 4 5 6 7 8 10 13 15 14 15 18 17

GFSGL_con_lsi_036.txt.gz
Lid_Strength_Index
9 10 10 9 8 7 7 9 9 8 8 8 9 8 8 8 9 10 9 10 10 10 10 10 10 9 8 8 8 8 8 8 9 8 9 8 9 9 8 8 7 7 6
9 9 9 8 8 8 9 9 9 8 8 8 8 8 8 9 9 10 10 9 10 10 10 10 9 7 8 8 8 9 9 9 10 11 10 9 9 8 8 8 7 6 6
9 8 8 9 9 10 9 8 8 8 8 9 8 8 9 9 9 9 10 10 10 10 10 10 9 9 9 9 9 9 9 9 10 10 10 9 9 8 8 7 7 7 6
9 9 10 9 8 8 9 9 9 8 9 9 8 8 9 9 9 9 9 9 9 9 9 9 8 9 9 9 9 9 10 10 10 10 10 10 9 8 8 9 9 8 9
9 10 10 8 9 9 9 8 8 8 8 8 9 8 8 9 9 9 9 9 9 9 9 8 8 8 6 7 9 10 10 11 10 10 11 10 10 10 10 9 10 10 9
9 10 9 9 9 9 9 9 9 9 8 8 8 9 9 9 9 8 9 9 10 9 10 9 9 6 6 5 5 7 9 10 10 11 11 11 11 10 10 10 11 11 11
9 9 10 10 10 10 10 9 8 9 8 9 9 9 9 9 9 8 7 9 9 10 10 9 9 8 7 8 6 6 7 6 7 9 11 10 11 10 10 10 10 10 10
11 11 10 9 9 9 9 9 9 9 9 10 9 9 10 9 8 8 7 9 10 10 9 9 9 9 8 8 9 9 9 9 8 8 9 9 9 8 8 8 8 8 8
10 10 9 8 9 9 9 9 9 9 9 9 9 10 10 10 8 7 7 9 10 10 9 8 8 9 7 6 9 10 9 9 7 6 6 6 5 5 6 8 9 10 11
9 8 8 8 8 9 9 9 9 9 10 11 11 11 10 10 8 7 7 11 10 9 8 7 6 7 7 6 8 9 10 9 9 9 8 7 6 7 6 7 8 10 10
8 8 8 8 8 8 9 10 10 11 12 12 12 11 10 10 9 7 7 9 8 8 8 7 7 6 5 5 6 9 9 8 9 9 8 8 8 8 8 7 7 8 10
8 9 9 10 11 11 12 12 12 13 13 12 12 11 10 10 9 8 6 6 6 8 8 8 7 6 5 5 5 6 6 7 9 9 10 9 9 9 8 8 7 7 7
12 13 13 12 12 13 13 13 13 13 14 12 11 11 10 10 10 7 6 5 5 7 7 7 6 5 5 5 5 5 6 7 9 10 10 10 10 9 8 8 7 7 7
13 13 13 13 13 13 13 13 13 13 13 11 11 10 10 10 10 9 8 8 8 7 7 6 6 6 6 5 6 5 5 7 8 9 10 10 11 10 10 9 10 9 9
13 13 13 14 14 14 13 12 12 11 10 10 10 10 9 9 7 6 7 9 9 8 9 6 6 7 7 7 7 7 7 8 9 10 12 11 11 11 10 10 10 10 11
13 14 14 15 15 14 13 12 9 8 8 7 7 7 7 5 5 5 5 5 5 5 7 7 8 8 8 7 7 7 7 8 8 9 11 11 11 11 11 10 10 11 11
15 14 14 15 14 13 12 12 14 11 9 8 7 6 5 5 5 4 4 4 5 5 6 6 7 7 8 7 7 7 8 8 8 9 10 11 12 12 12 11 11 11 11
16 16 17 16 15 15 15 14 14 14 14 12 9 7 7 6 6 5 5 4 6 8 6 6 6 6 6 6 7 7 7 8 10 10 11 12 13 12 13 12 11 13 12
17 17 16 16 16 15 15 14 14 14 13 12 12 10 11 10 8 6 5 6 7 7 6 6 5 5 5 6 6 6 7 8 10 12 11 12 14 12 13 12 12 15 14
17 17 17 15 16 16 16 15 15 14 14 13 13 13 13 13 13 12 8 8 7 6 5 6 5 5 5 6 6 6 7 8 10 12 12 12 12 12 12 13 14 14 11
18 17 18 18 17 17 18 17 16 16 16 15 16 15 14 13 13 13 12 11 12 11 9 7 6 6 5 5 5 6 7 8 8 9 10 11 12 12 12 12 13 13 12
19 19 19 19 19 19 19 18 19 18 18 19 18 16 16 15 15 14 13 13 12 12 12 11 10 9 8 8 5 6 7 7 7 8 9 10 11 11 11 13 15 14 12
20 23 21 19 20 21 21 21 21 20 20 21 20 19 18 18 17 16 15 14 13 13 13 13 13 12 10 9 8 7 5 6 6 7 9 10 10 11 11 12 14 14 14
21 24 22 23 25 24 27 28 26 23 22 23 22 21 20 20 19 17 16 15 14 14 14 13 13 13 13 11 9 8 7 6 4 5 6 8 9 10 10 12 13 14 14
24 28 28 27 30 29 30 28 28 27 26 25 23 22 21 20 19 19 18 17 17 16 15 14 13 13 15 14 13 10 8 7 7 4 5 6 7 9 10 10 12 13 15
24 25 26 28 29 30 32 31 30 29 28 26 24 24 23 21 20 20 19 18 18 18 17 15 14 13 13 14 11 10 9 8 8 7 5 6 7 9 10 10 12 12 13

GFSGL_con_lsi_039.txt.gz
Lid_Strength_Index
2 2 2 3 3 4 5 5 7 7 6 7 6 7 8 6 6 6 6 6 6 6 6 6 6 6 6 5 3 3 4 5 6 5 3 3 4 4 4 4 4 4 4
3 4 4 4 5 6 6 6 6 6 6 6 6 7 7 7 6 6 7 7 7 7 7 7 7 6 6 4 4 4 4 4 5 6 4 5 5 4 4 5 5 5 4
5 5 5 6 5 5 5 5 6 6 6 7 7 8 7 6 6 7 7 6 7 7 7 7 6 6 4 4 4 4 4 4 4 5 6 5 5 5 5 5 5 4 5
6 6 6 6 6 5 6 7 7 7 7 7 7 7 7 7 7 7 7 7 7 7 6 6 5 4 4 4 4 4 4 5 5 6 6 6 6 5 6 7 6 5 5
7 7 7 7 7 7 7 8 8 8 8 8 7 7 7 7 7 7 7 7 7 7 6 5 4 4 5 4 5 4 4 5 6 6 7 7 6 6 7 6 7 6 5
6 7 7 8 8 8 8 9 9 9 7 7 8 8 8 7 9 9 9 8 7 7 6 5 4 5 5 6 6 6 5 5 6 7 7 7 7 6 6 6 7 7 8
6 6 7 8 9 10 9 8 8 8 8 8 8 8 8 8 9 9 9 7 6 5 5 5 5 6 6 5 5 5 6 7 6 5 7 6 6 7 6 7 6 7 7
7 8 8 8 8 8 8 7 8 8 8 8 7 8 8 8 10 10 10 6 6 5 5 4 4 4 4 5 5 5 5 5 5 6 5 5 5 6 5 6 6 6 6
8 8 7 8 7 7 8 8 7 7 7 8 8 9 8 8 10 10 8 6 6 5 5 5 5 4 4 5 5 6 5 5 6 6 6 5 6 6 5 5 6 7 8
8 7 7 6 6 7 7 8 8 9 9 8 8 8 9 9 9 9 8 6 7 6 5 5 6 4 5 5 5 5 6 5 5 6 5 5 5 5 5 5 5 7 8
7 7 7 8 8 8 8 8 8 8 8 9 9 9 8 8 7 8 7 6 6 6 6 5 3 5 5 5 5 5 5 4 5 5 5 5 5 5 4 4 5 6 7
9 10 10 9 10 10 10 9 9 9 9 9 10 9 8 7 8 7 7 7 6 6 5 4 3 5 5 5 5 5 5 6 5 5 5 6 5 5 4 4 4 5 5
11 11 11 11 11 10 10 10 10 10 10 10 10 9 8 7 6 7 7 7 6 5 3 3 4 5 5 5 5 4 5 5 5 5 5 5 5 4 4 5 5 4 5
11 11 11 11 11 11 10 10 10 11 11 11 10 10 9 8 7 6 6 4 5 5 5 4 4 5 5 5 5 4 4 4 4 4 5 4 4 5 5 5 5 6 6
12 13 13 13 13 12 12 12 12 11 11 11 11 10 10 10 9 7 7 6 4 4 5 5 5 5 5 6 5 4 4 4 5 4 4 5 5 5 5 5 5 6 7
14 14 15 14 14 13 14 13 12 13 12 11 10 10 9 9 10 9 8 7 5 5 5 5 5 5 5 5 6 5 4 5 5 4 5 5 5 5 5 5 6 6 7
16 16 15 15 15 15 15 15 15 13 12 11 11 11 11 11 10 9 9 8 6 6 6 5 5 4 4 5 5 5 5 4 4 4 5 5 5 5 6 6 6 7 7
16 17 16 15 15 15 16 16 15 15 15 14 12 12 12 12 11 10 10 9 7 5 4 5 4 4 4 5 5 5 5 4 4 4 5 4 4 5 5 6 6 7 7
16 17 17 16 16 17 17 16 16 16 15 15 13 13 13 13 12 11 11 10 11 11 10 8 4 3 3 4 4 4 4 4 4 5 5 5 5 5 6 5 6 8 8
17 18 18 17 17 18 18 17 17 16 15 15 15 15 15 14 14 13 12 11 11 11 11 10 9 8 3 3 4 3 4 4 4 5 5 5 5 5 5 6 6 6 7
18 18 20 18 19 19 18 18 17 17 16 16 16 16 18 16 15 15 14 13 13 12 12 12 11 10 9 7 7 4 4 4 4 5 5 5 5 6 5 5 5 7 7
19 20 19 19 19 19 19 18 18 18 17 17 17 17 18 16 16 16 15 14 14 13 12 12 12 11 11 9 9 7 6 5 4 5 5 5 6 6 5 6 6 6 7
21 21 20 19 20 20 19 19 19 19 18 18 18 18 17 17 17 16 16 15 15 14 13 13 13 12 11 11 10 9 8 7 6 4 5 5 6 5 6 6 6 7 7
20 20 20 20 20 20 20 20 20 20 20 19 19 19 18 18 18 17 16 16 15 15 14 14 14 13 12 12 11 10 9 7 6 6 3 4 5 6 5 6 6 7 7
20 20 20 20 20 20 21 20 21 21 20 20 20 20 19 18 18 17 17 16 16 16 16 16 14 14 13 13 11 11 9 9 8 7 5 4 4 5 5 6 6 7 8
19 19 20 20 20 20 21 21 21 21 22 21 21 20 20 19 18 18 18 17 17 17 17 16 15 15 14 13 11 10 10 10 9 8 6 4 4 4 5 6 7 7 8

GFSGL_con_lsi_042.txt.gz
Lid_Strength_Index
1 1 1 0 0 1 1 1 2 3 4 6 6 5 6 6 6 6 5 6 5 6 5 6 6 5 5 6 6 5 5 4 6 4 3 3 3 3 2 2 2 3 3
1 1 1 1 1 1 2 2 3 4 6 5 4 6 6 5 6 6 6 6 5 5 5 5 6 6 5 5 5 5 4 3 5 6 4 3 2 2 2 3 3 4 3
1 1 1 1 2 3 4 4 5 6 5 5 5 6 7 6 6 6 6 6 6 5 5 5 6 5 6 5 4 4 4 4 4 4 5 3 3 3 3 3 4 3 3
2 2 3 3 2 2 3 3 4 5 5 7 7 6 6 7 7 6 6 7 7 5 5 5 5 5 5 4 4 3 4 4 4 4 4 4 4 3 4 5 5 4 4
3 3 3 3 3 4 4 4 4 4 5 7 7 7 6 6 7 6 6 7 7 6 5 5 5 4 4 4 4 3 3 4 4 4 4 4 5 5 5 4 6 4 4
4 4 4 4 5 6 6 6 8 8 7 8 6 7 7 6 9 9 9 8 6 6 6 5 4 4 4 5 6 5 4 3 3 4 4 5 5 4 4 5 5 5 6
3 3 4 5 6 6 7 8 8 7 7 7 7 6 6 6 9 9 9 7 6 6 6 5 5 4 4 3 5 6 6 5 5 3 4 4 4 4 4 5 5 5 5
4 4 5 5 6 6 6 6 7 7 7 6 6 6 5 6 9 9 9 7 6 6 5 5 4 3 3 3 3 3 2 2 3 4 4 3 3 3 4 4 4 4 4
5 5 5 5 5 6 6 6 5 5 5 6 7 8 8 7 8 9 9 7 7 6 6 5 4 4 4 4 3 2 2 2 3 4 4 4 5 6 5 4 5 5 6
5 5 5 5 5 6 6 7 8 8 8 7 7 6 7 6 8 9 9 7 7 7 5 5 6 5 5 5 3 3 3 3 2 3 4 4 4 4 5 4 4 5 5
5 6 6 7 8 8 7 7 7 7 7 7 7 7 7 7 7 9 9 8 7 6 6 5 4 5 5 4 4 3 3 2 3 3 3 3 3 3 3 3 3 4 5
7 8 8 8 9 9 9 8 8 8 8 8 8 8 7 6 8 8 9 9 8 7 6 4 3 4 4 4 4 4 4 4 3 3 4 4 3 3 2 2 2 2 2
9 9 9 9 9 9 9 9 9 9 9 9 10 9 9 9 9 10 9 9 8 6 5 5 5 5 4 4 5 5 5 3 3 4 4 4 3 2 1 2 3 3 3
9 10 10 10 10 10 10 10 11 11 11 11 11 11 11 10 10 11 11 9 9 7 7 5 5 5 5 4 4 3 4 3 3 3 3 3 2 2 3 3 4 3 4
10 11 12 12 12 12 12 12 12 11 13 13 12 12 12 12 13 13 12 11 10 9 8 6 6 5 5 4 3 3 3 3 3 3 3 3 3 3 4 3 4 4 5
13 13 13 12 12 12 13 12 14 14 14 14 14 13 12 13 14 13 12 11 10 9 7 6 6 5 4 3 3 4 4 4 3 3 3 3 3 3 4 4 4 4 5
14 14 13 13 13 14 13 14 14 12 14 14 14 14 14 14 14 12 11 11 9 8 9 8 6 4 3 3 3 3 3 3 3 3 3 3 3 3 4 4 4 5 5
15 16 14 13 14 14 14 14 13 14 14 13 13 14 14 14 13 12 11 10 9 9 9 9 8 7 6 4 3 3 3 2 3 3 3 3 3 3 4 4 4 5 5
15 15 15 14 15 16 15 14 14 15 15 14 13 13 13 14 13 11 11 10 11 11 10 10 9 8 7 7 5 2 2 3 3 3 3 3 3 3 4 4 4 5 5
16 18 17 15 15 16 15 15 15 15 15 14 14 13 13 14 12 12 11 11 11 11 11 11 10 9 9 8 7 5 4 3 3 3 3 3 3 3 3 4 4 5 5
16 17 19 16 16 17 16 16 16 16 15 14 14 13 17 15 13 12 12 12 12 12 12 11 11 10 9 9 8 8 7 5 3 3 3 3 3 3 3 3 4 4 5
17 17 17 17 16 17 17 16 16 16 15 14 14 13 15 13 13 13 13 13 12 12 12 11 11 11 10 10 9 10 8 7 5 5 3 3 4 3 3 4 4 4 5
18 17 17 17 17 19 16 16 16 16 15 15 14 14 14 14 14 14 14 13 13 13 12 12 12 12 10 10 10 10 10 8 7 6 6 4 3 3 3 4 4 5 5
18 17 18 17 18 17 17 17 16 16 16 15 15 15 15 15 14 15 14 14 13 13 13 12 13 12 11 11 10 10 9 8 7 7 7 6 4 3 3 4 4 5 5
18 17 17 17 17 17 16 16 16 16 16 16 15 15 15 15 15 15 14 14 14 14 13 13 13 12 12 13 12 11 10 9 9 9 7 5 5 3 3 4 4 4 5
17 17 17 16 16 16 16 17 17 17 17 16 16 16 16 16 16 15 15 14 14 15 15 13 13 13 13 13 12 11 12 11 9 9 8 6 6 3 3 3 3 4 5

GFSGL_con_lsi_045.txt.gz
Lid_Strength_Index
1 1 1 0 0 0 1 0 1 2 3 4 4 4 5 5 6 6 7 6 5 5 5 5 5 5 5 5 5 6 6 6 7 5 4 3 3 3 3 2 2 2 2
1 1 1 1 0 1 1 1 1 2 2 3 5 6 5 6 7 7 6 6 6 6 6 6 6 5 5 5 5 5 5 5 6 6 4 4 3 2 1 2 2 2 2
1 1 1 1 2 2 3 3 3 3 4 5 5 5 6 6 6 6 7 7 7 7 7 6 5 5 5 5 5 4 5 5 4 5 5 3 3 2 2 2 2 2 3
1 1 1 2 2 2 3 4 5 5 5 5 6 7 6 7 7 6 6 7 6 6 6 5 4 5 5 4 4 4 4 4 4 4 4 4 3 2 2 3 3 2 3
1 1 1 2 2 2 2 3 4 4 5 7 7 6 6 7 7 6 6 6 6 6 6 5 4 5 5 5 4 4 3 4 4 4 4 3 3 3 3 3 4 4 3
2 3 3 3 4 4 4 4 4 5 5 6 8 7 7 6 8 8 8 6 7 7 7 5 5 6 5 7 7 6 5 4 3 3 3 3 2 2 2 3 4 5 7
3 3 3 3 4 5 5 5 6 5 5 6 6 6 6 5 9 9 9 7 7 7 6 6 6 6 6 5 6 7 6 6 5 3 3 2 2 2 2 4 4 5 5
3 3 3 4 5 5 4 5 5 5 5 6 6 5 5 6 9 9 10 7 6 6 6 6 6 6 5 5 4 3 3 2 2 3 2 2 1 1 2 3 3 4 4
4 3 3 3 4 4 5 5 5 5 5 6 7 7 7 6 9 9 9 7 7 7 7 6 6 6 6 6 5 4 3 2 1 2 2 2 4 5 5 3 5 5 5
4 4 4 4 4 5 5 5 6 6 6 6 6 6 8 7 9 9 9 7 8 8 7 6 7 7 7 7 4 4 4 2 1 1 1 2 3 3 5 4 4 5 5
4 4 5 5 5 5 6 6 7 7 7 7 8 7 7 7 7 10 10 9 9 9 9 8 7 7 7 6 6 4 4 2 3 2 1 2 2 2 2 3 3 3 4
5 6 6 7 8 8 8 8 8 8 8 8 8 8 7 7 10 10 10 11 11 10 10 8 7 7 7 6 6 5 5 5 3 3 3 2 2 2 2 2 2 2 1
7 8 8 8 8 8 8 8 8 9 9 10 10 10 10 9 9 11 11 12 12 11 10 10 9 8 7 6 6 5 5 4 4 4 3 2 2 1 1 2 2 1 1
8 8 8 9 9 9 10 10 10 10 11 12 12 12 11 11 11 12 13 12 12 11 11 9 9 9 8 7 6 4 4 4 4 3 3 1 0 2 2 2 3 2 3
9 9 10 11 11 11 11 11 12 12 13 13 12 13 13 13 13 15 14 14 12 12 12 9 7 6 5 5 4 4 3 3 4 3 3 2 2 2 2 2 2 3 4
11 12 11 11 11 12 12 12 14 14 15 15 15 15 14 15 15 15 14 14 13 11 10 9 8 7 7 7 5 5 3 3 3 4 2 2 2 2 3 2 2 3 4
12 13 13 13 12 13 13 13 13 14 14 15 15 16 16 16 16 15 14 13 11 10 10 9 9 8 8 8 6 6 6 3 3 3 3 2 2 2 3 3 3 4 4
14 15 13 13 13 13 13 13 13 14 15 14 15 15 15 15 15 14 13 12 10 10 10 10 9 9 9 9 8 7 6 5 2 2 2 2 2 2 3 3 3 4 4
15 14 14 14 15 15 15 14 14 15 15 14 13 13 13 15 14 12 11 11 11 11 10 10 10 10 10 9 9 7 7 7 5 2 2 2 2 3 3 3 3 4 4
17 18 16 15 16 16 15 15 15 15 15 14 14 14 14 15 14 12 11 11 11 11 11 11 11 10 10 10 9 8 8 8 6 6 2 2 2 2 3 3 3 4 4
16 17 18 17 17 17 16 16 16 15 15 15 14 13 16 15 13 12 12 12 12 12 12 12 11 11 10 10 10 9 9 8 8 6 5 4 2 3 2 2 3 3 4
18 18 17 17 17 17 17 16 16 16 15 15 14 13 13 13 12 12 12 12 12 12 12 12 12 12 11 10 10 10 10 9 9 8 7 6 5 3 3 3 3 3 4
18 18 18 17 17 19 17 16 16 16 15 14 13 13 13 13 13 13 13 12 12 12 12 12 12 11 11 10 10 10 10 10 9 8 8 8 7 5 3 3 3 4 4
18 18 18 18 17 18 17 17 16 16 15 14 13 13 13 13 13 13 13 13 13 13 13 13 12 12 11 11 10 10 10 10 9 9 9 9 8 7 5 3 3 3 4
18 18 18 18 18 17 17 16 15 15 14 14 14 14 14 13 14 13 13 13 14 14 13 13 12 12 12 12 12 11 11 10 10 10 10 9 8 8 6 5 3 3 4
17 17 18 18 17 16 16 16 15 15 15 15 15 14 14 14 14 14 14 14 14 15 15 13 13 13 13 12 11 11 11 12 12 11 10 9 8 7 5 4 3 3 4

GFSGL_con_lsi_048.txt.gz
Lid_Strength_Index
1 1 1 1 1 1 1 1 1 1 3 5 5 6 6 6 6 6 7 7 7 7 6 6 6 6 6 7 7 7 8 8 10 9 8 8 8 7 7 6 5 6 5
1 1 1 1 1 1 1 2 2 4 4 4 4 5 6 6 6 7 8 7 7 6 6 6 6 6 7 6 7 8 8 8 9 10 9 9 8 7 7 7 4 4 5
2 2 2 2 2 2 3 3 3 3 4 5 5 6 6 7 7 8 7 7 6 6 6 6 6 6 6 6 6 7 7 6 7 9 10 9 8 8 7 6 5 5 3
2 2 3 3 3 4 4 5 5 6 7 7 6 6 7 8 7 7 7 7 7 7 6 6 6 6 6 6 6 7 7 7 7 8 9 9 9 7 6 7 7 6 5
2 3 4 4 2 3 4 4 5 6 6 8 8 8 7 8 7 7 7 7 8 8 7 6 6 6 6 6 6 8 8 8 8 9 10 9 8 7 7 6 6 6 6
3 3 3 3 3 3 4 4 5 6 7 7 7 8 8 7 8 8 8 7 7 7 8 7 7 6 6 7 7 7 7 8 8 8 7 7 7 6 6 5 6 8 8
3 4 4 5 6 6 6 6 6 7 7 7 7 7 7 7 9 9 10 8 8 8 8 8 7 7 8 7 8 8 8 8 7 6 7 6 6 5 5 5 6 6 7
5 5 5 5 6 5 6 6 6 6 6 7 7 6 6 8 9 9 9 8 8 8 8 8 9 9 8 8 9 9 9 7 6 5 6 5 4 3 4 4 4 5 7
5 5 5 5 5 5 5 6 5 5 6 6 7 7 8 7 10 9 9 9 9 10 8 9 8 9 8 8 9 9 9 8 5 4 3 3 2 3 4 5 7 6 8
5 5 4 4 4 5 5 6 6 6 6 7 7 7 9 9 10 10 10 11 12 12 11 10 10 10 9 9 10 10 10 8 6 6 5 4 4 4 4 4 5 5 6
4 4 4 4 5 5 6 6 6 7 8 9 10 9 9 11 11 11 11 13 14 14 14 13 13 11 10 10 10 11 10 8 7 6 5 5 4 3 3 4 3 4 6
5 5 5 5 6 7 8 8 9 9 10 11 11 12 11 12 12 12 13 13 13 15 15 14 13 11 11 11 10 9 8 7 6 6 6 5 5 3 3 3 3 4 4
6 7 8 8 8 8 9 9 10 10 12 13 14 13 13 13 13 14 14 14 14 15 14 13 13 11 11 10 8 8 8 8 7 7 7 6 4 3 2 2 2 2 3
8 9 9 9 10 10 11 11 11 13 14 14 14 15 15 14 16 16 16 16 15 15 15 14 14 12 11 9 8 7 6 6 6 6 5 4 4 5 3 2 3 3 4
8 9 11 11 12 12 14 14 15 15 15 15 16 16 17 17 17 17 17 17 17 15 16 15 13 13 12 11 10 9 7 8 8 5 5 4 5 6 3 2 3 4 5
11 12 13 13 13 13 14 15 14 15 15 16 16 17 16 16 17 17 16 15 15 14 15 15 15 14 13 12 11 10 9 9 8 8 4 4 5 4 4 3 3 4 5
14 13 14 14 14 14 15 14 17 16 15 15 16 16 17 17 17 17 16 15 14 13 16 15 15 14 13 12 11 11 11 9 9 8 6 5 5 5 5 4 4 4 4
15 14 14 15 15 15 15 15 15 16 16 16 16 16 17 16 16 16 15 14 15 14 13 13 14 13 12 12 12 12 11 11 10 9 8 5 7 6 7 5 4 4 5
15 15 15 16 17 16 16 16 16 16 16 16 15 16 17 17 16 15 14 16 16 14 13 13 14 13 13 13 13 12 12 11 10 9 9 7 4 4 6 6 5 5 4
18 17 16 16 17 16 16 16 16 17 17 17 17 17 17 18 20 18 17 16 16 14 14 14 14 13 13 13 13 13 12 12 11 10 9 8 8 6 5 7 5 4 4
18 19 18 17 18 18 17 17 17 18 18 17 17 18 19 19 19 17 16 16 15 15 15 14 14 14 14 14 13 14 13 12 12 11 10 9 9 9 7 6 5 4 4
18 18 18 18 18 18 19 18 18 18 17 18 18 17 18 18 16 15 15 15 16 16 14 14 15 14 14 14 14 14 13 13 12 12 11 10 10 9 9 8 6 3 4
18 18 19 18 19 20 19 18 18 18 18 18 18 17 17 16 15 15 16 17 16 15 15 15 15 14 14 15 13 13 13 13 13 12 12 12 11 11 10 10 8 6 4
19 19 19 19 19 20 19 19 19 18 18 18 18 16 15 15 16 17 17 17 17 17 17 15 15 16 15 14 13 13 13 13 12 11 12 14 13 11 10 10 9 8 4
19 19 19 19 19 19 18 18 18 19 18 17 17 16 16 16 16 17 18 17 17 17 15 17 16 14 14 15 14 14 12 11 13 13 13 13 13 13 11 10 9 7 5
19 19 19 19 19 19 19 19 19 18 17 17 17 18 17 17 17 18 17 18 16 17 17 16 16 16 15 14 13 12 13 13 13 12 12 12 12 12 10 9 9 7 5

GFSGL_con_lsi_051.txt.gz
Lid_Strength_Index
2 1 2 3 3 2 2 2 2 3 4 4 5 5 5 6 6 7 7 7 7 7 7 7 7 6 6 6 7 8 9 9 11 10 10 9 9 9 7 7 7 7 7
2 2 2 2 2 2 3 3 3 3 4 5 5 5 6 6 7 8 8 7 7 8 8 7 7 6 7 8 8 8 9 8 9 10 10 10 9 9 9 9 7 6 6
1 2 2 2 2 3 3 4 4 5 5 5 5 5 6 7 7 7 8 7 6 7 7 7 7 7 7 7 6 7 6 6 7 8 8 10 8 9 9 9 8 7 6
2 2 4 4 5 5 5 5 5 5 6 6 6 6 7 7 7 8 7 7 6 7 7 7 7 7 7 7 7 8 8 10 9 8 8 8 10 7 8 8 8 7 7
3 4 5 6 6 5 6 6 6 6 7 7 7 8 8 8 7 7 7 7 8 8 7 7 7 7 7 8 7 8 10 10 9 10 10 11 11 10 9 7 7 7 6
5 5 5 5 6 6 6 6 6 7 8 8 8 8 7 7 9 8 7 8 8 8 9 8 7 7 8 8 8 8 9 10 11 11 10 10 9 11 9 8 7 7 7
6 5 5 6 6 6 6 7 8 9 10 10 10 9 8 8 9 9 9 9 9 9 9 9 9 7 9 10 10 10 10 9 9 11 11 10 9 7 8 7 5 5 5
7 7 7 8 8 8 8 8 8 8 9 9 9 8 8 8 9 9 10 9 10 10 10 10 11 11 11 10 11 12 11 10 10 9 10 9 7 6 5 4 4 4 5
7 8 8 9 8 8 8 8 8 8 8 8 8 9 8 8 9 10 10 11 11 12 11 12 12 12 11 11 13 14 14 13 10 8 7 6 6 5 4 5 7 6 7
8 8 7 7 7 8 8 7 8 7 7 8 8 8 10 12 11 11 12 15 15 16 14 13 12 13 12 12 14 15 15 15 14 12 10 8 6 5 4 4 5 7 7
6 6 6 7 7 7 7 7 8 8 9 11 11 12 12 13 13 13 14 16 16 16 16 16 16 13 13 13 12 14 14 12 12 11 9 8 7 5 4 5 5 4 5
7 7 7 6 6 6 8 9 9 10 12 13 14 15 15 15 14 14 14 15 15 17 17 16 16 14 14 13 13 11 11 11 10 10 9 8 7 6 5 4 4 4 3
7 7 7 8 8 9 11 11 11 12 14 15 15 15 16 16 17 16 16 16 16 17 17 16 15 15 14 14 13 12 12 11 10 10 10 8 6 6 4 4 4 4 4
9 10 10 10 11 12 11 12 14 16 17 16 16 16 17 18 18 18 18 18 17 17 17 17 17 16 16 15 15 13 12 12 11 11 10 9 6 5 5 4 4 4 5
10 10 12 12 14 14 14 16 17 17 16 17 17 16 18 19 18 17 17 17 19 17 18 19 18 17 16 16 15 14 12 12 12 11 11 10 9 5 5 5 4 4 5
12 13 14 14 14 15 16 17 16 16 15 16 16 16 17 17 17 17 17 16 16 15 18 19 21 22 19 17 16 15 14 13 12 12 12 11 10 7 5 4 3 4 5
14 14 15 15 16 16 17 18 18 17 16 16 16 16 16 17 17 17 17 16 16 16 20 19 22 23 20 16 15 15 15 13 12 12 12 11 10 9 5 4 4 4 5
15 15 16 16 16 17 17 16 17 17 18 18 16 17 17 17 17 17 16 16 18 17 17 19 20 19 17 15 15 15 14 14 14 13 13 12 11 9 10 5 4 4 5
16 17 18 18 18 17 17 17 17 17 17 17 17 18 18 17 17 17 16 19 20 19 18 18 19 18 16 16 19 19 18 15 15 15 14 12 11 10 10 9 5 5 4
18 18 17 17 17 17 17 18 18 18 18 18 18 19 19 20 23 24 22 23 23 20 20 19 17 17 19 18 21 20 17 16 15 15 14 14 12 11 11 10 9 5 5
19 19 18 18 19 18 18 18 18 19 19 19 19 21 21 20 21 21 19 22 21 20 21 19 19 22 22 21 16 18 17 15 16 15 15 14 13 12 10 10 10 9 8
19 19 19 19 18 19 20 19 19 19 19 19 19 19 20 22 20 20 21 22 22 20 19 20 21 20 19 18 18 20 16 16 15 15 15 15 13 12 12 12 11 10 9
19 19 19 19 20 20 20 19 20 20 21 21 20 19 20 21 21 21 21 23 21 22 23 22 25 21 20 21 19 15 16 16 15 14 14 15 15 15 14 13 12 11 11
20 20 20 20 21 21 21 22 21 20 20 21 22 22 21 22 24 23 22 24 24 26 27 25 23 22 19 17 18 16 14 14 13 13 15 14 15 14 14 14 13 11 11
20 21 21 20 21 21 21 21 21 22 22 23 24 24 22 22 21 25 26 26 25 26 24 24 23 21 20 19 18 16 14 13 13 13 13 13 14 15 14 14 13 11 10
20 20 20 20 21 22 24 25 26 26 26 26 25 26 26 24 25 28 26 25 22 24 25 25 22 21 20 17 15 13 13 13 13 13 13 13 14 14 13 14 12 11 11

GFSGL_con_lsi_054.txt.gz
Lid_Strength_Index
2 2 2 2 1 2 1 2 2 2 3 3 4 4 6 6 7 6 7 7 7 7 7 7 7 6 7 7 7 7 8 9 10 10 10 10 10 10 8 8 7 7 7
1 1 2 1 1 1 2 2 2 2 3 3 4 5 6 6 7 7 8 7 7 8 7 6 6 5 7 7 7 9 9 9 10 10 11 11 10 9 9 10 8 7 7
2 2 2 2 2 2 2 2 3 3 4 4 5 6 6 6 7 7 8 8 8 7 7 6 6 7 7 8 8 9 8 7 8 9 9 9 10 10 9 9 9 9 7
2 2 2 2 2 2 2 2 3 3 5 5 5 6 6 7 7 8 8 8 7 6 6 7 7 7 8 9 9 10 9 11 11 11 10 10 11 10 11 10 10 11 9
3 3 3 3 2 3 3 4 5 5 6 6 7 8 7 8 8 8 8 7 7 7 7 7 7 7 8 8 9 10 11 12 11 12 12 12 13 13 13 12 12 9 9
3 3 3 3 5 5 5 6 7 7 6 8 8 8 8 8 11 9 7 7 7 7 8 8 8 8 9 10 10 11 12 14 14 15 14 14 13 13 12 11 11 12 10
4 4 5 5 6 6 6 7 8 8 8 9 9 9 8 7 9 9 9 8 8 9 9 9 9 10 12 12 12 12 12 11 11 14 14 14 13 12 11 11 12 10 8
5 6 5 6 6 7 8 8 9 9 10 10 9 9 9 9 9 9 10 10 10 11 11 12 13 14 13 13 15 16 16 15 15 14 14 12 11 10 10 10 10 8 6
8 8 7 8 8 8 9 10 10 10 10 10 9 9 9 9 9 10 10 11 13 13 13 13 14 15 13 13 15 16 16 15 13 12 11 11 10 10 8 9 9 9 9
9 9 9 9 9 10 10 10 10 9 9 8 9 9 10 9 10 10 12 15 16 17 15 15 14 15 14 14 16 16 16 16 15 14 12 12 11 11 8 8 8 8 7
9 9 10 10 10 10 9 8 9 8 9 11 12 12 13 13 13 13 14 16 17 16 17 16 16 15 15 14 13 15 15 15 14 14 14 13 12 11 9 8 7 6 6
9 9 10 9 7 8 8 9 9 10 12 13 15 16 15 15 14 15 15 16 16 16 17 16 16 15 14 14 14 14 14 15 16 16 16 15 14 12 10 7 6 5 4
9 8 8 8 8 9 9 11 11 12 13 14 15 16 17 17 18 16 16 16 17 17 17 17 16 15 15 15 15 15 16 16 17 17 16 16 13 11 10 7 5 4 3
8 9 9 10 12 12 12 12 13 14 14 14 15 17 18 19 19 18 18 18 17 17 17 17 17 16 16 16 16 16 16 16 17 17 16 14 12 11 10 7 5 4 5
11 12 14 14 14 15 16 16 15 15 14 15 16 17 19 19 18 17 18 17 18 17 18 19 19 18 18 18 17 17 17 17 17 16 15 14 13 12 11 9 6 5 6
13 14 15 15 15 16 17 17 14 15 15 15 16 17 17 17 17 17 17 17 16 16 18 19 21 22 20 19 19 19 19 18 17 15 15 15 14 13 13 10 9 5 5
15 15 15 16 16 16 17 17 18 17 16 16 16 16 17 17 17 17 17 17 16 17 19 20 22 22 21 19 19 19 19 18 16 16 16 16 15 14 13 11 10 8 5
16 16 17 17 17 17 17 18 18 18 18 18 17 17 17 17 18 17 17 17 18 18 18 19 20 20 20 20 19 19 18 18 18 16 18 17 16 15 14 12 11 11 7
17 17 17 18 17 17 17 17 17 17 17 17 17 17 17 18 18 18 17 19 19 19 19 19 19 20 20 20 22 22 24 22 21 23 20 17 18 16 14 12 12 11 10
17 17 17 18 18 18 18 18 18 18 18 18 18 19 19 20 21 21 21 21 21 20 20 20 20 20 22 21 23 23 23 25 20 21 19 22 19 16 15 13 13 12 11
18 18 18 18 18 19 19 19 19 19 19 19 20 20 20 20 21 20 20 21 21 20 22 21 22 23 24 24 20 23 23 22 19 20 18 18 17 16 15 14 13 12 10
18 18 19 19 19 20 20 19 20 20 19 20 20 20 19 20 20 20 20 22 22 21 20 22 22 21 21 21 22 26 21 24 23 20 18 17 15 15 16 15 14 13 11
19 19 19 20 20 21 21 20 21 20 20 20 20 20 20 21 21 21 22 23 21 23 24 24 27 24 23 26 25 21 20 19 18 17 16 16 15 15 15 16 15 14 12
20 21 20 21 21 21 21 21 21 21 21 21 22 22 22 23 24 23 24 25 25 29 29 30 27 25 23 25 26 23 18 17 16 14 15 15 15 15 15 15 15 14 13
21 21 21 21 21 22 22 22 22 23 23 23 25 25 24 24 25 29 30 29 28 30 28 27 27 24 23 23 22 21 19 15 15 15 14 14 14 15 15 15 15 14 13
21 21 22 22 23 23 23 24 25 26 27 27 28 29 28 28 28 32 31 28 28 28 27 27 25 24 23 21 19 17 16 17 16 15 15 15 15 15 15 15 15 14 13

GFSGL_con_lsi_057.txt.gz
Lid_Strength_Index
4 4 4 3 2 2 2 1 1 2 2 2 3 3 3 4 6 7 7 7 7 7 7 7 7 6 7 6 6 7 8 9 11 10 10 10 11 10 10 10 9 9 8
3 3 3 3 2 2 2 1 1 2 2 2 2 3 3 5 5 6 7 7 7 7 7 7 7 6 7 7 7 8 8 9 11 12 11 11 12 11 10 11 9 9 9
3 2 2 2 2 2 2 1 1 1 1 2 4 4 5 5 6 6 6 7 7 7 7 7 7 7 7 7 8 8 8 9 11 12 11 11 11 11 11 11 11 10 9
3 2 2 2 2 2 1 1 1 1 2 3 4 5 6 6 6 7 7 8 7 7 7 7 7 7 7 8 8 9 11 12 13 13 13 13 13 12 13 13 12 12 11
3 2 3 2 2 2 2 2 2 3 4 5 5 6 7 7 7 8 8 8 8 8 8 7 6 6 7 8 9 11 13 14 15 15 15 15 15 15 15 14 13 12 11
2 2 2 2 3 3 2 3 4 5 6 6 7 8 8 8 10 10 8 8 8 8 8 7 7 8 10 11 11 11 13 15 16 16 16 16 16 15 15 14 13 13 14
3 3 3 3 3 4 5 6 6 7 7 8 8 9 8 8 11 10 10 8 8 8 8 8 9 11 12 13 13 14 14 13 13 16 17 16 16 15 14 14 15 15 14
3 3 3 4 5 6 6 7 8 8 9 9 9 8 8 9 11 11 10 8 9 10 10 10 12 13 14 15 16 17 16 16 15 15 16 16 15 14 14 13 13 13 12
5 5 6 6 7 7 8 9 9 9 10 9 9 9 9 10 10 10 10 11 12 13 13 14 15 16 14 14 16 17 16 15 13 13 12 12 11 11 11 12 12 13 14
7 7 7 7 8 8 9 9 10 9 10 10 11 10 10 10 10 10 11 13 15 15 15 15 14 16 15 15 16 16 17 17 16 16 14 13 12 12 10 11 12 13 12
9 9 9 8 9 9 10 10 10 10 12 13 14 14 13 12 11 11 12 13 15 16 16 17 17 16 15 15 15 16 17 17 17 17 16 16 15 14 13 13 12 11 11
11 11 10 10 10 11 11 11 11 12 13 15 15 15 15 14 13 13 14 14 15 16 17 17 17 16 15 15 16 16 16 17 18 19 18 17 17 16 15 14 12 11 8
11 11 10 10 10 11 12 11 12 13 14 15 15 16 17 16 16 15 15 15 16 17 17 17 17 16 16 16 17 17 17 18 19 19 19 18 17 16 15 14 12 10 8
11 10 10 13 14 13 12 12 13 13 14 15 15 17 18 18 18 17 17 17 17 18 18 17 17 17 17 17 17 17 18 18 18 19 19 18 17 17 16 14 13 12 11
11 13 14 15 16 15 15 14 15 14 13 15 16 17 18 18 18 17 18 18 18 17 18 18 19 19 19 19 19 19 18 18 19 19 19 19 19 18 16 14 13 12 12
14 15 15 16 16 16 17 17 14 14 14 14 15 16 16 17 17 17 17 17 17 17 19 20 22 22 21 20 20 20 19 19 19 19 19 19 19 18 16 15 14 13 12
16 16 16 17 17 17 18 18 19 17 16 16 16 17 17 17 17 17 17 17 17 18 20 21 22 22 21 20 20 20 20 20 19 20 19 20 18 17 18 17 15 14 13
16 16 16 17 17 17 17 17 17 18 19 18 17 17 17 17 17 17 17 17 19 19 19 20 21 20 20 20 20 21 20 21 21 21 20 21 20 19 19 18 16 15 13
16 17 17 17 17 17 16 16 17 17 18 18 18 18 17 18 18 18 18 20 20 20 20 20 20 21 21 21 21 22 23 24 24 26 24 23 24 20 20 18 17 16 14
17 17 17 17 17 17 17 18 18 18 18 18 19 20 20 20 22 22 22 21 21 20 20 20 20 21 21 21 23 25 25 26 25 24 26 27 26 22 20 18 17 17 14
18 18 18 18 18 18 19 19 19 19 20 20 21 21 20 21 21 21 20 21 21 20 21 21 21 22 23 23 22 24 25 26 25 23 22 20 25 20 18 17 17 16 14
18 18 19 19 19 19 19 20 20 20 21 21 21 21 20 21 20 20 21 22 22 21 21 22 22 22 23 23 23 29 28 28 27 24 22 20 18 18 18 17 17 17 15
20 20 20 20 20 21 22 22 22 22 22 22 21 22 22 22 22 23 23 24 23 24 24 25 27 24 24 29 29 27 25 23 20 19 19 19 18 18 17 17 16 16 16
21 21 21 21 22 22 23 23 23 22 22 23 23 23 23 24 26 26 27 28 28 29 29 30 28 27 25 28 29 26 22 20 18 18 19 18 17 16 16 16 15 15 16
22 22 23 23 24 23 24 24 25 25 25 26 28 28 27 27 27 31 32 31 28 31 29 29 29 27 26 26 25 24 22 19 21 20 18 17 17 16 16 15 15 15 15
23 23 24 24 25 26 27 29 30 30 30 30 31 31 29 28 28 33 31 30 30 30 29 29 27 26 25 24 22 20 21 21 20 18 17 17 17 17 16 15 15 15 15

GFSGL_con_lsi_060.txt.gz
Lid_Strength_Index
4 4 4 4 5 3 3 3 3 3 2 1 2 2 2 3 3 4 5 6 6 6 7 7 7 8 7 7 6 6 7 8 9 8 9 10 10 10 9 9 9 9 8
4 5 4 4 4 4 4 3 3 2 1 1 1 1 2 3 5 5 5 6 6 7 7 7 8 7 7 7 7 8 8 8 9 11 10 10 11 10 10 10 9 9 9
4 5 5 5 4 4 4 3 3 2 1 2 2 2 3 4 4 5 5 6 6 7 7 7 8 7 8 8 8 9 8 8 9 10 11 11 11 11 11 11 11 10 9
4 4 5 5 4 4 3 3 2 2 2 1 1 1 2 4 4 5 6 7 7 6 7 7 7 7 7 8 8 9 9 10 11 12 13 13 13 12 13 13 13 12 12
4 4 4 4 3 3 3 2 2 2 2 2 2 3 4 6 6 7 7 7 8 8 8 8 7 8 7 8 8 10 11 12 13 14 15 15 15 15 15 14 14 14 13
3 3 3 3 3 3 3 3 3 2 2 2 4 4 7 7 10 10 9 8 8 8 9 8 8 9 9 11 10 11 11 14 14 16 16 16 16 16 15 15 15 15 16
3 3 3 3 3 3 3 3 3 3 4 5 6 7 7 8 12 11 11 8 9 8 9 9 10 11 11 11 12 13 13 14 14 16 17 17 16 15 16 16 15 15 15
3 3 3 3 3 3 3 4 5 6 6 7 7 7 8 10 12 11 12 9 10 10 10 10 11 12 12 13 14 15 15 15 15 15 16 16 15 15 14 14 14 14 13
4 4 4 3 3 5 6 8 8 8 7 9 9 9 10 11 12 12 11 12 13 13 13 12 13 13 13 13 15 15 16 15 14 15 14 14 13 13 13 14 15 15 16
5 5 4 5 6 7 8 8 9 9 10 11 11 10 12 12 13 12 12 13 14 15 14 14 13 14 14 14 15 16 17 17 17 17 16 16 15 15 14 14 14 15 15
7 7 8 7 8 8 10 10 10 11 13 14 15 15 14 13 13 12 11 13 14 15 15 16 15 14 14 14 15 16 17 17 18 18 18 17 16 16 15 15 14 14 15
9 10 10 10 11 11 11 12 12 14 15 16 17 17 17 15 13 13 13 13 14 15 16 17 16 14 14 15 16 16 17 18 18 19 19 19 18 18 17 16 14 13 13
11 12 11 11 11 11 12 13 14 14 16 16 16 16 17 16 15 15 15 15 15 16 16 16 15 14 15 16 17 17 18 19 19 20 20 20 19 18 17 16 14 14 13
12 13 12 13 13 13 13 13 14 15 15 15 16 17 17 17 17 16 17 16 16 17 17 16 17 17 17 17 18 18 19 19 20 20 20 19 19 19 18 16 17 16 16
13 13 14 14 15 15 16 15 15 14 14 15 16 17 18 18 18 17 17 18 17 17 18 18 19 19 19 19 20 20 20 20 20 20 21 20 20 20 19 18 18 17 17
14 15 15 16 16 16 16 17 15 15 15 16 16 17 17 17 17 16 16 16 16 17 18 20 21 21 21 21 21 21 21 20 20 21 21 21 21 21 20 19 18 18 17
15 16 16 16 16 17 17 18 19 17 16 16 16 16 16 16 16 16 16 16 17 18 20 21 22 22 22 21 21 21 21 21 21 21 21 21 21 21 20 20 20 18 17
16 16 17 17 17 17 18 18 17 18 19 18 16 16 16 16 16 16 16 17 19 19 20 22 22 22 21 21 21 22 21 22 22 22 22 22 22 22 21 21 19 19 18
16 17 16 16 17 17 16 17 17 18 18 18 18 18 17 16 17 17 17 19 20 20 20 21 21 21 21 21 22 22 23 23 23 24 23 23 23 23 21 21 20 20 19
18 18 17 17 17 18 17 17 17 18 18 18 19 19 19 20 21 22 22 21 21 21 21 21 21 21 22 22 22 23 24 23 23 23 22 24 24 24 22 21 20 19 18
19 19 18 19 18 18 18 19 19 19 20 21 21 20 20 21 21 21 22 22 22 21 21 21 22 22 22 23 22 23 24 24 24 23 23 23 25 23 20 19 19 18 18
18 19 19 19 19 20 20 20 20 21 21 21 22 22 21 22 22 23 24 23 23 22 22 23 24 24 24 24 24 27 25 26 26 24 24 23 21 20 19 19 19 18 18
20 21 21 21 21 22 22 22 22 23 23 23 23 23 24 24 24 24 25 27 26 28 28 28 29 26 25 27 27 26 26 24 23 21 21 21 19 19 20 19 18 18 17
21 21 21 22 23 23 24 24 23 24 24 25 26 26 28 30 32 32 34 35 33 33 33 33 30 27 26 27 28 27 24 23 21 19 20 21 20 20 19 18 17 16 16
23 24 24 25 26 27 27 28 28 29 29 31 31 32 29 28 30 36 36 34 32 34 30 30 30 28 27 27 26 25 25 21 20 21 20 20 20 19 18 17 16 15 15
25 25 26 27 27 28 30 31 32 33 35 35 36 34 32 30 31 36 34 32 31 30 30 29 28 27 27 25 24 23 22 23 22 21 20 19 19 18 17 16 16 15 15

GFSGL_con_lsi_063.txt.gz
Lid_Strength_Index
2 2 2 2 2 1 2 1 1 1 0 0 0 0 0 0 -0 0 1 2 2 2 3 4 3 4 5 5 5 4 4 6 6 6 6 6 6 7 6 5 5 5 6
2 2 2 2 2 2 2 2 1 1 1 1 1 1 1 1 1 2 2 3 4 4 5 5 5 6 6 5 6 7 5 6 7 8 7 7 7 5 5 6 7 7 7
3 3 2 2 2 2 2 2 1 1 1 0 0 0 1 1 1 2 2 3 4 4 5 5 5 6 6 7 8 8 7 7 5 7 7 6 8 6 7 7 8 8 9
3 4 3 3 3 3 2 2 2 1 1 1 0 0 0 0 1 2 3 4 5 4 5 5 6 6 7 8 7 9 7 10 9 8 10 9 8 7 8 10 11 11 11
3 3 3 2 3 3 3 3 2 1 2 2 1 1 0 1 1 2 3 3 4 6 7 7 7 7 8 8 8 9 10 10 11 11 12 11 10 10 11 12 13 12 11
2 2 2 2 2 2 2 2 2 2 2 1 1 1 2 3 8 8 5 5 7 8 9 8 8 9 10 10 10 10 9 12 12 12 12 12 12 12 12 12 13 13 13
2 2 2 2 2 2 2 2 2 2 2 2 2 2 2 3 9 9 9 7 8 8 9 10 10 11 12 12 13 13 12 12 12 11 13 13 13 12 12 13 13 13 13
2 2 2 2 2 2 2 2 1 1 2 3 3 4 4 6 10 11 12 9 9 10 10 10 12 13 13 14 14 15 14 13 13 13 12 12 12 12 12 13 13 13 12
3 2 2 2 2 2 2 2 4 5 7 8 7 8 9 11 12 12 11 12 13 14 13 13 13 14 13 13 14 15 14 14 13 14 14 14 14 15 14 13 14 14 14
3 2 2 2 2 3 6 7 8 8 10 11 11 10 12 12 13 13 12 14 15 16 15 15 15 14 14 14 14 14 15 15 15 15 15 15 15 15 16 15 14 15 15
3 3 4 4 5 6 8 9 10 11 13 14 15 14 13 12 13 13 13 14 15 16 16 16 15 14 14 14 14 14 15 15 17 17 16 16 16 16 16 16 16 15 15
6 7 8 8 9 9 10 11 13 13 15 16 16 16 16 14 14 14 14 14 15 16 16 16 15 14 14 15 15 16 17 17 17 17 18 18 18 18 17 17 16 15 14
9 10 11 10 10 11 12 13 14 14 15 15 16 17 17 17 16 15 15 15 15 16 15 15 14 14 15 16 17 17 17 17 18 18 18 18 18 18 17 17 15 14 14
10 11 11 12 13 13 13 13 13 14 15 16 16 17 18 18 18 18 17 17 17 16 16 15 15 16 16 17 17 17 17 18 18 18 19 18 18 18 19 17 17 16 16
12 13 14 14 15 15 15 14 14 14 13 14 15 16 18 19 18 17 17 17 17 16 16 16 17 18 17 18 18 18 18 18 19 19 19 20 20 19 19 18 18 17 17
14 14 14 14 15 15 16 17 15 15 15 15 16 16 17 17 16 16 16 16 16 17 17 18 19 18 18 18 18 18 19 20 20 21 21 20 20 20 20 18 18 17 17
15 15 15 15 15 16 16 17 18 17 15 16 16 16 16 16 16 15 15 16 17 17 18 19 19 19 18 19 19 20 21 20 21 21 21 20 20 20 20 19 18 18 17
16 16 16 17 17 17 17 18 18 18 19 18 16 16 16 16 16 16 16 16 17 17 17 18 18 19 19 19 20 21 20 20 20 21 21 21 20 20 20 19 18 18 17
17 17 17 17 16 17 17 17 17 18 18 17 17 17 16 16 16 17 17 17 18 18 18 19 19 19 19 20 20 21 21 21 22 22 21 21 20 20 20 18 17 18 17
19 19 18 18 18 18 17 17 17 17 17 18 18 18 17 17 18 18 18 18 18 19 19 19 19 20 20 21 21 21 21 21 21 21 20 19 19 18 19 18 17 17 16
19 19 19 19 18 18 18 18 18 17 18 19 19 19 20 19 19 19 20 20 20 20 21 21 21 21 21 21 21 21 21 21 20 20 19 19 19 19 17 17 16 16 15
17 18 18 19 19 19 19 19 19 19 20 21 21 21 21 20 21 21 21 22 22 22 21 22 22 22 22 22 22 21 21 21 20 20 19 19 19 18 17 17 16 15 15
19 19 20 20 20 21 21 21 21 21 21 21 21 21 22 22 22 23 23 23 23 23 23 23 23 23 21 22 21 21 22 21 20 20 20 19 18 18 17 17 16 16 15
20 20 21 22 22 22 22 22 23 23 23 23 22 23 23 24 24 24 24 24 23 23 23 23 23 23 23 22 21 21 20 20 20 19 19 19 19 18 17 16 16 15 14
22 23 23 23 24 24 24 24 24 24 24 24 24 24 24 24 24 23 23 23 24 23 23 23 23 22 22 23 23 22 22 22 20 20 19 19 18 18 17 16 15 14 13
24 24 24 24 24 24 24 24 25 25 25 24 24 24 23 23 23 23 23 23 23 23 23 22 22 23 23 22 21 21 22 23 22 21 19 18 17 16 15 15 14 13 13

GFSGL_con_lsi_066.txt.gz
Lid_Strength_Index
1 1 1 1 0 0 0 0 -0 -0 -0 -0 -0 -0 -0 -0 -0 -0 -0 -0 0 0 0 1 1 1 2 2 3 2 3 4 5 4 4 4 5 5 5 4 3 3 3
1 1 1 0 0 1 1 0 -0 0 -0 -0 -0 -0 -0 -0 -0 0 0 0 1 1 1 2 3 3 4 4 4 5 5 4 3 5 6 7 6 4 3 3 4 4 4
1 1 1 1 1 1 1 0 -0 0 0 -0 -0 0 0 0 0 -0 0 1 2 2 2 3 4 4 4 4 5 6 5 5 7 8 6 7 6 7 6 6 6 5 5
1 1 1 1 1 1 0 0 0 0 0 0 0 0 0 0 0 0 0 1 1 2 3 3 3 4 5 5 7 7 8 9 8 9 9 9 9 7 7 8 7 6 8
1 1 1 1 1 1 1 1 0 0 0 0 0 0 0 0 1 0 0 0 1 1 2 2 3 5 7 6 7 8 8 9 10 10 10 11 10 9 9 8 9 9 8
2 2 1 1 1 1 1 1 1 1 1 1 1 1 1 1 6 8 4 1 1 2 3 4 5 8 9 10 10 10 9 10 11 12 12 12 11 9 8 9 10 10 11
2 2 1 1 1 1 1 1 1 1 1 1 1 1 1 0 8 9 9 2 3 4 6 7 9 9 10 10 12 13 13 13 12 10 11 10 11 10 10 10 10 11 11
2 2 1 1 2 1 1 1 1 1 1 1 1 1 1 1 9 9 9 4 7 7 8 9 10 11 11 13 13 14 14 15 14 14 13 12 12 11 10 10 11 12 12
2 2 2 1 2 2 2 2 1 1 1 1 1 2 2 6 11 12 10 10 11 12 12 12 13 14 14 14 15 16 16 16 15 14 14 14 14 14 14 12 13 14 14
2 2 1 1 1 2 2 2 1 1 3 7 10 9 11 10 13 12 11 12 14 15 15 15 14 15 15 15 15 16 17 17 16 15 15 15 15 14 16 15 14 15 14
2 1 1 1 2 1 2 3 6 10 11 13 14 13 12 12 13 13 13 14 15 16 16 16 16 15 15 15 15 15 15 15 16 15 15 14 14 14 14 14 14 14 15
2 2 2 2 5 5 8 10 11 12 14 15 15 16 15 15 14 14 13 14 14 16 16 16 16 15 16 16 17 17 17 16 15 15 15 16 16 15 15 15 15 14 14
7 8 9 10 11 11 11 12 13 13 14 15 15 16 17 15 15 14 14 16 16 16 16 15 16 16 17 17 17 17 17 16 16 16 16 16 16 15 16 15 15 15 15
11 12 12 13 13 13 13 13 14 14 15 15 16 17 17 18 18 17 17 17 17 16 16 16 16 16 16 17 17 17 16 17 16 16 16 16 16 16 16 16 17 17 17
12 13 14 15 15 16 16 14 15 14 14 15 16 16 18 19 18 17 17 18 17 17 16 16 17 17 16 16 16 16 16 16 16 16 17 17 17 17 17 17 17 17 17
14 14 14 14 15 15 16 17 16 16 16 16 16 17 17 16 16 16 16 16 16 16 16 16 16 16 16 16 16 16 16 18 17 17 18 18 18 18 18 18 17 17 17
15 15 15 15 15 16 17 18 19 17 16 16 16 16 16 16 16 16 16 17 17 16 16 16 16 16 17 17 17 17 17 18 18 18 18 18 19 18 18 18 18 17 17
16 16 16 17 17 17 18 18 18 19 20 18 17 16 16 16 16 16 17 16 16 16 16 16 17 16 17 18 17 17 18 18 18 19 19 19 19 19 19 18 18 17 16
17 17 17 17 17 17 17 17 18 18 18 18 18 18 17 17 17 16 16 15 16 16 17 17 17 18 18 18 18 19 19 19 20 20 20 19 19 19 18 17 16 17 16
17 17 16 16 17 17 16 16 17 17 17 18 18 18 17 16 17 17 17 16 17 18 18 18 19 19 19 19 19 19 20 19 19 20 20 19 19 18 18 17 16 16 15
16 16 16 17 17 17 16 17 17 17 18 19 20 19 18 17 18 19 19 19 19 19 19 19 19 20 20 20 20 20 20 20 20 20 19 18 18 18 17 16 16 16 15
16 16 17 17 17 18 18 17 17 18 18 19 20 19 19 19 19 20 20 20 20 20 20 20 20 20 20 21 21 21 21 20 20 19 19 18 18 17 17 16 16 16 15
17 17 17 18 18 18 18 18 18 19 19 19 20 20 20 20 20 20 21 21 20 20 21 20 21 21 20 20 20 20 20 19 19 18 19 18 18 17 17 16 16 16 15
18 18 19 20 19 19 20 20 20 21 20 20 20 21 21 21 21 22 21 20 21 20 20 21 21 21 21 21 19 19 18 18 18 18 18 18 18 17 17 16 15 15 14
19 20 20 21 21 21 21 21 21 21 21 21 21 21 20 20 20 20 20 21 22 21 21 21 20 20 20 21 21 20 20 20 20 19 19 18 18 17 16 15 14 13 13
20 21 21 21 21 21 21 21 22 21 21 21 21 21 21 21 21 21 21 21 22 21 20 19 19 20 20 19 19 19 21 22 21 21 19 18 17 15 14 13 13 12 12

GFSGL_con_lsi_069.txt.gz
Lid_Strength_Index
1 1 1 1 1 0 1 0 0 0 0 0 0 0 0 0 0 0 0 0 1 1 0 1 1 0 1 1 1 1 2 3 5 4 5 3 4 4 6 4 3 3 3
1 1 1 1 1 1 1 0 0 0 -0 0 0 0 0 0 0 0 1 0 1 1 1 1 1 1 1 1 2 3 3 3 4 5 5 5 5 5 7 5 5 4 3
1 1 1 1 1 1 1 1 0 0 0 0 0 0 0 0 0 0 0 1 1 1 1 1 1 1 2 3 3 3 4 4 4 5 6 8 6 7 7 5 6 5 5
1 1 1 1 1 1 1 1 1 0 1 0 0 0 0 0 0 0 0 1 1 1 1 1 1 1 3 3 4 4 4 6 6 7 8 9 9 9 9 9 9 7 6
1 1 2 1 1 1 1 1 1 1 1 0 1 0 0 0 1 1 0 1 1 1 1 1 1 2 5 4 3 4 6 7 8 9 11 12 11 11 11 10 11 9 7
2 2 1 1 1 1 1 1 1 1 1 1 1 1 1 1 5 7 3 1 1 1 2 1 2 6 6 9 9 8 7 8 9 9 10 10 12 11 12 12 12 12 11
2 2 1 1 1 1 1 1 1 1 1 1 1 1 1 1 7 8 8 1 1 1 2 1 3 4 7 6 11 12 14 13 12 10 11 13 13 12 12 12 12 11 11
2 2 2 2 2 1 1 1 1 1 1 2 1 1 1 1 8 9 10 2 1 1 1 2 4 8 9 11 13 15 15 16 15 14 14 15 15 14 13 12 12 11 11
2 2 2 1 2 2 2 2 1 1 1 2 1 1 1 1 9 11 10 4 8 12 12 11 12 13 13 13 15 16 16 16 15 15 15 15 15 16 15 13 14 15 14
2 2 1 1 1 2 2 2 1 1 2 2 4 7 11 6 11 11 10 12 14 15 15 15 15 14 15 14 14 15 17 17 17 17 17 17 16 17 17 16 15 15 15
2 1 1 1 1 1 1 1 1 2 8 11 13 13 13 13 13 12 12 14 15 16 16 16 16 15 15 15 15 15 17 16 17 16 16 16 15 15 15 15 14 15 15
2 3 5 5 5 4 4 7 8 10 13 14 14 15 16 15 15 15 14 14 15 16 17 16 16 16 16 16 16 17 17 16 16 17 16 16 16 16 15 14 14 15 14
8 8 9 10 11 11 11 12 13 12 13 14 16 17 18 17 16 15 15 16 16 16 16 16 16 16 17 17 17 16 16 16 16 16 17 16 15 15 15 15 14 14 14
13 13 13 14 14 14 13 13 14 15 16 16 17 18 18 18 17 16 16 16 16 16 16 16 17 17 18 18 17 16 17 17 17 17 17 16 16 15 16 15 16 16 16
14 15 15 16 16 17 18 17 17 16 15 16 17 17 18 19 18 17 17 16 17 17 17 16 17 17 17 17 17 17 17 17 17 17 17 17 17 17 17 16 16 17 18
14 15 15 16 17 17 18 18 16 16 16 16 16 17 17 16 16 16 16 16 16 16 15 16 16 16 16 16 16 17 17 18 17 18 18 17 17 17 18 17 17 18 18
16 16 16 17 17 17 17 18 19 17 16 16 16 16 16 16 16 17 17 16 16 15 16 16 16 16 17 17 17 17 18 18 18 17 18 18 18 19 19 19 18 18 18
16 17 17 17 17 17 18 18 18 19 19 19 17 17 17 17 16 16 16 15 17 16 16 17 18 17 18 18 18 18 18 18 18 19 19 19 19 19 19 19 19 19 19
15 16 16 16 16 17 17 18 18 18 19 18 18 18 17 16 16 16 16 17 18 18 18 18 18 18 18 18 18 19 19 19 19 19 19 19 19 20 20 19 19 19 19
15 15 15 15 15 16 16 17 17 18 19 18 18 17 17 18 18 19 18 18 18 19 18 19 19 19 19 19 19 19 19 19 19 19 19 19 19 19 20 19 19 19 18
15 15 16 15 15 15 16 16 17 18 19 19 19 18 17 17 18 19 20 19 19 20 20 19 19 19 19 19 20 20 20 20 20 20 20 20 20 20 19 18 18 17 17
15 15 16 16 16 16 16 16 17 18 18 19 18 18 18 18 19 20 20 20 20 20 20 20 20 20 20 20 20 20 21 21 20 20 20 20 19 19 18 17 17 17 17
16 16 16 17 17 17 17 17 18 18 18 19 19 19 20 20 20 20 21 21 20 20 21 20 20 21 20 21 20 20 21 20 20 19 20 19 19 18 17 18 17 17 16
16 17 17 18 18 18 18 19 19 19 19 19 19 20 20 20 20 21 21 21 21 20 20 20 20 21 22 21 20 20 19 19 19 19 19 19 19 18 17 17 16 16 15
18 18 18 19 19 19 19 19 19 19 19 19 20 20 19 19 19 20 20 20 21 21 21 20 20 20 20 21 21 20 19 21 21 21 20 19 18 18 17 16 15 14 13
18 19 18 19 19 19 19 19 19 19 20 20 20 20 20 20 20 20 20 20 21 21 20 19 19 19 20 19 18 20 21 22 21 21 20 19 18 17 15 14 13 13 13

GFSGL_con_lsi_072.txt.gz
Lid_Strength_Index
2 1 1 1 1 1 1 1 1 1 1 1 1 1 1 1 1 1 1 1 1 1 1 1 1 1 1 1 1 1 2 2 4 3 3 3 5 4 6 6 6 6 8
2 2 2 1 1 1 1 1 1 1 1 1 1 1 1 1 1 1 1 1 1 2 1 1 1 1 2 1 1 2 2 1 3 4 3 5 5 4 7 7 5 5 6
1 2 2 2 2 2 1 1 1 1 1 1 1 1 1 1 1 1 1 1 1 1 1 1 2 2 2 2 2 2 2 2 2 3 4 6 6 7 8 7 7 7 6
2 2 2 2 2 1 1 1 1 1 1 1 1 1 1 1 1 1 1 1 1 1 1 1 1 1 2 2 2 2 2 3 3 4 4 9 8 9 7 8 9 8 8
2 2 2 2 1 1 1 1 1 1 1 1 1 1 1 1 1 1 1 1 1 1 1 1 1 2 4 3 2 3 3 4 4 5 6 11 10 12 10 9 10 10 9
2 2 2 2 2 2 2 2 1 1 1 1 1 1 1 1 5 7 4 1 1 2 2 2 1 6 6 8 8 7 4 4 5 6 7 9 9 11 12 12 13 13 15
2 2 2 2 2 2 2 2 2 2 1 2 2 1 2 1 7 8 9 2 2 2 2 2 2 3 6 4 9 11 13 14 12 7 9 13 14 12 12 14 14 15 15
2 2 2 2 2 2 2 2 2 2 2 2 2 2 2 1 8 9 10 4 2 2 2 2 4 4 6 8 12 15 15 15 14 14 14 14 14 14 13 14 15 15 15
3 2 2 2 2 2 2 2 2 2 2 2 2 2 2 2 9 10 10 5 4 10 11 11 10 11 11 12 14 15 16 17 15 15 15 15 14 14 14 14 16 16 16
3 2 3 2 2 2 2 2 2 2 2 2 3 9 12 8 12 11 10 10 13 15 15 14 14 14 14 14 14 16 17 18 18 18 18 17 16 16 16 15 16 16 16
5 5 6 7 6 4 2 2 2 3 9 12 14 15 14 14 14 13 12 13 15 16 16 16 16 15 14 14 15 16 17 17 17 17 17 17 16 16 16 16 16 16 16
9 10 11 11 11 10 8 9 10 11 13 15 16 16 16 16 15 14 14 15 15 16 17 17 16 15 16 16 16 16 16 16 16 17 17 17 17 17 16 16 16 16 16
12 13 14 14 15 15 14 13 14 14 15 16 17 18 18 17 16 16 16 16 16 17 17 16 16 17 17 17 16 16 16 16 16 17 17 17 17 17 17 16 16 16 16
13 14 14 16 17 17 16 16 16 16 16 17 18 18 19 18 18 17 17 18 17 18 18 19 18 18 18 17 18 18 17 18 17 18 18 18 17 17 17 16 17 17 18
12 13 15 16 16 17 17 17 17 16 16 18 18 18 18 18 17 16 17 18 18 18 17 18 18 18 18 18 18 18 18 18 19 18 19 19 18 18 18 17 18 19 21
13 14 14 16 17 17 17 18 16 16 16 16 16 17 17 16 16 16 16 15 15 15 16 17 17 18 18 18 18 18 18 19 19 18 19 19 19 20 20 19 19 19 20
14 14 15 15 16 17 18 18 19 18 17 17 16 16 16 16 15 15 15 16 16 17 18 19 19 19 18 18 19 19 20 19 19 20 20 21 21 20 20 20 20 20 20
14 14 15 16 16 16 17 18 18 19 20 20 17 17 16 16 16 16 17 17 19 18 19 19 19 19 19 19 19 20 20 20 21 21 22 22 22 22 22 22 21 22 22
14 15 15 15 15 16 16 17 18 18 18 19 18 18 18 17 17 17 17 19 19 20 19 20 20 20 20 20 20 20 21 22 22 23 22 23 25 23 24 23 23 23 23
15 15 15 15 16 17 17 18 18 19 19 19 19 19 18 19 20 20 20 20 21 20 20 20 20 20 21 21 21 22 22 23 23 23 25 26 26 25 24 25 24 23 21
15 16 16 16 16 16 17 18 18 19 19 20 19 18 19 20 21 21 21 21 21 21 21 21 21 21 22 22 22 23 23 24 24 24 23 23 27 26 23 23 22 21 20
16 16 17 17 17 17 17 17 18 18 19 19 20 20 19 20 20 21 21 22 22 22 22 22 22 22 23 23 23 25 25 26 25 25 26 26 25 24 22 21 22 22 20
17 17 18 18 18 19 19 19 19 19 19 20 20 20 21 22 22 22 22 22 21 22 22 23 23 23 24 24 23 23 24 23 23 25 27 26 23 22 22 23 21 21 21
18 18 18 19 19 19 20 20 20 21 20 20 21 21 21 22 22 22 23 24 24 23 23 25 22 24 25 26 26 25 22 24 24 24 25 24 23 22 22 21 20 21 19
18 19 19 19 20 20 20 20 21 20 21 21 21 21 21 21 21 22 23 22 23 25 24 24 24 24 23 25 24 23 24 26 28 27 26 23 24 25 23 20 19 16 16
19 19 19 19 20 20 20 20 21 21 21 21 21 21 21 21 22 22 23 25 26 25 23 24 22 23 23 22 22 24 26 26 26 25 26 23 24 23 20 18 17 17 16

GFSGL_con_lsi_075.txt.gz
Lid_Strength_Index
2 2 2 1 1 1 2 2 2 2 2 2 1 1 1 1 1 1 2 2 2 2 2 2 2 2 2 2 1 1 2 2 4 3 2 2 3 3 2 3 3 4 5
2 2 2 1 1 1 2 2 2 1 1 1 2 1 1 1 1 2 2 1 2 2 2 2 2 1 2 1 1 2 2 2 3 4 2 3 4 4 2 5 5 5 6
2 3 3 2 2 2 1 1 2 2 1 1 1 2 2 1 1 2 2 2 1 1 1 2 2 2 2 1 2 2 2 2 2 3 3 2 3 6 6 6 6 5 6
2 2 3 3 2 2 1 1 1 1 1 1 1 2 2 2 1 1 1 2 2 2 2 2 2 2 2 2 2 2 2 2 2 3 3 3 5 7 6 5 8 7 7
3 2 2 2 2 2 2 1 1 1 1 1 1 1 1 1 1 1 1 1 1 2 1 1 1 2 4 3 2 2 2 2 2 3 4 4 7 11 9 7 7 7 10
3 3 3 2 2 2 2 2 1 1 1 1 1 2 2 1 5 7 4 1 1 2 2 2 1 5 5 7 7 7 3 2 3 3 3 4 4 6 8 11 13 13 13
3 3 3 3 3 2 2 2 2 2 2 2 2 2 2 2 7 8 8 2 2 2 2 2 2 2 6 3 9 12 13 13 12 6 5 5 9 12 12 14 15 13 15
5 4 3 3 3 3 3 2 2 2 2 2 2 2 2 2 8 9 10 5 3 2 2 2 3 3 4 6 11 14 15 15 14 13 13 14 13 13 13 13 14 14 14
6 7 8 7 6 3 3 3 2 2 2 2 2 2 3 2 9 9 9 4 4 4 10 11 8 7 9 10 13 15 16 16 14 14 14 14 14 13 13 13 14 15 16
8 8 9 10 9 9 7 6 3 3 3 2 3 8 12 7 13 12 11 6 9 14 15 14 14 13 13 13 14 15 17 18 17 17 17 17 16 15 14 15 15 16 16
10 10 10 11 11 12 10 10 10 7 7 10 12 14 15 14 14 13 12 11 12 15 16 16 15 14 14 14 15 16 17 17 17 17 17 17 16 16 16 16 16 16 17
11 12 13 13 13 13 13 13 13 13 13 14 16 17 17 16 16 15 15 15 15 16 17 16 16 15 16 16 16 16 17 17 17 18 18 18 18 18 17 17 16 16 16
12 13 14 14 15 14 15 15 15 15 15 17 17 18 17 17 17 17 17 17 16 17 17 16 16 16 17 17 17 17 17 17 17 18 18 19 18 17 17 17 16 16 16
12 13 14 15 15 15 15 15 16 16 17 17 18 19 18 18 18 18 19 18 19 19 18 18 18 18 18 19 19 18 18 18 18 19 19 18 18 18 19 18 18 18 18
13 13 14 15 15 15 15 15 16 16 15 17 18 17 18 19 18 17 17 19 18 18 18 18 19 19 19 20 19 19 19 19 19 19 19 20 19 20 20 19 19 19 20
14 14 15 15 15 15 15 15 13 14 14 14 15 15 16 15 14 15 15 15 16 17 18 20 20 20 20 20 20 21 20 20 20 20 20 20 21 21 20 20 19 20 21
14 14 14 15 15 16 16 17 18 16 15 15 14 14 15 15 15 16 17 17 17 17 20 20 21 21 21 21 21 21 22 21 20 20 21 21 21 21 22 22 22 22 23
14 14 15 15 15 16 17 17 18 18 19 19 17 16 15 16 16 16 17 18 20 20 20 21 22 21 21 21 21 21 21 21 21 21 22 22 23 22 23 23 23 24 23
14 15 15 16 16 17 17 18 18 18 19 19 19 19 19 18 18 18 18 20 21 21 21 21 21 21 21 21 22 22 23 23 23 24 24 24 25 24 24 24 24 25 24
15 15 15 16 17 18 18 19 19 19 20 20 21 21 20 20 22 22 22 22 22 22 22 22 22 22 23 23 23 23 24 24 24 24 26 27 28 26 27 26 26 26 23
16 16 16 16 16 17 18 19 19 20 21 21 21 20 20 21 22 22 23 23 23 23 23 23 24 24 24 24 24 25 26 26 26 26 27 28 34 29 26 26 26 24 23
16 17 17 18 18 18 18 18 19 20 21 21 22 22 22 23 23 23 23 24 24 24 24 24 25 25 25 25 26 28 27 28 28 29 29 28 28 27 26 27 28 28 23
17 18 18 18 18 19 20 20 20 21 22 23 23 23 24 26 26 26 26 25 24 27 26 25 27 26 26 27 27 27 26 28 30 32 32 32 28 26 28 28 25 25 26
19 20 19 19 20 20 21 21 21 22 22 22 23 23 24 24 26 29 30 31 28 30 31 26 27 26 27 30 32 27 27 31 30 30 32 32 28 25 27 25 24 25 23
21 21 21 21 21 22 22 23 23 24 24 25 24 24 23 24 24 27 30 30 28 29 25 25 26 28 29 29 27 27 28 27 30 29 30 30 31 31 28 24 23 20 23
20 21 22 22 22 23 24 25 25 24 26 27 27 25 27 27 27 26 30 29 28 27 28 29 27 27 26 24 24 25 28 27 28 27 30 28 29 27 27 26 24 23 20

GFSGL_con_lsi_078.txt.gz
Lid_Strength_Index
2 2 2 1 2 2 2 3 4 3 2 2 1 1 1 1 1 1 1 1 2 2 2 3 3 2 2 2 2 2 2 3 4 3 3 2 4 3 3 3 3 3 3
2 2 2 1 1 1 2 2 2 3 3 2 2 1 1 1 1 1 1 2 2 2 2 2 3 2 3 3 2 3 3 3 3 4 3 3 4 2 2 3 3 2 3
2 2 2 2 2 2 1 1 2 2 3 3 2 2 2 2 1 1 2 2 2 2 2 2 2 2 2 2 2 2 2 2 2 3 3 2 2 4 4 4 3 3 4
3 2 2 2 2 2 1 1 1 1 2 2 2 2 2 2 2 2 2 2 2 2 3 2 2 2 2 3 3 2 2 2 2 3 3 3 2 2 4 3 4 5 4
3 4 4 3 2 2 2 1 1 1 1 1 1 1 2 2 2 2 2 2 2 2 2 2 2 2 4 3 2 2 2 3 3 3 3 3 3 8 6 4 5 3 9
4 3 3 3 3 3 3 3 2 1 1 1 2 2 2 2 6 7 4 2 2 3 3 2 2 5 5 7 7 6 3 3 3 3 3 4 3 3 4 4 4 11 11
4 3 3 3 3 3 3 3 3 3 2 2 2 2 2 2 7 8 9 3 3 3 3 3 3 2 5 2 6 8 9 11 10 3 3 3 3 2 4 12 13 13 14
7 8 8 8 6 5 3 3 3 3 3 3 3 3 2 2 8 8 9 4 3 2 2 2 3 3 3 4 4 8 11 14 13 12 11 11 13 12 11 11 13 15 15
9 9 10 9 9 8 7 7 4 2 3 3 2 3 3 3 10 10 9 4 3 3 3 2 3 3 5 8 6 12 16 16 14 14 14 15 15 14 13 13 15 15 17
11 11 11 10 10 11 9 10 10 8 5 3 9 13 15 13 15 14 13 6 5 5 12 14 14 13 12 12 7 13 16 17 17 17 17 17 16 16 16 16 15 17 17
12 13 14 14 13 13 11 11 11 10 12 14 15 16 16 16 16 15 15 14 11 15 16 17 16 15 15 15 15 16 17 17 17 17 17 17 17 17 17 17 17 17 18
13 14 15 15 14 15 14 13 12 12 13 15 16 17 18 18 16 16 16 16 16 17 17 17 17 16 16 16 17 16 16 17 17 18 19 19 19 19 18 18 17 17 17
14 15 15 15 15 15 15 15 14 14 15 16 16 17 18 18 18 18 17 17 17 18 17 17 16 17 17 18 17 17 17 18 19 20 20 20 19 18 17 17 17 17 17
15 15 15 15 15 15 15 15 15 15 15 15 16 17 18 18 18 17 17 18 17 17 18 18 18 18 18 19 19 19 20 20 19 20 21 19 19 20 19 19 20 19 19
14 14 14 14 15 15 15 14 14 14 13 14 15 15 16 17 16 15 16 17 17 16 17 18 18 19 20 20 21 20 20 20 21 21 21 21 21 21 21 20 20 20 21
14 14 14 14 15 15 15 16 14 13 13 13 13 13 14 13 13 13 14 14 15 16 18 19 20 20 21 21 21 22 22 21 21 22 22 21 21 22 21 21 21 21 22
15 15 15 15 15 16 16 16 17 16 15 15 14 14 14 14 14 15 15 16 16 17 20 20 21 21 21 21 21 22 22 21 21 22 22 22 22 22 22 23 23 23 23
16 16 17 17 17 17 17 17 17 18 20 20 17 16 15 15 15 16 16 18 20 20 20 21 21 21 21 22 21 22 22 22 22 23 23 24 24 24 24 24 25 27 25
16 17 18 18 18 19 19 19 19 19 20 20 19 19 19 17 17 18 18 20 21 22 22 22 22 22 23 23 23 23 24 24 25 25 25 26 29 26 27 25 26 27 26
18 18 18 18 19 19 19 19 19 19 20 20 20 20 20 21 22 23 23 23 23 22 23 23 23 24 24 24 25 25 25 26 26 26 28 30 31 28 29 27 28 27 25
18 18 18 17 17 17 18 19 19 20 21 21 21 21 21 22 23 24 24 24 24 24 25 25 26 27 27 27 26 28 28 29 29 30 30 29 34 29 27 27 27 25 24
18 18 18 18 19 18 19 19 20 21 21 22 22 22 22 23 23 24 24 26 26 25 25 26 26 26 27 28 29 31 31 34 33 32 32 31 29 29 29 29 30 30 26
20 21 20 19 20 21 21 21 22 22 23 23 23 23 24 25 25 25 26 28 27 28 28 28 28 29 30 33 31 30 31 32 32 35 36 36 31 31 32 31 28 28 27
21 22 21 22 22 23 23 23 23 23 23 24 23 24 25 26 28 29 30 32 31 30 31 33 31 30 29 35 35 31 29 34 33 33 36 35 31 29 31 28 27 28 27
22 23 23 24 25 27 27 26 25 27 27 28 25 26 26 25 29 33 34 31 30 31 28 29 29 29 30 31 30 28 30 30 32 31 32 32 33 33 30 28 28 26 28
22 23 23 23 25 26 28 29 30 31 33 33 32 33 33 29 29 33 32 31 30 30 29 29 26 27 27 27 26 27 29 29 31 30 34 31 32 32 32 31 29 28 24

GFSGL_con_lsi_081.txt.gz
Lid_Strength_Index
2 2 2 1 2 2 3 4 4 4 3 3 2 2 2 2 2 2 1 2 2 2 3 3 3 2 3 3 2 3 3 3 4 3 3 3 4 3 3 3 3 3 3
2 2 2 1 1 2 2 4 4 4 3 3 2 1 1 2 1 1 2 1 2 2 2 2 2 2 2 2 3 3 3 3 4 4 3 3 4 3 3 3 3 2 2
2 2 2 2 2 2 1 2 2 4 4 3 3 2 2 2 2 2 1 1 2 2 1 2 2 2 3 2 3 3 3 3 3 3 3 2 2 4 4 4 3 2 2
3 3 3 3 2 2 1 1 1 2 3 3 3 3 3 2 1 2 2 2 2 2 2 2 2 2 2 2 2 2 2 2 2 3 3 3 3 2 3 2 3 3 3
4 4 4 4 2 2 2 2 1 1 1 2 3 3 3 3 3 2 2 2 3 3 3 3 2 2 4 4 2 3 3 3 3 3 3 3 3 3 5 3 3 3 2
3 4 3 3 3 3 3 3 3 3 2 2 1 1 2 2 6 8 6 3 3 3 3 3 3 6 6 8 8 7 4 3 3 3 3 4 3 3 2 3 3 3 5
7 7 6 4 3 4 4 4 3 3 3 3 3 3 3 2 7 7 8 3 3 3 3 3 3 3 6 4 7 9 9 9 7 3 3 3 3 2 2 3 4 4 5
9 10 10 8 8 7 5 3 3 3 3 3 3 3 3 3 11 10 10 5 3 3 3 3 3 3 3 3 4 4 5 5 8 8 7 6 8 10 8 9 11 15 15
12 12 12 11 11 10 9 9 8 7 5 3 2 3 5 10 14 14 13 6 4 4 3 3 7 5 7 9 6 6 11 16 14 14 14 14 14 14 13 13 15 14 16
14 14 13 13 13 13 12 12 11 9 10 11 14 15 15 15 15 14 13 11 7 7 13 15 15 15 15 14 12 8 14 17 17 17 17 17 16 16 16 16 15 16 18
15 15 15 15 14 14 14 13 12 12 13 15 16 17 17 16 16 15 14 14 15 15 16 17 16 15 15 15 15 16 16 17 18 18 18 18 18 18 17 17 17 18 20
15 16 16 16 15 15 15 14 14 14 14 15 16 16 16 17 16 16 15 15 15 16 17 17 16 16 17 16 16 16 16 18 18 19 19 20 19 19 19 18 18 18 18
15 16 16 16 15 15 15 15 15 14 15 15 16 16 16 16 16 16 15 16 16 17 17 17 17 17 17 18 17 18 18 18 19 20 21 20 20 19 19 19 19 18 19
16 16 16 16 16 16 15 15 15 15 15 15 15 15 15 15 16 15 15 15 16 17 18 18 18 18 18 18 19 19 19 19 20 21 21 20 19 20 21 20 21 20 21
16 16 17 17 17 17 17 15 15 14 13 14 14 14 15 15 14 13 14 15 16 16 16 17 18 19 19 19 19 20 20 20 20 21 21 21 21 21 22 21 21 21 23
17 17 17 17 17 16 17 17 14 14 14 13 13 14 14 14 13 14 14 14 15 16 18 19 19 19 20 21 21 21 20 21 21 21 21 21 22 22 22 22 22 23 23
17 17 17 17 17 17 17 18 19 17 15 15 15 15 14 14 14 15 15 15 16 17 20 20 20 20 20 20 21 21 22 22 21 23 23 23 22 23 23 24 23 23 23
18 18 18 19 19 20 20 20 20 21 22 21 18 17 16 16 16 16 17 18 20 20 21 21 22 21 21 21 21 22 23 23 23 23 24 24 24 23 24 24 24 25 24
18 19 20 20 21 21 21 21 21 22 22 22 22 21 20 17 17 18 18 21 21 22 22 22 22 22 22 22 23 24 24 25 26 26 27 26 28 26 27 25 25 25 25
20 19 21 20 21 21 21 21 22 22 22 22 22 22 21 22 23 23 23 23 23 23 23 23 24 24 24 24 25 26 26 27 28 28 32 33 32 29 30 29 29 28 25
21 20 20 19 20 20 20 21 22 22 23 23 24 23 23 24 25 25 25 25 25 25 25 25 25 25 25 25 26 27 28 29 29 30 30 29 35 30 28 29 29 27 25
20 20 20 20 20 21 21 22 23 24 24 24 25 25 25 25 25 26 26 27 27 25 25 25 26 26 26 27 27 31 33 36 34 34 34 33 31 31 31 30 32 31 27
21 22 22 22 22 24 23 23 24 25 26 26 26 26 26 29 29 28 29 31 28 29 28 28 30 29 29 31 31 31 30 33 33 37 37 37 32 33 34 32 30 30 29
23 25 23 25 26 26 27 28 26 26 26 27 28 27 28 31 34 32 31 30 29 30 31 34 32 31 30 35 35 32 30 34 34 34 37 35 32 30 32 29 28 29 29
25 25 26 27 28 30 29 29 30 30 29 29 30 30 27 28 29 34 34 33 30 31 29 31 30 30 31 32 31 29 31 30 33 32 33 33 34 33 31 29 31 28 29
25 25 26 27 29 30 31 32 34 34 34 34 35 35 33 32 32 36 34 33 32 32 31 31 29 29 29 26 25 26 29 29 31 31 36 31 33 33 33 32 30 29 26

GFSGL_con_lsi_084.txt.gz
Lid_Strength_Index
2 2 2 2 2 3 3 4 4 4 3 2 2 2 2 2 2 2 3 2 2 2 2 2 2 2 2 2 2 2 3 3 5 4 3 2 3 3 2 2 2 3 3
3 2 2 2 2 2 3 3 4 4 4 3 2 2 2 2 2 2 2 2 2 2 2 2 2 2 3 2 3 3 3 3 3 5 3 3 4 2 3 2 3 3 2
2 2 2 2 2 2 3 3 4 4 4 3 3 2 2 2 2 2 2 2 2 2 2 2 2 2 2 2 2 2 3 3 3 4 4 2 2 2 3 3 3 2 3
3 3 3 3 2 2 1 2 3 3 4 4 3 3 3 3 2 2 2 2 2 2 1 1 1 1 2 2 2 2 2 2 2 3 3 3 2 2 2 3 3 3 3
4 4 4 4 3 3 3 2 2 2 3 3 3 3 3 3 2 2 2 2 2 2 2 2 2 2 5 3 2 2 2 2 2 3 3 3 3 3 3 2 3 2 2
4 4 3 4 4 4 4 4 3 3 3 3 3 3 3 3 7 8 5 2 2 2 2 3 3 6 6 8 8 7 3 2 3 4 4 4 4 3 2 2 3 3 4
8 8 8 6 4 4 4 4 3 3 3 3 3 3 3 3 9 9 9 3 3 2 2 2 3 3 6 4 7 10 9 9 8 3 4 4 4 3 3 3 3 3 4
12 11 10 10 9 8 8 8 6 4 3 3 3 3 3 12 14 14 13 7 4 3 3 3 3 3 3 4 4 4 5 7 11 10 9 11 14 14 12 9 10 14 14
14 13 13 12 12 11 12 11 10 8 9 12 12 12 12 14 14 14 13 10 7 5 5 13 13 12 13 12 10 8 11 16 15 15 15 15 15 15 15 13 14 13 15
15 15 14 13 14 14 13 12 11 12 14 14 16 15 16 15 14 14 14 11 11 14 15 15 15 14 15 14 12 12 15 17 17 17 17 17 17 17 16 17 16 17 17
16 15 15 14 14 14 14 14 14 14 15 16 17 17 17 16 16 15 15 15 15 16 16 16 16 16 16 15 15 15 16 16 17 18 18 18 19 19 19 18 19 18 20
16 16 16 16 15 15 15 15 15 15 16 16 16 17 16 16 15 15 15 15 15 17 18 18 17 16 16 16 17 17 17 17 18 20 20 20 20 20 19 19 18 18 18
16 17 17 16 16 16 16 16 16 15 16 16 16 17 17 16 16 15 14 15 15 17 17 17 16 16 17 17 17 17 18 18 18 19 20 20 19 18 18 18 18 17 18
17 17 17 17 17 17 16 16 16 16 16 16 17 17 16 16 16 16 16 16 16 16 17 17 17 17 18 18 18 18 18 18 18 19 19 18 18 19 19 18 19 19 20
17 17 17 18 18 18 18 17 17 16 16 17 16 16 16 16 14 14 15 17 17 17 18 18 19 19 19 19 19 19 19 19 19 19 19 20 20 20 20 20 20 20 21
18 18 18 18 19 19 20 19 16 15 14 14 14 14 15 14 14 14 14 15 15 16 19 20 21 20 21 20 20 21 20 20 20 20 20 20 21 21 21 21 21 21 22
18 18 18 19 19 19 20 20 21 19 16 15 15 15 14 15 15 15 16 16 17 18 21 22 22 21 21 20 20 20 21 21 21 21 21 21 21 21 22 22 22 22 23
21 21 21 21 21 22 22 22 22 23 23 22 19 18 17 16 17 17 17 19 22 21 22 22 22 21 21 21 22 22 22 22 23 23 23 24 23 23 23 23 23 24 23
19 20 21 22 22 22 22 22 23 24 24 24 24 23 22 19 19 19 20 23 24 23 23 23 23 23 23 23 24 24 25 25 26 26 26 25 25 24 24 24 24 24 24
21 20 21 21 22 23 23 23 24 24 25 25 25 25 24 24 26 26 26 26 25 25 25 24 25 25 25 25 27 27 26 27 26 26 27 28 28 25 26 26 25 25 24
22 22 22 22 22 22 23 23 24 24 25 25 26 26 26 26 27 27 27 27 27 27 28 26 27 28 27 28 27 28 30 29 29 28 28 27 30 27 26 26 25 24 23
22 22 21 22 22 23 23 23 25 25 25 26 27 27 28 28 28 28 29 32 32 28 27 28 28 28 28 28 29 31 31 32 31 31 30 30 29 28 27 26 27 26 24
23 24 23 23 23 25 26 25 27 28 28 29 28 28 29 33 32 30 31 33 30 31 30 29 30 28 29 30 29 28 28 29 30 32 31 31 29 29 29 27 26 26 25
25 26 24 26 27 28 30 31 30 28 28 31 34 33 33 36 37 35 34 33 32 33 34 33 29 28 27 31 30 28 27 29 29 29 31 30 28 27 27 26 25 26 25
27 28 29 30 31 33 33 33 35 36 35 36 35 34 31 31 31 37 37 35 33 35 31 31 30 28 28 29 29 28 29 29 31 31 30 30 30 30 28 26 27 25 25
26 27 29 30 32 34 36 37 38 38 37 37 38 37 36 33 33 37 35 32 32 31 29 29 28 29 28 26 24 24 29 29 30 31 31 28 29 28 28 28 27 25 24

GFSGL_con_lsi_087.txt.gz
Lid_Strength_Index
3 1 1 2 2 1 2 1 2 2 2 2 2 2 2 3 3 4 4 3 2 2 2 2 2 2 2 2 2 2 2 2 4 3 2 2 3 2 2 1 2 1 1
2 1 2 1 1 2 2 2 1 1 1 1 1 2 2 2 2 2 3 3 2 2 1 2 2 2 2 2 2 2 2 2 3 3 1 1 1 0 -0 0 1 1 0
2 1 2 2 1 2 2 2 2 2 1 1 0 1 1 2 2 2 2 2 2 2 2 2 2 1 2 1 1 1 1 1 1 2 2 1 1 -0 0 -0 -0 -1 -0
2 2 2 2 1 1 1 2 2 2 1 1 0 0 0 0 0 1 1 1 1 1 1 1 1 1 1 1 1 1 2 2 2 2 2 2 1 0 1 1 2 0 0
2 2 2 1 1 1 1 1 0 1 2 1 1 1 0 0 0 1 1 1 1 1 1 1 0 1 4 2 1 1 1 2 2 2 3 3 3 2 3 1 2 1 1
2 3 2 1 1 1 1 1 1 1 1 1 1 1 1 2 7 7 4 2 1 1 1 1 0 4 5 8 8 7 3 2 3 3 3 3 3 3 2 2 3 3 4
9 9 8 5 5 5 3 2 2 1 1 2 2 2 2 5 12 11 10 2 1 2 2 2 2 2 5 2 6 9 9 10 9 5 4 3 4 5 5 4 3 3 4
12 12 11 10 10 9 9 8 7 7 9 8 9 7 11 13 14 14 14 7 5 3 6 10 9 8 11 11 9 6 8 15 14 13 14 14 15 14 13 11 12 14 14
15 14 13 12 12 12 12 11 10 11 13 14 14 14 14 15 14 14 12 8 8 12 14 14 14 14 14 13 11 11 15 16 15 15 15 16 16 16 15 13 14 14 15
16 15 14 14 13 13 13 13 13 14 15 15 16 16 15 16 15 14 13 10 13 15 16 15 15 15 15 14 13 12 15 16 16 17 17 17 17 18 17 17 16 16 16
15 15 15 14 15 14 14 14 14 14 15 16 17 17 16 16 16 15 15 14 15 17 17 17 17 16 16 16 16 16 16 17 18 18 18 18 18 18 18 17 17 17 18
16 16 16 16 15 15 15 14 14 15 16 16 16 17 16 16 16 15 15 15 15 16 16 16 16 16 16 16 16 16 15 16 16 17 17 17 17 16 15 15 16 16 16
17 17 17 17 16 16 16 15 15 15 15 16 16 16 16 15 15 16 16 16 16 16 16 16 16 16 16 15 15 15 15 14 14 15 16 16 16 15 14 14 14 15 16
18 18 17 17 17 16 16 16 16 16 16 16 16 16 16 15 15 15 16 16 16 16 16 16 16 16 16 16 15 15 15 15 15 15 16 16 15 15 16 15 16 15 17
18 18 18 18 17 17 17 17 17 16 16 17 17 17 17 17 16 16 15 15 15 16 15 14 15 15 15 16 16 16 16 16 16 16 16 16 17 17 17 16 16 16 17
18 18 18 18 18 18 18 19 17 17 17 16 16 16 16 16 15 15 15 16 16 16 15 16 17 17 17 17 17 18 18 18 18 17 17 17 17 17 17 16 16 17 18
19 18 18 18 18 19 19 19 20 20 18 17 16 15 15 15 15 16 16 17 17 16 17 18 18 18 18 18 18 18 19 18 18 18 18 18 18 18 18 18 18 18 18
19 20 19 19 19 19 19 19 19 19 19 19 19 18 17 17 17 17 18 17 18 18 19 19 19 19 19 19 19 19 19 19 19 19 19 19 19 19 19 19 19 20 19
17 18 18 18 19 19 18 19 19 20 20 20 19 20 21 20 20 20 19 20 20 20 20 20 20 20 20 20 20 21 21 21 21 21 21 21 20 19 20 20 20 22 21
18 19 19 18 18 19 19 20 20 21 21 21 22 22 20 20 21 22 21 21 21 21 21 21 21 21 21 21 21 21 21 22 22 22 22 22 21 20 21 21 20 20 20
18 18 20 18 19 19 19 20 20 21 22 22 23 24 24 22 22 22 22 22 22 22 22 22 22 22 22 22 22 22 23 23 23 23 22 22 22 21 20 20 20 20 20
18 18 18 19 19 20 20 20 21 21 22 22 22 23 24 22 22 23 23 23 23 22 22 22 22 22 22 22 22 22 23 23 23 23 23 23 22 21 21 20 20 20 19
18 19 19 19 20 21 20 21 21 21 22 22 22 23 23 23 23 23 24 23 23 23 22 22 22 22 22 22 22 22 22 23 23 23 23 23 21 21 20 20 19 19 19
19 19 20 21 21 21 21 21 21 23 22 22 22 23 23 23 24 24 24 23 23 22 22 22 22 22 22 22 21 20 20 21 21 21 23 22 21 21 20 19 19 19 19
20 20 21 21 21 22 22 22 22 22 22 22 22 22 22 22 23 23 23 23 24 23 23 22 22 22 22 22 22 22 23 23 22 24 21 22 22 23 22 21 21 19 20
20 21 21 21 21 21 21 22 22 22 22 22 22 22 22 22 22 23 23 23 23 22 23 21 21 22 22 20 21 23 23 23 22 24 23 21 22 21 21 21 22 20 19

GFSGL_con_lsi_090.txt.gz
Lid_Strength_Index
2 1 1 1 1 1 1 1 2 2 3 4 4 4 4 5 4 5 5 4 3 3 2 2 2 1 2 1 0 0 2 1 4 2 0 -0 -0 -0 -0 0 1 0 -0
1 1 1 1 1 1 1 1 1 1 1 2 3 3 3 4 4 4 5 5 3 3 2 2 2 1 1 1 2 2 2 2 3 4 2 2 2 1 -0 -0 -1 -1 -1
2 2 2 1 1 1 1 1 0 1 1 2 2 2 2 2 3 4 4 4 4 2 2 1 1 1 1 1 2 2 1 1 1 2 2 1 0 -0 0 -0 -0 -1 -1
2 2 2 2 1 1 1 1 0 0 1 1 0 1 1 2 2 2 3 2 3 2 1 1 1 1 1 1 1 1 1 2 2 2 2 2 1 0 0 1 1 0 1
2 2 2 1 1 1 1 1 1 1 1 0 1 1 1 1 1 1 1 1 2 1 0 0 0 1 4 2 1 1 1 2 2 2 3 2 2 2 2 1 2 1 1
2 2 2 1 1 1 1 1 1 1 1 1 1 1 1 1 12 11 4 1 1 1 1 1 0 4 4 8 8 7 4 2 2 3 3 3 3 3 2 2 3 3 4
7 7 7 6 5 5 2 1 1 1 1 1 1 1 7 9 13 12 12 2 1 1 1 1 2 2 5 2 7 9 9 13 12 7 6 5 8 12 11 10 10 11 12
11 12 11 10 9 8 7 7 8 9 9 9 10 11 12 13 13 13 13 6 3 11 12 11 10 10 12 12 9 11 14 14 14 14 15 16 16 15 14 12 12 13 15
15 14 13 12 12 12 12 12 12 13 14 14 14 14 14 14 14 14 11 9 13 14 15 15 14 14 15 14 11 14 16 16 15 15 16 16 16 16 15 12 15 14 13
16 15 14 14 14 14 14 15 15 15 16 16 17 16 16 16 16 15 12 13 16 17 17 16 16 16 15 14 11 14 16 16 17 17 17 17 16 16 16 16 14 15 15
16 15 15 14 14 14 14 14 15 15 16 16 17 16 16 16 15 15 15 15 17 17 18 18 17 16 16 16 16 16 17 17 17 16 16 15 15 15 14 14 13 12 12
16 16 15 15 14 14 14 14 14 15 16 16 16 16 16 16 16 16 16 15 15 15 16 16 15 15 15 15 15 15 15 14 14 14 14 14 14 14 13 13 14 14 13
17 17 16 15 15 15 14 14 15 15 15 15 15 15 15 15 15 17 16 16 16 15 15 16 16 16 16 16 16 15 13 12 12 14 14 14 14 13 12 12 12 13 14
18 17 17 17 17 16 16 16 16 16 15 16 16 16 16 15 15 15 14 14 15 15 16 15 16 16 16 15 14 13 13 13 14 14 14 13 13 13 14 13 14 13 14
17 18 18 17 18 18 18 17 17 18 17 17 17 16 16 17 17 16 16 15 15 15 14 14 15 15 15 15 15 15 14 14 14 14 14 14 14 14 15 14 14 14 14
18 18 18 18 18 18 19 20 19 18 18 18 17 17 17 17 17 17 18 17 17 16 15 16 16 16 15 15 15 15 15 16 16 15 15 15 16 16 15 15 14 14 15
18 18 18 17 18 18 17 17 19 20 20 19 18 18 18 18 18 18 18 17 16 15 15 16 16 16 16 16 16 16 17 17 17 16 16 16 15 15 16 16 16 15 16
18 17 17 17 17 17 17 17 17 18 19 19 20 20 19 19 18 18 17 15 15 16 16 16 16 16 17 17 17 17 17 17 17 17 17 17 16 16 16 17 17 18 17
16 16 16 17 17 16 16 16 16 16 17 17 17 18 18 18 18 18 17 16 17 17 17 18 17 17 17 17 18 18 18 18 18 18 18 18 17 17 18 18 17 19 19
16 17 16 15 15 16 16 16 16 17 17 18 19 19 17 17 18 18 18 18 18 18 18 18 18 18 18 18 18 18 18 18 18 18 18 18 18 17 17 18 17 17 17
15 15 16 15 16 16 16 17 17 18 18 19 21 21 21 18 19 19 19 19 19 19 19 18 18 18 18 18 18 19 19 19 20 19 19 19 19 18 18 17 17 16 16
15 15 16 16 16 17 17 17 17 18 18 19 19 20 20 18 19 19 19 19 19 19 19 19 19 19 19 19 19 19 19 20 20 20 19 19 18 17 17 17 16 16 15
16 16 16 17 17 18 17 17 17 17 18 18 18 19 19 19 20 19 20 20 19 19 20 19 19 19 19 19 19 19 19 20 20 20 20 19 18 17 17 16 16 16 15
16 16 17 17 17 17 17 17 18 19 18 18 18 19 19 19 19 20 20 20 20 19 20 20 20 21 20 19 18 17 18 19 19 19 20 19 18 17 17 16 16 16 16
17 17 17 17 17 17 17 18 18 18 18 18 18 19 19 19 19 19 20 20 21 20 20 20 19 20 20 21 20 20 21 21 20 22 18 18 18 19 18 18 17 17 17
17 17 17 17 17 17 17 18 18 18 19 18 18 18 18 18 18 19 19 20 20 19 20 18 19 20 20 18 18 19 21 21 20 21 20 19 18 18 18 18 18 17 17

GFSGL_con_lsi_093.txt.gz
Lid_Strength_Index
1 1 1 1 1 1 1 1 2 2 3 4 3 3 3 3 2 2 1 2 2 2 3 3 2 2 1 1 1 1 1 1 3 2 1 -0 1 -0 -0 -0 -0 -1 -1
1 2 2 1 1 1 1 1 2 2 3 3 4 4 4 4 4 4 5 4 4 4 3 3 3 2 2 1 1 1 1 1 2 3 2 2 2 1 0 -0 -0 -1 -1
2 2 2 1 2 2 1 1 1 2 2 3 4 4 4 5 5 4 5 5 4 4 4 2 2 1 1 1 1 1 1 2 2 2 3 1 1 0 1 0 0 -0 -1
2 2 2 1 2 1 1 1 1 1 2 1 2 2 3 3 3 4 4 4 4 4 3 2 1 1 1 1 1 1 2 2 2 2 2 2 2 1 1 1 2 0 1
2 2 2 1 1 1 1 1 1 1 1 1 1 1 1 1 2 3 3 3 4 4 3 1 1 1 4 3 1 1 1 2 2 3 3 3 2 2 2 1 2 1 1
2 2 2 1 1 1 1 1 1 1 1 1 1 1 1 8 13 12 5 2 2 2 2 2 1 5 5 7 7 7 6 2 3 3 3 4 3 2 3 5 5 5 6
8 7 6 4 5 4 2 3 3 2 1 3 5 8 10 11 13 12 12 3 2 4 5 6 3 7 9 6 8 12 14 14 13 9 7 9 11 14 13 11 9 10 10
11 10 9 8 8 8 8 9 10 11 10 10 11 11 11 13 13 13 12 5 10 12 12 12 11 12 13 12 9 13 15 15 15 15 15 16 16 16 15 13 13 14 14
14 13 12 12 11 11 12 12 12 13 14 14 14 14 14 14 13 12 10 11 13 15 15 15 15 15 14 13 11 15 16 17 16 15 15 16 16 16 15 11 14 14 14
15 15 14 14 14 14 15 15 14 14 15 16 16 16 15 16 14 14 13 14 16 17 16 16 16 15 15 13 14 15 17 17 17 16 16 16 15 15 15 14 13 13 13
15 15 15 15 15 15 16 16 16 17 17 18 18 18 18 17 16 15 15 16 17 18 18 18 17 17 16 15 16 16 17 16 17 16 15 14 14 14 14 14 14 14 14
16 16 16 16 14 14 14 16 16 16 16 17 17 17 17 17 16 16 15 15 15 17 17 17 16 16 16 15 15 15 15 14 14 14 14 15 15 15 14 14 14 13 13
18 18 17 16 16 17 16 16 16 15 15 16 16 16 16 15 16 17 16 16 16 16 16 16 16 16 15 16 15 15 14 14 14 15 15 16 15 14 12 12 12 12 13
17 18 19 19 19 18 18 18 18 17 17 16 16 16 17 17 16 15 15 15 16 15 15 15 15 16 15 15 15 15 15 15 15 16 15 14 13 14 14 13 13 13 13
17 18 18 19 20 20 20 19 19 19 18 18 18 18 18 19 18 17 16 16 15 15 14 15 15 15 16 16 16 16 16 16 16 16 15 15 15 15 15 14 14 14 14
17 17 16 17 18 19 21 22 19 19 19 19 18 18 18 18 18 17 17 16 16 15 16 17 17 16 17 17 17 17 17 18 17 16 16 16 16 16 16 15 15 15 15
17 16 16 17 17 18 17 19 21 20 20 20 20 19 19 19 18 17 17 17 16 16 17 17 18 17 17 17 17 18 18 17 16 16 16 16 16 16 16 16 16 16 15
16 17 17 17 17 17 17 18 18 19 20 20 20 19 19 19 18 17 16 16 17 17 17 17 18 17 17 17 17 17 17 17 17 17 17 17 17 16 16 16 16 17 17
16 16 16 16 16 16 16 17 17 17 18 18 18 17 17 18 17 17 16 16 17 17 17 17 17 17 17 17 17 17 18 18 18 18 17 18 17 16 17 17 17 17 17
15 15 15 15 15 15 16 16 16 17 18 19 20 19 17 17 18 18 17 17 17 18 17 18 18 18 18 18 18 18 18 18 18 18 18 18 18 17 18 17 17 18 17
14 14 15 15 15 15 16 16 16 17 18 19 20 19 19 18 18 18 18 18 18 18 18 18 18 18 18 18 18 18 19 19 19 19 19 19 19 18 18 17 17 16 16
14 14 15 15 15 16 16 16 16 16 17 17 18 19 18 17 18 18 18 19 19 18 18 18 18 19 19 19 19 19 19 20 20 20 20 19 18 17 17 17 16 16 16
14 14 15 15 15 15 15 16 16 16 17 17 17 18 18 18 18 18 19 18 18 19 19 18 19 19 19 19 18 19 19 20 20 19 20 19 18 17 17 17 16 16 16
15 15 15 16 16 16 16 16 17 18 17 17 17 18 18 18 19 19 19 19 19 19 19 19 20 21 20 20 18 18 19 20 20 19 20 19 18 17 17 17 16 16 16
15 16 16 16 16 16 16 17 17 17 17 17 17 17 17 17 18 18 19 19 20 19 20 19 19 19 19 20 20 19 21 21 21 21 19 19 17 17 17 16 16 16 16
16 16 16 16 16 16 16 16 17 17 17 17 17 17 17 17 17 18 18 18 19 19 19 18 18 20 19 18 19 19 20 20 20 21 20 18 17 17 17 18 18 17 17

GFSGL_con_lsi_096.txt.gz
Lid_Strength_Index
2 2 2 2 1 1 1 1 2 2 2 3 3 3 2 2 2 2 2 2 2 2 2 3 2 2 3 3 3 2 3 4 5 4 3 2 2 2 1 2 1 1 1
2 2 2 2 1 2 2 1 2 2 2 3 2 3 4 3 2 3 3 2 2 3 3 3 3 3 3 3 3 3 3 3 4 4 3 3 2 2 1 1 0 -0 0
2 3 2 2 2 2 2 1 2 2 3 3 3 4 5 5 5 4 4 4 4 4 4 3 3 3 4 3 3 3 3 3 2 4 4 2 2 2 2 1 1 0 -0
2 2 2 2 2 2 1 1 1 2 3 3 3 4 4 5 5 5 5 5 5 4 4 4 4 4 4 3 3 2 3 2 3 3 3 3 3 2 1 2 2 1 1
2 2 2 2 2 1 2 1 1 2 2 2 2 3 4 4 4 5 5 5 5 5 4 4 3 4 6 4 2 2 3 3 3 3 3 3 3 3 3 2 2 2 8
4 3 2 2 2 2 2 2 1 1 1 1 2 2 4 10 13 11 6 4 4 4 5 4 4 6 6 8 9 12 9 4 3 3 3 3 3 8 9 8 8 8 8
8 7 6 5 6 6 6 6 7 6 8 9 9 10 12 12 13 12 9 3 4 5 6 5 6 9 9 7 13 13 13 13 13 8 7 12 11 14 13 11 10 10 11
12 11 9 9 9 9 10 10 11 11 11 12 13 12 13 13 13 12 11 10 12 13 13 12 11 12 13 10 13 15 15 15 15 15 15 16 16 15 14 13 13 14 15
15 14 13 12 12 13 13 13 13 14 14 15 15 14 14 14 13 13 11 13 14 15 15 14 14 14 14 11 14 16 17 17 15 15 15 15 15 15 14 13 15 15 15
16 15 14 14 14 15 15 15 15 15 16 16 16 15 15 15 14 13 13 14 16 16 16 16 15 15 14 14 15 16 17 17 17 17 16 16 16 16 15 16 15 14 14
16 16 16 15 15 15 15 15 15 15 15 16 17 17 16 16 15 15 15 16 17 17 17 17 16 16 15 15 16 16 17 17 16 16 16 16 16 16 17 17 17 17 16
18 17 17 17 16 16 15 15 15 16 16 16 16 17 17 17 16 16 16 16 16 18 18 18 17 16 16 16 16 15 15 15 15 16 17 17 17 16 19 18 19 19 19
18 20 19 18 18 18 18 17 17 16 17 17 18 18 19 17 17 17 17 17 17 17 17 16 16 16 16 17 16 16 16 16 16 16 17 17 17 19 18 17 17 16 17
18 19 20 20 20 19 19 19 20 18 19 19 19 20 20 19 18 16 16 16 17 17 17 17 17 17 16 17 17 16 16 16 16 17 17 18 19 19 19 19 19 18 18
17 18 19 20 21 21 20 20 20 19 19 20 20 20 20 20 19 17 17 17 16 17 17 17 17 17 18 18 19 19 19 19 19 20 20 20 19 19 19 18 18 18 19
17 17 17 17 19 20 21 21 19 19 19 19 19 19 19 18 17 17 17 16 16 17 18 19 19 19 19 20 20 21 21 21 20 20 21 19 19 19 18 18 18 18 19
17 17 17 17 17 18 19 20 21 20 18 19 18 18 18 18 18 18 17 17 17 18 20 21 21 21 20 20 20 21 22 21 20 21 21 21 20 19 19 19 19 19 20
16 16 17 17 17 17 17 18 18 20 21 21 19 19 18 18 17 17 17 18 20 19 19 20 20 20 21 21 21 21 21 21 21 20 22 22 22 21 22 21 20 23 21
16 15 15 16 16 16 17 17 18 19 21 21 20 19 18 18 18 18 18 20 21 21 21 21 21 21 20 21 21 21 23 24 24 25 23 22 24 21 22 21 21 22 22
15 15 15 15 15 16 16 17 17 19 20 21 21 21 18 19 20 20 20 20 20 20 20 20 20 20 20 20 22 23 22 23 23 22 24 25 25 23 24 23 23 24 20
14 15 15 15 16 16 16 17 17 18 20 21 21 20 19 19 20 20 20 21 21 20 20 20 21 21 21 22 21 22 23 22 23 23 23 23 25 23 22 22 23 22 20
15 15 15 16 16 17 16 16 17 18 18 19 19 20 19 19 20 20 20 21 21 21 20 21 21 22 22 22 22 24 23 25 25 25 26 25 24 22 24 23 23 24 21
15 15 16 16 16 16 17 18 18 17 18 19 19 19 20 21 21 20 21 21 21 22 23 21 22 22 23 22 22 22 24 25 24 25 29 26 25 24 25 24 22 22 21
16 16 16 17 17 17 17 17 18 20 19 18 18 19 20 20 21 22 23 24 22 22 24 22 24 25 25 26 25 23 24 27 26 25 28 24 24 22 24 22 21 22 22
16 16 16 16 17 17 18 18 18 19 19 19 19 19 20 20 20 21 23 23 25 24 24 24 25 24 25 26 24 25 27 26 28 27 26 25 24 23 20 21 21 20 19
16 16 16 16 16 17 17 17 17 18 18 19 19 20 20 20 20 22 22 22 24 24 23 22 21 24 24 21 22 25 26 25 26 26 27 23 21 21 22 23 22 23 20

GFSGL_con_lsi_102.txt.gz
Lid_Strength_Index
4 4 4 4 4 4 4 3 4 4 4 3 2 2 1 1 1 1 1 1 2 2 1 2 2 2 3 3 3 3 4 5 6 5 3 3 3 3 3 3 3 3 3
5 4 3 3 3 3 3 3 3 4 3 3 3 2 2 2 1 1 2 2 2 2 2 2 2 2 3 3 3 4 4 4 5 6 5 4 4 3 3 3 2 1 1
9 4 3 3 3 3 3 3 3 3 2 2 2 2 3 3 2 1 1 2 2 2 2 2 2 2 3 3 4 4 4 4 5 5 5 4 4 3 4 3 3 2 4
9 3 3 3 3 3 2 2 2 2 2 2 2 2 3 3 3 2 2 2 2 2 2 2 2 2 3 4 4 4 4 4 4 5 5 5 5 4 4 5 4 3 5
11 10 6 2 2 2 2 2 2 2 2 2 2 3 3 5 8 7 2 2 3 3 2 3 2 4 7 5 3 4 4 4 5 5 6 6 5 5 5 4 4 5 9
13 13 11 8 2 2 2 2 2 4 3 4 4 5 7 9 13 13 7 4 3 3 4 3 5 7 8 9 11 12 8 4 5 5 5 6 6 6 7 6 5 6 8
14 14 14 12 10 9 8 9 10 10 10 11 11 10 11 11 13 12 11 6 9 7 6 5 7 9 9 12 14 14 15 15 14 5 5 7 9 10 9 9 8 8 12
15 15 14 14 14 13 13 13 13 13 14 14 14 14 13 13 13 12 13 12 13 14 13 12 10 11 11 12 14 16 16 16 16 15 15 16 15 14 11 10 11 15 15
16 16 16 15 15 15 16 15 15 15 15 16 15 15 15 15 14 13 13 14 15 16 15 14 13 13 14 13 15 17 17 17 15 14 15 14 14 14 12 12 14 15 16
18 17 16 16 16 16 16 16 16 16 16 15 16 15 15 15 14 14 14 14 16 16 16 16 15 15 15 15 15 16 17 17 17 16 16 16 16 15 15 15 15 15 17
18 18 18 17 17 17 16 15 16 16 16 17 16 16 16 15 15 15 14 16 16 16 16 15 15 15 15 15 15 16 16 16 16 16 16 17 17 18 18 17 17 16 19
18 19 19 19 18 18 17 17 17 17 17 17 17 17 16 16 15 15 15 15 15 16 17 16 15 14 14 15 15 15 16 16 16 17 18 18 18 18 19 19 19 19 18
19 19 19 19 19 19 19 19 19 18 18 18 18 18 17 16 16 16 16 16 16 17 17 17 17 17 17 17 17 17 16 17 18 19 20 21 20 19 18 18 18 18 19
18 19 20 20 20 19 19 19 19 20 19 19 18 18 18 17 17 17 17 17 17 17 18 19 19 19 19 20 20 19 20 20 20 21 21 20 19 20 20 19 20 19 20
17 17 18 19 19 20 19 19 19 18 18 19 19 18 18 19 17 16 17 18 18 18 19 19 20 21 21 21 21 21 20 21 21 21 21 21 21 21 21 21 21 21 22
17 17 17 17 18 19 20 20 17 17 17 17 16 17 17 16 16 17 17 17 18 19 21 22 22 23 23 23 23 23 22 22 22 22 23 22 22 22 22 22 22 23 23
16 16 16 16 17 18 19 20 21 19 18 17 16 16 16 16 16 17 17 18 18 19 22 22 23 23 23 23 23 23 24 23 23 24 24 24 23 23 23 23 23 22 22
16 17 17 17 18 19 20 20 21 22 22 22 19 18 17 17 18 18 18 19 21 21 21 22 23 22 22 23 23 24 24 24 24 25 25 25 24 23 24 24 24 24 22
16 17 18 18 18 18 19 20 21 22 22 22 21 20 20 18 18 19 19 22 22 23 22 23 23 23 23 24 25 25 25 26 26 27 27 26 26 24 24 24 24 25 24
20 18 19 19 19 20 20 21 21 21 21 21 21 21 21 22 24 24 24 23 23 23 23 23 23 24 23 24 24 25 26 26 26 26 27 28 28 26 27 26 25 26 23
21 20 20 19 19 19 20 21 22 22 22 22 21 21 21 22 23 23 23 24 24 23 24 24 25 25 25 25 25 27 28 29 28 28 27 26 28 27 25 25 25 24 24
19 19 18 18 20 22 20 19 21 22 22 22 24 24 24 24 23 23 24 25 25 23 23 25 25 25 25 25 26 29 29 31 32 31 30 29 27 27 28 27 29 28 25
20 21 20 20 20 22 23 23 23 23 23 27 27 25 25 28 29 27 28 29 28 27 27 26 27 27 27 29 30 29 29 30 31 33 34 33 29 30 31 30 29 30 30
21 23 20 23 24 21 23 26 26 23 22 23 24 26 28 31 32 32 33 33 32 34 33 32 29 28 29 34 33 29 28 33 31 33 36 36 33 30 31 30 30 31 31
26 27 26 26 27 28 25 22 25 29 29 28 29 27 23 23 27 33 34 33 32 34 30 32 31 30 30 32 32 30 32 32 34 34 35 35 34 32 31 30 31 29 30
23 24 25 25 27 28 29 29 28 29 29 28 26 26 24 23 24 30 30 30 30 30 29 28 29 29 29 29 29 29 31 31 33 33 36 32 33 32 32 31 29 29 27

GFSGL_con_lsi_105.txt.gz
Lid_Strength_Index
9 6 3 3 3 3 3 4 3 3 3 3 3 2 2 1 1 1 1 1 2 2 1 2 2 1 2 3 3 3 4 5 6 6 5 4 4 3 3 3 3 3 4
9 7 3 3 3 3 4 4 4 4 3 3 3 3 2 2 1 1 2 1 2 2 2 2 2 2 2 3 3 4 4 4 5 6 5 5 4 3 3 3 3 3 3
9 7 2 3 4 4 4 4 4 3 3 4 3 3 3 2 2 2 2 1 2 2 2 2 2 2 3 3 3 4 4 4 5 5 6 5 4 3 3 3 3 5 8
11 11 9 5 3 4 3 3 3 3 4 3 2 2 2 3 3 3 2 2 2 1 1 1 2 2 2 3 4 4 4 4 5 5 5 5 5 4 4 4 5 5 9
12 12 12 9 3 2 3 3 3 3 2 2 2 2 3 4 8 9 7 2 2 2 2 2 2 3 6 4 3 4 4 4 5 5 6 6 6 6 5 5 5 8 10
15 14 13 12 11 10 6 3 4 6 6 6 7 7 8 8 13 12 10 4 3 3 3 3 2 7 7 10 9 9 5 4 5 5 5 6 6 5 6 6 6 9 10
16 15 15 14 14 14 12 11 11 11 11 12 11 11 11 12 13 11 11 8 9 11 8 5 6 9 11 12 14 15 15 15 11 4 5 6 7 7 8 9 9 9 12
17 17 16 15 15 15 15 15 14 14 14 14 14 13 13 14 14 13 13 11 13 14 13 12 9 10 11 12 14 15 16 16 16 14 12 14 15 13 10 10 11 16 16
17 18 17 16 16 16 16 16 16 16 15 15 15 15 15 15 14 13 13 13 15 15 15 14 14 13 14 12 14 16 17 17 16 15 15 15 15 14 13 13 15 14 16
18 17 17 17 17 16 17 17 16 16 16 16 16 16 15 15 14 14 14 14 15 15 15 16 15 15 15 15 15 16 17 18 17 17 17 18 17 17 16 15 14 15 16
18 17 17 17 17 17 17 16 17 16 17 17 17 16 16 15 14 14 14 15 15 15 16 16 16 14 15 15 15 16 17 17 17 18 18 19 19 18 18 16 16 15 17
18 19 18 18 18 17 18 17 17 17 17 17 17 17 17 16 15 15 15 15 16 17 17 17 15 15 15 15 16 16 16 17 18 19 19 19 19 19 19 18 18 18 18
18 19 19 19 18 17 18 18 18 18 18 18 18 18 17 17 17 16 16 16 17 18 17 17 17 17 17 17 17 17 17 18 19 20 20 20 19 18 17 18 18 18 18
18 19 19 20 20 18 18 18 18 18 19 18 18 19 18 18 18 17 17 18 18 18 19 19 19 18 19 19 19 19 19 19 19 20 20 20 19 19 19 18 19 20 21
17 18 18 19 20 20 19 18 19 18 17 18 18 18 19 19 18 17 17 19 20 20 20 21 21 22 22 21 21 21 21 21 21 20 20 21 21 21 21 20 21 21 22
17 17 18 18 19 19 19 19 17 17 16 16 16 17 18 17 17 17 17 18 18 19 21 23 23 23 23 23 23 23 23 23 22 22 22 21 22 22 22 22 21 22 23
17 16 17 17 19 19 20 20 21 19 18 17 17 17 17 17 17 17 18 18 19 20 22 23 24 24 23 23 23 23 24 23 23 23 23 23 22 22 23 23 23 23 23
18 19 18 18 19 20 21 21 21 21 22 21 19 18 17 18 18 18 18 19 22 22 22 23 24 24 24 24 24 25 25 25 25 25 25 25 24 24 24 24 24 24 23
17 19 20 21 20 21 22 22 21 21 22 21 21 20 21 19 19 19 19 22 23 23 23 23 23 23 24 24 25 26 26 26 26 26 26 26 26 25 25 25 25 25 24
21 20 21 21 22 23 23 23 22 22 22 22 23 23 21 22 24 24 24 24 25 24 24 24 24 24 24 24 25 26 26 27 27 27 28 28 27 26 26 26 25 25 25
23 21 22 21 22 22 23 22 23 24 24 23 24 26 24 23 25 25 24 24 24 24 25 25 25 26 25 27 27 29 30 30 29 29 28 29 31 28 27 27 27 25 24
21 21 20 21 21 23 22 21 23 24 23 24 26 26 26 26 25 25 26 28 28 26 26 26 25 25 26 26 27 30 31 33 32 31 30 30 28 29 28 28 28 29 26
22 23 22 21 20 23 24 22 25 27 28 29 28 27 27 31 32 29 30 34 29 30 30 29 28 28 29 31 30 30 30 32 33 35 35 33 30 31 32 32 31 32 31
23 25 22 23 23 23 28 29 24 22 22 25 29 30 30 32 35 34 35 36 34 35 36 34 30 29 30 35 34 31 30 35 34 35 38 36 33 31 33 32 31 33 33
28 29 29 28 30 30 28 23 26 27 25 26 25 25 23 25 28 33 35 34 33 34 31 32 31 30 32 33 31 30 31 32 35 35 36 35 34 35 33 32 33 31 32
26 25 25 27 28 29 30 30 30 32 30 28 27 27 24 24 25 31 31 31 30 30 30 31 30 29 30 30 30 30 31 31 34 35 37 33 34 34 34 33 31 31 29

GFSGL_con_lsi_108.txt.gz
Lid_Strength_Index
10 8 4 3 3 3 3 3 3 3 3 3 2 3 3 2 2 2 1 1 2 1 1 1 2 1 1 2 2 3 3 4 5 5 4 4 3 3 3 3 3 3 3
10 7 3 3 4 3 4 3 3 4 3 3 3 3 3 2 2 2 2 1 2 2 2 2 2 1 2 2 2 3 4 4 6 6 5 5 4 3 3 4 3 3 4
10 10 8 7 3 3 3 3 3 3 3 4 3 3 3 3 3 2 2 2 2 1 2 2 2 2 2 2 3 3 3 3 4 5 6 5 4 4 4 4 4 7 8
12 11 11 10 6 3 3 3 3 3 3 3 3 3 3 3 3 4 4 4 2 1 1 1 1 2 2 2 2 3 3 4 4 5 5 5 5 4 4 4 6 7 10
13 14 13 12 11 10 5 3 3 3 3 3 3 3 4 6 9 9 7 6 4 3 2 1 1 2 4 3 2 3 3 4 5 5 5 6 6 5 5 4 5 8 10
15 14 14 14 14 13 13 12 11 11 10 8 8 8 9 10 13 12 11 5 5 6 4 2 1 5 6 8 8 7 5 4 5 5 5 5 5 5 6 5 7 9 10
16 16 15 15 16 15 14 14 14 14 13 13 12 12 13 13 13 12 12 8 9 10 9 9 7 7 7 8 13 13 14 13 8 4 5 5 6 6 6 6 7 8 9
17 17 17 16 16 16 15 16 15 15 15 15 15 15 14 14 13 13 13 12 12 13 13 12 11 12 13 11 13 15 16 16 15 14 10 14 14 10 6 6 8 15 16
18 18 17 17 17 17 17 16 16 16 16 16 16 16 15 15 14 14 13 13 14 14 14 14 14 14 14 13 14 16 17 17 16 16 16 16 15 15 13 11 14 13 17
18 17 17 16 17 17 18 17 16 16 16 16 16 16 16 16 15 14 14 15 16 15 15 15 15 14 15 14 15 15 16 17 17 17 17 17 17 17 16 16 14 12 17
18 17 17 16 16 16 16 17 16 16 16 16 17 17 16 16 16 15 15 16 16 17 16 16 15 14 14 15 15 16 16 17 17 18 19 19 19 19 19 18 17 16 17
18 18 18 17 17 17 16 16 16 16 16 17 17 18 17 17 16 16 16 16 17 18 17 17 16 15 15 16 16 16 17 17 18 19 19 20 21 20 20 20 20 19 19
18 19 19 19 18 18 18 18 17 17 17 17 18 18 18 17 17 17 17 17 18 19 18 17 18 17 17 18 17 17 18 18 19 20 21 20 20 19 19 19 19 19 19
18 18 19 19 20 19 18 18 18 18 18 19 18 19 18 18 18 18 18 19 19 19 19 20 19 19 20 20 20 19 19 19 19 19 20 19 19 19 20 19 20 19 20
18 18 19 20 20 20 19 18 19 18 17 19 19 19 19 19 18 17 18 19 20 20 20 21 21 21 22 22 22 22 21 20 20 20 20 20 20 20 21 20 20 21 22
18 18 19 20 20 20 21 21 17 17 17 17 16 17 18 17 17 17 17 18 18 19 21 23 23 23 23 23 23 23 23 23 22 21 21 21 21 21 21 21 21 22 23
18 18 19 19 20 20 21 21 22 20 17 17 17 16 16 17 17 17 17 18 19 20 22 23 23 24 24 24 24 24 25 24 23 23 23 22 22 22 22 22 22 22 23
19 20 20 21 22 22 23 22 22 22 23 23 19 18 17 16 16 17 18 19 22 22 22 23 24 24 24 24 25 25 25 25 25 24 24 24 23 23 23 23 23 23 23
19 20 22 23 24 24 24 23 23 23 23 23 23 22 22 18 18 19 19 22 23 23 23 23 23 24 24 24 25 25 25 26 25 26 25 25 25 24 24 24 24 24 24
23 21 23 23 24 24 24 24 24 24 24 24 25 25 23 23 25 25 24 24 24 24 23 24 24 25 25 25 26 26 26 26 26 26 27 26 25 25 25 25 24 25 25
23 22 23 22 22 22 23 24 24 25 25 25 27 29 26 25 26 26 25 26 25 25 26 25 25 26 26 27 27 29 29 29 28 27 27 27 28 27 25 25 25 25 25
22 21 21 21 21 23 23 22 25 25 25 26 27 27 28 28 27 27 28 31 31 27 26 26 26 27 27 27 28 30 31 31 30 30 29 28 28 28 27 28 28 27 26
23 24 22 22 22 24 26 24 26 28 29 31 29 27 28 32 32 29 31 35 30 31 30 29 29 29 30 31 29 29 29 30 31 32 31 29 28 28 28 28 27 27 27
24 26 23 25 27 26 30 31 29 24 25 27 32 29 29 31 34 33 34 34 32 33 35 34 30 29 29 33 31 29 29 31 31 32 33 30 28 28 28 28 28 29 29
29 30 30 30 32 32 33 29 28 30 28 28 26 26 24 27 26 31 33 32 30 33 29 31 30 29 30 31 30 28 30 33 33 33 31 30 30 30 28 28 28 27 28
27 27 27 29 29 31 31 29 26 29 29 29 29 30 29 25 21 29 29 30 28 28 27 28 27 28 29 28 27 29 31 31 32 34 31 29 28 28 28 28 28 27 27

GFSGL_con_lsi_111.txt.gz
Lid_Strength_Index
9 9 6 2 2 1 2 1 1 1 1 1 1 1 1 2 2 2 1 1 2 1 1 1 1 1 1 1 1 1 2 2 4 2 3 3 3 3 2 1 1 1 1
9 9 9 7 2 2 2 3 2 3 2 2 1 1 2 2 2 2 2 1 2 2 1 1 2 1 1 1 1 2 2 2 3 4 4 4 4 3 2 1 1 1 1
11 10 10 10 8 3 3 3 3 3 2 2 2 2 2 2 2 2 2 2 2 1 1 2 1 1 2 2 2 2 2 2 2 3 5 4 4 4 3 3 2 2 4
12 12 11 12 10 9 4 4 3 3 3 3 3 3 3 4 5 5 4 4 3 2 1 1 1 1 2 2 2 2 2 2 3 4 4 5 4 4 3 4 6 6 7
14 14 13 12 12 11 11 10 9 10 10 9 6 7 8 10 12 11 7 5 4 3 2 2 1 1 4 3 2 2 2 3 3 4 4 4 5 5 5 4 5 8 9
16 15 15 13 14 15 14 13 12 13 13 13 13 13 13 13 14 13 12 7 4 5 5 4 3 5 5 8 8 7 3 3 4 4 4 5 5 5 4 4 7 9 10
16 17 15 15 15 16 15 15 16 15 15 15 15 15 15 14 13 13 13 9 9 10 10 9 8 6 9 8 11 12 12 11 7 3 4 4 5 4 4 5 7 7 8
17 17 17 16 17 16 16 16 16 16 16 16 16 16 16 15 14 14 13 12 13 14 13 12 11 11 11 10 13 15 16 16 15 13 6 11 11 4 4 4 6 13 15
18 17 17 17 17 17 17 17 16 16 17 17 16 16 17 16 15 14 14 14 14 15 15 14 13 13 13 12 14 16 16 17 16 15 15 16 16 15 13 9 11 11 16
17 17 16 16 16 17 17 17 16 16 16 16 17 17 16 17 16 16 16 16 16 16 16 15 15 14 14 14 13 14 16 17 16 17 17 17 17 17 16 16 12 10 16
16 16 17 16 16 16 15 16 15 15 16 16 17 17 17 17 17 16 16 17 18 18 18 18 17 15 15 14 15 16 16 16 17 17 17 18 19 19 19 19 17 15 16
17 17 17 17 16 16 16 15 15 15 16 16 16 16 15 16 16 16 16 17 17 19 19 19 18 17 17 16 17 16 16 16 16 18 19 20 21 21 21 20 19 19 19
17 18 18 17 16 16 16 16 16 16 16 17 17 17 17 15 15 16 17 17 18 19 18 18 18 18 19 19 18 18 17 18 18 19 20 20 20 20 19 20 19 19 19
18 18 17 18 17 17 16 16 16 17 17 18 18 18 17 16 16 16 16 17 17 18 18 19 19 19 20 20 20 20 19 19 20 20 20 19 19 20 20 19 20 20 21
17 17 17 16 17 17 17 16 16 16 16 17 17 17 17 18 17 17 17 17 17 18 18 18 19 20 21 21 21 21 21 20 20 20 20 20 20 20 20 19 20 20 21
16 17 17 17 17 17 17 17 16 16 16 16 15 16 16 16 16 16 17 17 18 18 19 20 21 21 22 22 22 22 22 21 21 20 20 20 20 20 21 20 20 21 22
17 16 16 17 17 17 18 18 19 17 17 17 17 16 16 16 16 16 16 17 17 18 19 20 20 21 22 23 23 23 23 22 21 21 21 20 20 20 20 20 21 21 22
16 19 17 17 17 18 18 18 18 19 20 19 18 18 17 17 17 17 17 17 17 17 18 19 20 20 21 22 22 23 23 23 23 22 22 21 21 21 21 21 21 22 23
17 17 17 17 18 18 18 18 18 19 19 19 19 19 19 18 18 18 18 19 19 19 19 19 19 19 20 21 21 22 22 23 23 23 23 22 21 21 22 22 22 22 22
17 19 19 17 17 18 18 18 19 19 19 20 20 20 19 19 20 20 20 20 20 20 20 20 20 20 21 20 21 20 21 22 22 22 22 21 21 21 21 22 21 22 22
17 18 19 18 18 18 18 18 19 19 19 20 20 21 23 20 21 21 21 21 21 21 21 20 20 21 21 21 21 21 22 21 21 21 21 22 21 21 21 21 21 21 22
18 18 18 19 18 19 19 18 19 19 19 19 19 20 22 20 20 21 21 22 21 21 21 21 21 22 22 22 22 22 23 23 22 21 21 21 21 21 21 21 22 22 22
19 19 19 19 19 20 19 19 19 19 19 19 19 20 20 20 21 21 21 22 21 22 22 21 22 22 23 23 22 23 23 24 24 23 22 21 21 21 20 21 22 22 22
19 19 20 20 20 20 20 20 19 20 19 18 18 18 18 18 18 19 19 19 19 19 20 21 21 22 22 22 21 22 23 24 23 23 23 21 21 21 21 21 22 23 22
19 19 19 19 19 20 20 19 18 17 16 16 16 16 16 16 16 15 16 17 18 17 18 19 18 21 21 22 22 23 25 25 24 26 21 21 22 22 22 21 21 21 22
18 19 18 18 18 18 17 17 16 16 16 16 16 16 15 15 15 15 15 16 16 16 17 16 18 21 22 20 21 23 24 24 23 26 21 20 20 20 20 21 23 20 21

GFSGL_con_lsi_114.txt.gz
Lid_Strength_Index
10 7 6 5 1 1 2 1 1 1 1 1 1 1 1 1 1 1 1 1 1 1 1 1 1 1 1 1 1 1 2 2 4 3 1 0 1 1 1 2 1 1 1
11 9 9 10 7 2 2 1 1 1 1 1 1 1 2 2 1 2 2 2 2 2 2 2 2 1 1 1 1 2 2 1 3 4 2 2 2 1 1 2 2 1 1
12 10 9 11 10 9 3 2 2 2 2 2 2 2 2 2 1 1 2 2 1 1 1 2 1 1 1 1 1 2 2 2 2 3 3 1 1 1 2 2 3 2 2
13 13 12 11 12 11 10 9 9 6 4 6 7 9 10 11 10 8 5 4 3 3 2 1 1 1 1 1 2 2 2 2 2 3 3 3 3 2 2 3 4 3 6
15 15 14 12 13 13 13 12 11 11 11 11 12 13 13 14 14 12 8 5 4 3 2 1 0 4 7 7 3 1 2 2 3 3 4 3 4 4 4 3 4 7 9
16 16 15 14 14 14 15 14 15 14 14 14 14 14 14 13 14 13 11 6 7 8 7 7 6 6 7 9 9 10 8 3 3 3 4 4 3 4 4 4 4 9 11
17 17 16 16 16 16 15 16 16 16 15 15 16 15 15 15 14 13 13 11 12 12 12 12 11 9 9 8 8 11 12 14 13 8 3 3 4 3 4 4 5 7 7
17 16 16 16 16 16 16 17 16 17 17 16 16 16 16 16 15 14 14 14 14 14 15 15 14 12 12 12 9 10 13 14 14 13 14 12 9 3 3 4 4 9 13
16 17 16 16 16 16 16 16 16 17 17 17 17 17 17 17 15 15 15 15 15 16 16 16 15 14 14 13 11 12 14 14 13 14 15 15 16 15 10 4 11 11 16
16 16 16 15 15 16 16 16 16 16 16 17 17 17 17 17 16 16 16 16 17 18 17 17 16 16 15 15 14 14 14 15 15 15 16 16 17 17 16 16 9 9 16
15 15 15 14 15 15 15 14 15 15 15 16 16 16 16 16 17 17 17 18 18 18 18 19 18 16 16 16 16 16 16 15 16 16 18 18 18 19 19 18 17 16 15
15 15 15 15 14 14 14 14 15 14 14 14 14 15 14 15 16 16 16 17 17 18 19 18 17 17 17 17 17 17 17 17 17 18 19 20 20 21 20 20 19 19 18
16 16 15 15 15 15 15 15 15 15 15 15 15 15 15 15 15 16 16 16 16 16 17 17 17 18 18 18 18 18 18 18 19 20 20 19 19 19 19 19 19 18 19
15 15 14 14 14 14 14 15 16 16 17 17 17 17 16 16 16 15 15 15 16 15 15 15 16 17 17 18 18 18 18 18 20 20 20 19 19 19 20 19 20 19 20
14 14 14 14 14 14 15 16 15 16 15 16 16 16 17 17 16 16 16 17 16 16 15 14 15 16 16 17 17 17 17 18 19 19 19 19 19 20 20 19 20 20 21
14 14 14 14 14 14 14 14 15 16 16 16 16 15 15 15 15 15 15 15 15 15 15 16 17 17 18 18 18 18 18 18 18 18 18 18 19 19 19 20 20 20 21
15 14 14 14 14 15 15 15 16 15 15 16 17 17 16 16 16 16 15 15 15 14 15 15 16 16 17 18 18 18 19 19 18 18 18 18 19 19 19 20 20 21 21
14 15 14 14 14 14 15 15 15 16 16 16 16 17 17 17 17 16 16 14 15 15 15 16 16 16 16 16 17 17 18 18 18 18 19 19 19 19 19 20 20 21 22
15 15 14 14 15 15 15 15 15 16 16 16 16 17 17 17 17 17 16 16 16 16 16 16 16 16 16 16 16 16 16 17 17 18 18 19 19 19 20 20 21 21 21
15 17 16 15 15 15 15 15 16 16 16 16 17 19 18 16 17 17 17 17 17 17 17 17 17 17 17 17 16 17 16 16 16 16 17 17 17 18 19 20 20 20 21
15 15 17 15 16 16 16 16 16 16 17 17 17 18 20 18 18 17 18 18 18 18 18 17 17 17 17 17 17 17 18 17 18 17 17 17 17 17 17 18 18 19 20
16 16 16 17 16 17 17 17 17 17 17 17 17 17 18 17 17 17 18 18 18 18 17 17 18 18 19 19 19 18 19 19 19 18 18 18 17 17 17 17 17 18 18
16 16 16 17 17 18 17 17 17 17 17 17 17 17 17 17 17 16 16 16 16 16 16 17 17 18 18 18 18 19 20 20 20 20 18 18 18 17 17 18 18 18 18
16 16 17 17 17 17 17 17 17 17 17 17 16 15 15 14 14 14 15 15 15 15 15 15 16 17 17 17 16 17 19 20 19 19 19 18 18 18 18 18 19 20 19
16 16 16 16 17 17 17 16 16 16 15 14 14 14 14 14 14 13 14 14 15 14 15 15 15 15 17 17 18 18 20 20 20 20 16 17 19 19 19 18 18 18 19
16 16 16 16 16 16 16 16 15 14 14 13 13 13 13 14 13 13 13 14 14 14 14 14 14 16 16 16 17 18 19 19 19 20 17 15 16 16 16 18 21 16 18

GFSGL_con_lsi_117.txt.gz
Lid_Strength_Index
13 11 10 8 6 3 1 1 1 1 1 1 1 1 1 1 1 2 1 1 2 2 1 2 2 1 1 1 1 1 2 2 4 3 1 0 0 0 0 -0 -0 0 2
13 12 10 8 8 6 4 1 1 1 1 1 1 1 1 1 1 2 2 2 2 2 2 2 2 1 1 1 1 2 2 2 3 4 2 2 1 0 0 0 1 -0 0
14 12 11 11 11 12 10 7 7 1 1 4 3 4 4 3 2 2 2 2 2 2 2 2 2 2 2 2 1 2 2 2 2 3 3 2 1 1 1 1 1 1 0
15 14 13 12 12 13 12 12 11 11 11 11 12 12 13 13 11 8 3 3 3 2 2 2 1 1 2 3 2 2 1 2 2 3 3 3 2 1 1 2 3 2 2
16 15 14 13 13 14 14 14 14 14 14 13 12 13 14 14 14 12 7 5 5 4 6 6 6 8 10 10 7 5 5 4 3 3 4 3 3 3 3 2 3 2 5
16 16 16 15 14 14 14 15 15 15 16 16 15 15 14 14 14 13 10 9 10 10 10 10 9 9 10 11 11 11 11 8 6 4 3 4 3 3 2 3 3 8 9
16 16 16 16 16 16 15 15 16 17 16 16 16 16 17 16 15 14 14 13 14 15 14 13 12 12 12 11 9 10 12 13 13 11 9 6 5 3 2 3 3 5 5
15 16 15 15 16 16 16 16 16 17 17 17 17 18 17 17 16 16 15 15 16 16 16 16 15 15 15 13 10 10 12 12 13 13 14 15 15 14 12 5 3 4 12
15 15 16 15 16 16 16 16 16 16 17 17 17 18 17 18 16 16 16 16 17 17 17 16 17 16 15 14 12 12 14 15 14 14 14 15 14 14 14 11 7 10 16
15 15 14 15 15 16 16 16 15 15 16 16 17 16 17 17 16 16 17 17 18 18 17 17 16 16 16 16 16 16 16 16 16 16 16 16 16 16 15 16 15 10 15
14 14 14 14 14 15 15 15 15 15 15 15 16 16 17 16 16 16 16 17 17 18 19 19 18 17 17 17 17 17 18 16 17 17 17 17 17 17 17 17 17 17 15
14 15 14 15 14 14 15 15 15 15 15 16 16 16 16 16 16 16 16 16 16 17 18 17 17 17 17 17 18 17 17 17 18 18 19 20 19 19 18 17 17 18 18
14 14 14 13 14 14 15 17 17 16 16 16 16 16 15 15 16 16 16 16 16 16 16 16 16 16 16 16 16 17 17 17 18 19 20 20 20 19 18 18 17 17 18
13 13 12 13 12 14 14 14 16 17 17 17 16 18 17 16 16 16 16 15 15 14 14 14 15 15 15 15 16 15 15 16 17 18 18 18 18 19 19 19 19 18 19
12 12 12 12 12 12 14 15 15 16 16 17 17 16 18 18 17 16 15 15 13 14 13 13 15 15 16 16 16 16 15 16 16 16 16 17 17 18 19 19 19 19 20
13 12 12 12 12 12 13 13 14 15 15 16 16 16 16 16 16 15 14 14 14 14 13 15 15 15 15 16 16 16 17 17 17 16 16 16 18 18 18 18 19 19 20
14 13 13 13 13 13 13 14 15 13 13 15 16 16 16 16 16 15 14 14 14 14 14 15 15 15 15 15 16 16 16 16 16 17 17 17 17 17 18 18 19 20 20
14 14 13 13 13 13 13 14 14 15 15 15 15 16 16 15 16 16 15 14 15 15 15 16 16 16 16 16 16 16 16 16 16 16 16 16 17 17 18 19 19 20 20
14 15 13 13 14 14 14 14 14 14 15 15 15 16 17 16 15 16 16 16 17 17 16 16 16 16 16 16 16 16 15 16 16 16 16 16 16 16 17 18 19 20 20
14 15 15 14 14 15 14 15 15 15 15 16 16 17 17 16 16 16 16 17 17 17 17 17 17 17 17 17 17 17 16 16 16 16 16 16 15 15 16 16 17 18 19
14 14 15 15 15 15 16 16 16 16 16 16 16 16 18 17 17 17 17 18 18 18 18 17 17 17 18 17 17 17 18 18 17 17 17 16 16 16 16 16 16 17 17
14 15 15 15 15 16 16 16 16 16 17 17 17 16 17 16 17 17 17 17 17 16 16 16 16 16 17 17 18 18 18 19 18 18 17 16 16 16 16 16 16 16 17
14 15 15 15 15 16 16 16 16 16 17 17 17 17 16 16 16 16 15 15 15 14 14 15 15 16 15 15 15 16 17 18 18 18 18 17 17 17 16 16 17 17 18
14 15 15 15 15 16 16 16 16 17 16 16 16 16 15 14 14 14 13 13 14 14 14 15 15 15 16 16 16 16 17 18 17 16 16 16 16 16 16 17 17 18 18
15 15 15 16 16 16 16 16 16 16 15 15 15 14 14 13 14 13 13 13 13 14 14 14 14 15 15 16 16 17 18 19 18 18 15 14 15 15 16 16 17 16 17
15 16 16 16 16 16 16 16 16 15 15 14 13 13 13 13 13 12 12 12 13 13 13 13 13 14 14 14 15 17 18 18 17 17 15 14 14 14 15 15 16 15 16

GFSGL_con_lsi_123.txt.gz
Lid_Strength_Index
14 14 13 11 10 9 9 7 7 6 5 4 4 3 1 1 2 3 2 2 2 2 1 2 2 1 3 2 2 2 4 4 5 3 3 2 2 2 2 2 2 2 1
14 14 14 13 12 11 11 11 9 8 6 4 3 3 1 3 3 4 3 2 3 2 2 2 2 2 2 2 3 2 2 3 4 4 3 3 3 2 2 3 2 1 1
15 14 14 14 14 13 13 12 11 10 9 8 8 8 8 10 8 5 2 2 2 2 2 2 2 2 2 2 3 3 4 3 3 4 3 3 2 2 3 3 2 2 1
15 15 15 15 14 14 13 13 12 12 11 12 12 11 12 12 11 8 4 2 2 2 4 5 7 7 4 3 3 4 4 4 4 3 4 3 3 3 2 3 3 2 2
16 16 16 15 15 14 15 14 14 13 13 13 13 13 12 12 13 12 11 10 10 10 11 13 13 13 13 12 7 7 7 6 6 5 5 4 4 4 4 3 3 3 2
16 17 16 16 15 15 15 15 15 15 15 15 15 15 14 14 13 14 15 16 15 15 15 15 14 14 13 14 14 14 14 10 9 7 7 7 6 8 10 10 7 4 5
16 17 17 17 17 16 15 15 16 16 16 17 16 16 16 16 15 15 15 16 16 17 16 16 16 15 13 12 14 15 15 15 15 12 11 13 13 15 14 13 10 9 8
17 17 17 18 18 17 17 16 16 17 17 17 18 17 17 16 15 15 16 16 18 17 17 18 17 16 16 14 15 16 17 16 16 16 16 17 17 16 16 15 15 13 12
17 17 17 18 19 19 18 18 18 17 18 19 19 18 18 16 15 16 16 17 17 17 17 17 17 17 17 16 16 16 18 19 16 16 16 16 16 16 16 16 17 16 14
16 17 16 16 18 19 19 19 18 18 19 19 20 20 18 19 16 15 15 17 18 17 17 16 16 17 16 16 18 18 20 19 19 18 19 18 18 17 17 18 18 18 16
16 14 15 15 16 17 17 18 19 19 19 20 20 20 20 18 18 16 16 17 17 18 18 17 16 16 16 16 16 18 18 18 18 19 19 19 19 18 18 18 18 19 19
17 17 16 16 16 17 18 18 18 18 18 19 19 20 20 19 17 17 16 16 16 18 18 18 17 17 17 17 18 17 17 17 17 18 18 19 19 19 18 18 18 18 18
16 17 18 17 17 17 18 18 18 18 19 19 19 19 19 17 16 15 15 16 16 17 17 17 16 17 17 18 18 18 19 18 18 19 19 19 18 18 18 18 17 17 17
17 17 16 19 18 18 18 17 18 18 19 19 19 19 18 18 17 15 15 15 15 15 16 16 17 17 18 19 19 19 19 19 19 20 20 18 18 18 19 19 21 20 20
16 16 16 15 17 18 17 17 17 16 16 18 18 18 18 18 17 14 15 16 16 16 17 17 18 18 18 18 18 17 18 19 19 19 19 19 19 19 20 19 20 22 22
15 15 16 16 16 16 16 17 13 14 14 15 15 16 17 15 15 15 15 15 16 16 19 20 21 20 20 20 20 19 18 18 17 17 18 18 19 20 19 19 20 22 22
16 15 15 16 16 16 17 17 19 18 14 15 15 15 15 15 15 16 17 17 17 18 20 21 22 22 21 21 20 20 20 20 19 18 19 18 17 17 18 19 20 20 21
17 18 17 17 19 19 19 19 19 19 20 21 17 17 16 16 16 17 18 19 21 21 21 22 22 22 22 22 22 22 21 21 21 21 20 20 20 18 19 18 19 20 20
16 19 19 20 20 20 21 20 21 21 22 23 23 20 21 17 17 17 18 23 23 23 23 23 22 22 23 23 24 24 23 23 24 24 23 22 21 20 20 20 21 21 20
20 19 21 21 21 21 21 21 21 21 22 23 23 23 20 20 22 25 28 30 28 24 25 23 23 23 24 24 24 25 24 25 25 25 25 25 23 21 21 21 22 24 21
21 19 20 20 21 21 21 22 21 22 23 23 24 26 24 23 26 26 25 28 28 26 28 26 27 29 28 27 23 25 26 26 26 25 24 23 23 21 20 21 21 22 22
19 18 18 19 19 21 20 19 21 21 21 23 24 23 24 26 25 25 26 27 28 27 26 26 26 25 26 26 24 29 29 31 28 25 25 23 22 20 19 19 21 22 21
19 20 19 18 19 21 22 21 22 22 22 24 24 21 21 25 26 26 26 27 26 27 27 25 29 24 25 27 27 26 27 28 26 28 26 23 22 20 19 20 22 24 23
20 22 19 21 23 22 24 24 25 23 22 23 25 26 26 24 24 23 23 27 26 28 28 26 25 21 23 27 29 26 24 27 27 26 24 22 20 18 20 20 19 23 25
23 24 24 24 25 25 27 26 26 26 27 26 22 22 21 22 22 23 20 19 19 26 23 25 24 21 22 25 24 23 25 25 27 27 24 21 21 22 21 21 20 20 25
22 22 23 23 24 25 26 24 25 28 27 23 22 23 23 22 21 22 22 20 18 17 19 23 22 20 22 22 22 22 24 24 26 25 26 23 25 24 22 22 21 18 21

GFSGL_con_lsi_126.txt.gz
Lid_Strength_Index
14 14 13 13 12 12 11 10 10 8 7 6 5 5 5 5 4 3 1 1 2 2 3 2 2 2 2 2 1 2 2 4 5 4 3 3 2 2 2 2 2 2 2
15 14 14 13 13 13 13 11 11 10 10 9 8 8 7 6 5 4 3 2 2 3 3 2 2 1 2 2 2 2 2 2 4 4 4 4 3 2 2 2 2 1 1
16 16 15 15 14 14 14 14 13 13 13 12 11 11 11 10 7 6 4 3 4 4 5 3 2 2 2 2 2 2 2 2 3 5 4 4 4 3 3 3 2 2 2
16 17 17 16 15 15 15 15 15 14 13 13 12 12 11 11 11 10 10 9 9 9 10 11 9 8 5 2 2 2 2 3 3 4 5 5 4 4 3 4 3 2 2
17 18 18 18 16 15 16 16 16 15 15 14 14 13 12 13 13 12 13 13 12 12 12 12 12 12 13 13 6 8 3 3 3 4 5 5 4 4 4 5 4 4 3
17 18 18 18 18 17 16 16 17 17 17 17 16 15 15 13 12 13 12 13 14 14 14 14 13 12 13 15 15 15 15 10 8 7 7 7 9 11 11 10 9 7 6
17 18 19 18 19 18 18 17 18 19 18 18 18 17 16 15 13 13 13 14 14 14 15 15 15 14 14 14 15 15 16 16 16 12 14 15 14 16 14 13 11 11 10
17 17 19 19 20 19 18 19 19 19 20 19 18 18 17 15 14 14 14 15 16 16 17 16 17 17 16 16 15 17 17 17 17 17 17 17 17 16 16 15 15 15 14
16 16 16 18 19 20 20 20 19 20 20 20 20 19 19 16 14 15 16 16 17 17 16 16 17 17 16 16 18 18 19 19 17 16 17 16 17 16 17 16 18 17 16
16 16 16 16 17 18 18 18 19 19 20 20 20 19 17 18 15 15 16 17 18 18 18 17 16 17 17 17 18 18 19 19 19 18 19 18 18 18 17 18 19 19 18
18 16 16 16 17 17 17 18 18 18 18 18 17 17 17 16 16 15 16 18 18 18 19 19 18 17 17 17 17 18 19 17 18 18 18 18 18 18 18 18 18 19 20
21 20 19 18 17 18 18 17 18 18 18 18 18 17 16 16 14 14 14 15 17 19 19 19 19 18 18 18 19 18 18 19 19 19 19 20 20 20 19 18 18 18 18
18 20 23 21 19 19 18 18 18 18 18 18 18 18 18 16 16 15 14 15 15 17 17 17 18 19 19 19 18 19 20 20 20 21 21 20 20 19 19 19 19 19 19
17 17 17 18 19 19 18 17 17 18 19 18 18 18 18 18 17 17 17 17 17 18 18 18 18 17 19 19 19 19 19 19 20 20 21 20 19 19 20 19 21 21 21
17 17 17 16 17 17 16 16 16 16 17 18 18 18 18 19 18 16 17 18 18 18 20 20 21 21 21 20 20 20 20 19 19 19 19 19 19 20 20 20 20 21 23
15 16 17 17 17 17 19 18 14 15 15 15 14 16 18 16 16 16 17 17 17 18 21 23 24 23 23 23 22 22 21 21 21 20 20 20 20 18 18 18 19 21 22
16 16 17 17 17 18 19 19 22 20 16 16 16 15 16 16 16 17 18 18 18 20 23 23 24 25 24 24 24 24 24 23 23 23 23 22 21 20 20 19 20 20 20
18 20 19 20 21 21 24 22 23 22 23 24 19 17 16 16 17 17 18 20 23 22 23 24 25 25 25 24 25 25 25 25 26 25 25 25 24 22 21 21 21 24 22
17 21 23 24 24 24 24 23 23 24 26 26 25 22 22 17 17 18 19 25 25 24 24 24 25 25 25 25 26 28 29 28 28 29 27 26 26 24 23 22 23 24 23
21 21 23 23 23 23 23 22 22 23 23 24 24 26 23 22 28 30 31 33 30 27 27 25 25 26 29 28 30 34 30 30 30 29 29 28 27 25 24 23 23 25 24
23 20 21 21 21 21 21 21 21 22 22 22 24 27 25 24 26 27 26 30 29 28 30 28 29 31 31 31 28 32 33 34 31 30 29 28 27 26 23 22 24 23 23
20 19 19 20 19 21 21 20 22 22 21 22 23 23 24 25 22 24 25 28 29 28 28 28 28 27 28 28 29 36 35 36 34 30 28 26 24 23 21 21 22 25 22
20 22 20 20 20 23 24 23 24 25 26 25 23 22 22 23 24 24 24 22 23 28 28 28 32 28 28 31 31 30 30 29 29 32 30 26 23 22 22 22 21 24 26
21 23 20 23 25 25 28 29 28 26 25 26 26 25 23 23 26 26 24 24 23 23 24 27 28 25 25 29 32 29 25 29 30 29 32 26 23 22 22 22 22 23 26
24 26 26 28 29 31 31 30 30 30 29 29 28 27 25 24 26 29 29 26 25 24 23 20 21 22 22 23 26 24 26 26 29 29 30 28 28 27 24 22 23 19 26
24 24 26 26 29 30 32 33 33 32 29 27 29 30 30 25 25 32 29 27 25 24 22 20 20 20 19 22 23 23 26 25 27 27 31 27 29 27 27 23 21 21 21